<?xml version="1.0" encoding="UTF-8" standalone="no" ?>
<gpx xmlns="http://www.topografix.com/GPX/1/1" xmlns:xsi="http://www.w3.org/2001/XMLSchema-instance" xsi:schemaLocation="http://www.topografix.com/GPX/1/1 http://www.topografix.com/GPX/1/1/gpx.xsd" version="1.1" creator="VisuGPX - https://www.visugpx.com">
  <metadata>
    <name>Les Trois cols</name>
    <desc><![CDATA[Une grande rando Vélo de montagne, une classique Briançonnaise]]></desc>
  </metadata>
  <trk>
    <name><![CDATA[3 Cols]]></name>
    <trkseg>
      <trkpt lat="44.90019" lon="6.63448">
        <ele>1225.8081054688</ele>
        <time>2013-07-24T07:03:13Z</time>
      </trkpt>
      <trkpt lat="44.90011" lon="6.63399">
        <ele>1223.7498779297</ele>
        <time>2013-07-24T07:03:13Z</time>
      </trkpt>
      <trkpt lat="44.89995" lon="6.63348">
        <ele>1223.2935791016</ele>
        <time>2013-07-24T07:03:13Z</time>
      </trkpt>
      <trkpt lat="44.8998" lon="6.63323">
        <ele>1223.65234375</ele>
        <time>2013-07-24T07:03:13Z</time>
      </trkpt>
      <trkpt lat="44.89978" lon="6.63313">
        <ele>1223.9270019531</ele>
        <time>2013-07-24T07:03:13Z</time>
      </trkpt>
      <trkpt lat="44.89924" lon="6.63354">
        <ele>1220.3422851562</ele>
        <time>2013-07-24T07:03:13Z</time>
      </trkpt>
      <trkpt lat="44.89885" lon="6.63383">
        <ele>1219</ele>
        <time>2013-07-24T07:03:13Z</time>
      </trkpt>
      <trkpt lat="44.89865" lon="6.63386">
        <ele>1219</ele>
        <time>2013-07-24T07:03:13Z</time>
      </trkpt>
      <trkpt lat="44.89856" lon="6.63366">
        <ele>1218.814453125</ele>
        <time>2013-07-24T07:03:13Z</time>
      </trkpt>
      <trkpt lat="44.89854" lon="6.63308">
        <ele>1215.6069335938</ele>
        <time>2013-07-24T07:03:13Z</time>
      </trkpt>
      <trkpt lat="44.8985" lon="6.63256">
        <ele>1212.0526123047</ele>
        <time>2013-07-24T07:03:13Z</time>
      </trkpt>
      <trkpt lat="44.8985" lon="6.63244">
        <ele>1211.3807373047</ele>
        <time>2013-07-24T07:03:13Z</time>
      </trkpt>
      <trkpt lat="44.89904" lon="6.63199">
        <ele>1217.3472900391</ele>
        <time>2013-07-24T07:03:13Z</time>
      </trkpt>
      <trkpt lat="44.89938" lon="6.63168">
        <ele>1224.6997070312</ele>
        <time>2013-07-24T07:03:13Z</time>
      </trkpt>
      <trkpt lat="44.89941" lon="6.63159">
        <ele>1225.1450195312</ele>
        <time>2013-07-24T07:03:13Z</time>
      </trkpt>
      <trkpt lat="44.89915" lon="6.63162">
        <ele>1217.5537109375</ele>
        <time>2013-07-24T07:03:13Z</time>
      </trkpt>
      <trkpt lat="44.8987" lon="6.63152">
        <ele>1210.5925292969</ele>
        <time>2013-07-24T07:03:13Z</time>
      </trkpt>
      <trkpt lat="44.89864" lon="6.63152">
        <ele>1210.197265625</ele>
        <time>2013-07-24T07:03:13Z</time>
      </trkpt>
      <trkpt lat="44.89864" lon="6.63129">
        <ele>1210.0734863281</ele>
        <time>2013-07-24T07:03:13Z</time>
      </trkpt>
      <trkpt lat="44.89876" lon="6.63124">
        <ele>1210.2440185547</ele>
        <time>2013-07-24T07:03:13Z</time>
      </trkpt>
      <trkpt lat="44.89888" lon="6.63109">
        <ele>1210</ele>
        <time>2013-07-24T07:03:13Z</time>
      </trkpt>
      <trkpt lat="44.89893" lon="6.63074">
        <ele>1210.7326660156</ele>
        <time>2013-07-24T07:03:13Z</time>
      </trkpt>
      <trkpt lat="44.89893" lon="6.63036">
        <ele>1210.6640625</ele>
        <time>2013-07-24T07:03:13Z</time>
      </trkpt>
      <trkpt lat="44.89894" lon="6.62994">
        <ele>1210.9061279297</ele>
        <time>2013-07-24T07:03:13Z</time>
      </trkpt>
      <trkpt lat="44.89895" lon="6.62978">
        <ele>1211.3238525391</ele>
        <time>2013-07-24T07:03:13Z</time>
      </trkpt>
      <trkpt lat="44.89906" lon="6.62969">
        <ele>1213.7407226562</ele>
        <time>2013-07-24T07:03:13Z</time>
      </trkpt>
      <trkpt lat="44.89903" lon="6.62956">
        <ele>1213.9724121094</ele>
        <time>2013-07-24T07:03:13Z</time>
      </trkpt>
      <trkpt lat="44.89896" lon="6.62947">
        <ele>1213.1044921875</ele>
        <time>2013-07-24T07:03:13Z</time>
      </trkpt>
      <trkpt lat="44.89875" lon="6.6292">
        <ele>1211.4915771484</ele>
        <time>2013-07-24T07:03:13Z</time>
      </trkpt>
      <trkpt lat="44.89867" lon="6.62917">
        <ele>1210.6374511719</ele>
        <time>2013-07-24T07:03:13Z</time>
      </trkpt>
      <trkpt lat="44.89861" lon="6.62907">
        <ele>1210</ele>
        <time>2013-07-24T07:03:13Z</time>
      </trkpt>
      <trkpt lat="44.89865" lon="6.6289">
        <ele>1210.0125732422</ele>
        <time>2013-07-24T07:03:13Z</time>
      </trkpt>
      <trkpt lat="44.89874" lon="6.62874">
        <ele>1210</ele>
        <time>2013-07-24T07:03:13Z</time>
      </trkpt>
      <trkpt lat="44.89904" lon="6.62851">
        <ele>1210.3450927734</ele>
        <time>2013-07-24T07:03:13Z</time>
      </trkpt>
      <trkpt lat="44.89936" lon="6.62831">
        <ele>1216.1276855469</ele>
        <time>2013-07-24T07:03:13Z</time>
      </trkpt>
      <trkpt lat="44.89959" lon="6.628">
        <ele>1221.0357666016</ele>
        <time>2013-07-24T07:03:13Z</time>
      </trkpt>
      <trkpt lat="44.8998" lon="6.62763">
        <ele>1220.9157714844</ele>
        <time>2013-07-24T07:03:13Z</time>
      </trkpt>
      <trkpt lat="44.90006" lon="6.62735">
        <ele>1220</ele>
        <time>2013-07-24T07:03:13Z</time>
      </trkpt>
      <trkpt lat="44.9004" lon="6.62741">
        <ele>1220</ele>
        <time>2013-07-24T07:03:13Z</time>
      </trkpt>
      <trkpt lat="44.90064" lon="6.62757">
        <ele>1221.1768798828</ele>
        <time>2013-07-24T07:03:13Z</time>
      </trkpt>
      <trkpt lat="44.90087" lon="6.62748">
        <ele>1221.1361083984</ele>
        <time>2013-07-24T07:03:13Z</time>
      </trkpt>
      <trkpt lat="44.90107" lon="6.62732">
        <ele>1222.9034423828</ele>
        <time>2013-07-24T07:03:13Z</time>
      </trkpt>
      <trkpt lat="44.90126" lon="6.62703">
        <ele>1227.4898681641</ele>
        <time>2013-07-24T07:03:13Z</time>
      </trkpt>
      <trkpt lat="44.90152" lon="6.62625">
        <ele>1222.9151611328</ele>
        <time>2013-07-24T07:03:13Z</time>
      </trkpt>
      <trkpt lat="44.90162" lon="6.626">
        <ele>1223.0887451172</ele>
        <time>2013-07-24T07:03:13Z</time>
      </trkpt>
      <trkpt lat="44.90217" lon="6.62612">
        <ele>1220.5828857422</ele>
        <time>2013-07-24T07:03:13Z</time>
      </trkpt>
      <trkpt lat="44.90287" lon="6.62628">
        <ele>1224.150390625</ele>
        <time>2013-07-24T07:03:13Z</time>
      </trkpt>
      <trkpt lat="44.90355" lon="6.62646">
        <ele>1221.4753417969</ele>
        <time>2013-07-24T07:03:13Z</time>
      </trkpt>
      <trkpt lat="44.9039" lon="6.62654">
        <ele>1220</ele>
        <time>2013-07-24T07:03:13Z</time>
      </trkpt>
      <trkpt lat="44.90411" lon="6.62695">
        <ele>1224.9691162109</ele>
        <time>2013-07-24T07:03:13Z</time>
      </trkpt>
      <trkpt lat="44.90426" lon="6.62718">
        <ele>1226.3991699219</ele>
        <time>2013-07-24T07:03:13Z</time>
      </trkpt>
      <trkpt lat="44.9045" lon="6.62725">
        <ele>1225.7132568359</ele>
        <time>2013-07-24T07:03:13Z</time>
      </trkpt>
      <trkpt lat="44.90488" lon="6.62712">
        <ele>1224.7861328125</ele>
        <time>2013-07-24T07:03:13Z</time>
      </trkpt>
      <trkpt lat="44.9054" lon="6.62718">
        <ele>1226.6625976562</ele>
        <time>2013-07-24T07:03:13Z</time>
      </trkpt>
      <trkpt lat="44.90598" lon="6.62718">
        <ele>1232.5340576172</ele>
        <time>2013-07-24T07:03:13Z</time>
      </trkpt>
      <trkpt lat="44.90618" lon="6.62691">
        <ele>1231.1466064453</ele>
        <time>2013-07-24T07:03:13Z</time>
      </trkpt>
      <trkpt lat="44.90673" lon="6.62599">
        <ele>1230.7004394531</ele>
        <time>2013-07-24T07:03:13Z</time>
      </trkpt>
      <trkpt lat="44.90691" lon="6.62569">
        <ele>1230</ele>
        <time>2013-07-24T07:03:13Z</time>
      </trkpt>
      <trkpt lat="44.90736" lon="6.62538">
        <ele>1231.4078369141</ele>
        <time>2013-07-24T07:03:13Z</time>
      </trkpt>
      <trkpt lat="44.90814" lon="6.62491">
        <ele>1235.5443115234</ele>
        <time>2013-07-24T07:03:13Z</time>
      </trkpt>
      <trkpt lat="44.90876" lon="6.62428">
        <ele>1239.3609619141</ele>
        <time>2013-07-24T07:03:13Z</time>
      </trkpt>
      <trkpt lat="44.90895" lon="6.62397">
        <ele>1240</ele>
        <time>2013-07-24T07:03:13Z</time>
      </trkpt>
      <trkpt lat="44.90913" lon="6.62354">
        <ele>1240</ele>
        <time>2013-07-24T07:03:13Z</time>
      </trkpt>
      <trkpt lat="44.90924" lon="6.62255">
        <ele>1240</ele>
        <time>2013-07-24T07:03:13Z</time>
      </trkpt>
      <trkpt lat="44.90996" lon="6.6216">
        <ele>1242.9006347656</ele>
        <time>2013-07-24T07:03:13Z</time>
      </trkpt>
      <trkpt lat="44.91007" lon="6.6215">
        <ele>1247.6555175781</ele>
        <time>2013-07-24T07:03:13Z</time>
      </trkpt>
      <trkpt lat="44.90997" lon="6.62125">
        <ele>1248.1494140625</ele>
        <time>2013-07-24T07:03:13Z</time>
      </trkpt>
      <trkpt lat="44.90994" lon="6.62111">
        <ele>1250.1955566406</ele>
        <time>2013-07-24T07:03:13Z</time>
      </trkpt>
      <trkpt lat="44.91006" lon="6.62073">
        <ele>1257.1265869141</ele>
        <time>2013-07-24T07:03:13Z</time>
      </trkpt>
      <trkpt lat="44.91021" lon="6.62036">
        <ele>1261.9034423828</ele>
        <time>2013-07-24T07:03:13Z</time>
      </trkpt>
      <trkpt lat="44.91049" lon="6.62011">
        <ele>1265.6655273438</ele>
        <time>2013-07-24T07:03:13Z</time>
      </trkpt>
      <trkpt lat="44.91099" lon="6.61985">
        <ele>1269.0277099609</ele>
        <time>2013-07-24T07:03:13Z</time>
      </trkpt>
      <trkpt lat="44.91129" lon="6.61972">
        <ele>1270.8497314453</ele>
        <time>2013-07-24T07:03:13Z</time>
      </trkpt>
      <trkpt lat="44.91141" lon="6.61976">
        <ele>1268.9699707031</ele>
        <time>2013-07-24T07:03:13Z</time>
      </trkpt>
      <trkpt lat="44.9117" lon="6.61962">
        <ele>1270.7546386719</ele>
        <time>2013-07-24T07:03:13Z</time>
      </trkpt>
      <trkpt lat="44.91183" lon="6.61945">
        <ele>1274.7373046875</ele>
        <time>2013-07-24T07:03:13Z</time>
      </trkpt>
      <trkpt lat="44.91201" lon="6.61929">
        <ele>1277.6518554688</ele>
        <time>2013-07-24T07:03:13Z</time>
      </trkpt>
      <trkpt lat="44.91204" lon="6.61896">
        <ele>1286.0590820312</ele>
        <time>2013-07-24T07:03:13Z</time>
      </trkpt>
      <trkpt lat="44.91191" lon="6.61883">
        <ele>1289.7661132812</ele>
        <time>2013-07-24T07:03:13Z</time>
      </trkpt>
      <trkpt lat="44.91177" lon="6.61882">
        <ele>1291.1530761719</ele>
        <time>2013-07-24T07:03:13Z</time>
      </trkpt>
      <trkpt lat="44.91161" lon="6.61888">
        <ele>1290.8005371094</ele>
        <time>2013-07-24T07:03:13Z</time>
      </trkpt>
      <trkpt lat="44.91175" lon="6.61868">
        <ele>1295.5476074219</ele>
        <time>2013-07-24T07:03:13Z</time>
      </trkpt>
      <trkpt lat="44.91218" lon="6.61858">
        <ele>1295.1020507812</ele>
        <time>2013-07-24T07:03:13Z</time>
      </trkpt>
      <trkpt lat="44.9124" lon="6.61837">
        <ele>1297.9429931641</ele>
        <time>2013-07-24T07:03:13Z</time>
      </trkpt>
      <trkpt lat="44.91215" lon="6.61856">
        <ele>1295.8865966797</ele>
        <time>2013-07-24T07:03:13Z</time>
      </trkpt>
      <trkpt lat="44.91259" lon="6.61844">
        <ele>1292.4626464844</ele>
        <time>2013-07-24T07:03:13Z</time>
      </trkpt>
      <trkpt lat="44.91291" lon="6.6181">
        <ele>1293.8115234375</ele>
        <time>2013-07-24T07:03:13Z</time>
      </trkpt>
      <trkpt lat="44.91322" lon="6.61791">
        <ele>1290.0487060547</ele>
        <time>2013-07-24T07:03:13Z</time>
      </trkpt>
      <trkpt lat="44.91347" lon="6.61749">
        <ele>1293.9561767578</ele>
        <time>2013-07-24T07:03:13Z</time>
      </trkpt>
      <trkpt lat="44.91371" lon="6.61722">
        <ele>1294.5140380859</ele>
        <time>2013-07-24T07:03:13Z</time>
      </trkpt>
      <trkpt lat="44.91392" lon="6.617">
        <ele>1297.970703125</ele>
        <time>2013-07-24T07:03:13Z</time>
      </trkpt>
      <trkpt lat="44.91411" lon="6.61672">
        <ele>1302.3142089844</ele>
        <time>2013-07-24T07:03:13Z</time>
      </trkpt>
      <trkpt lat="44.91423" lon="6.61649">
        <ele>1305.6492919922</ele>
        <time>2013-07-24T07:03:13Z</time>
      </trkpt>
      <trkpt lat="44.91448" lon="6.61652">
        <ele>1305.7834472656</ele>
        <time>2013-07-24T07:03:13Z</time>
      </trkpt>
      <trkpt lat="44.91481" lon="6.61648">
        <ele>1306.6219482422</ele>
        <time>2013-07-24T07:03:13Z</time>
      </trkpt>
      <trkpt lat="44.91521" lon="6.61617">
        <ele>1307.9936523438</ele>
        <time>2013-07-24T07:03:13Z</time>
      </trkpt>
      <trkpt lat="44.91551" lon="6.61572">
        <ele>1304.6049804688</ele>
        <time>2013-07-24T07:03:13Z</time>
      </trkpt>
      <trkpt lat="44.91591" lon="6.61491">
        <ele>1314.4920654297</ele>
        <time>2013-07-24T07:03:13Z</time>
      </trkpt>
      <trkpt lat="44.91632" lon="6.61464">
        <ele>1306.4139404297</ele>
        <time>2013-07-24T07:03:13Z</time>
      </trkpt>
      <trkpt lat="44.9166" lon="6.61417">
        <ele>1304.2229003906</ele>
        <time>2013-07-24T07:03:13Z</time>
      </trkpt>
      <trkpt lat="44.91687" lon="6.61374">
        <ele>1305.6566162109</ele>
        <time>2013-07-24T07:03:13Z</time>
      </trkpt>
      <trkpt lat="44.91738" lon="6.61334">
        <ele>1307.5882568359</ele>
        <time>2013-07-24T07:03:13Z</time>
      </trkpt>
      <trkpt lat="44.91782" lon="6.61298">
        <ele>1306.2281494141</ele>
        <time>2013-07-24T07:03:13Z</time>
      </trkpt>
      <trkpt lat="44.91831" lon="6.61249">
        <ele>1303.5483398438</ele>
        <time>2013-07-24T07:03:13Z</time>
      </trkpt>
      <trkpt lat="44.91879" lon="6.61187">
        <ele>1304.7916259766</ele>
        <time>2013-07-24T07:03:13Z</time>
      </trkpt>
      <trkpt lat="44.91922" lon="6.61104">
        <ele>1308.9637451172</ele>
        <time>2013-07-24T07:03:13Z</time>
      </trkpt>
      <trkpt lat="44.91971" lon="6.61036">
        <ele>1305.5054931641</ele>
        <time>2013-07-24T07:03:13Z</time>
      </trkpt>
      <trkpt lat="44.91994" lon="6.60991">
        <ele>1305.6002197266</ele>
        <time>2013-07-24T07:03:13Z</time>
      </trkpt>
      <trkpt lat="44.92027" lon="6.60924">
        <ele>1309.1257324219</ele>
        <time>2013-07-24T07:03:13Z</time>
      </trkpt>
      <trkpt lat="44.92095" lon="6.60844">
        <ele>1303.2897949219</ele>
        <time>2013-07-24T07:03:13Z</time>
      </trkpt>
      <trkpt lat="44.92159" lon="6.60753">
        <ele>1309.1866455078</ele>
        <time>2013-07-24T07:03:13Z</time>
      </trkpt>
      <trkpt lat="44.92191" lon="6.60696">
        <ele>1310.8551025391</ele>
        <time>2013-07-24T07:03:13Z</time>
      </trkpt>
      <trkpt lat="44.92217" lon="6.60643">
        <ele>1310.6860351562</ele>
        <time>2013-07-24T07:03:13Z</time>
      </trkpt>
      <trkpt lat="44.92264" lon="6.60574">
        <ele>1304.9240722656</ele>
        <time>2013-07-24T07:03:13Z</time>
      </trkpt>
      <trkpt lat="44.92293" lon="6.6049">
        <ele>1303.4197998047</ele>
        <time>2013-07-24T07:03:13Z</time>
      </trkpt>
      <trkpt lat="44.92308" lon="6.60385">
        <ele>1307.3826904297</ele>
        <time>2013-07-24T07:03:13Z</time>
      </trkpt>
      <trkpt lat="44.92327" lon="6.60303">
        <ele>1312.0089111328</ele>
        <time>2013-07-24T07:03:13Z</time>
      </trkpt>
      <trkpt lat="44.92352" lon="6.60241">
        <ele>1317.3703613281</ele>
        <time>2013-07-24T07:03:13Z</time>
      </trkpt>
      <trkpt lat="44.92418" lon="6.60157">
        <ele>1316.779296875</ele>
        <time>2013-07-24T07:03:13Z</time>
      </trkpt>
      <trkpt lat="44.92451" lon="6.60093">
        <ele>1313.9522705078</ele>
        <time>2013-07-24T07:03:13Z</time>
      </trkpt>
      <trkpt lat="44.9245" lon="6.60057">
        <ele>1316.5883789062</ele>
        <time>2013-07-24T07:03:13Z</time>
      </trkpt>
      <trkpt lat="44.92455" lon="6.60106">
        <ele>1312.6480712891</ele>
        <time>2013-07-24T07:03:13Z</time>
      </trkpt>
      <trkpt lat="44.92479" lon="6.60126">
        <ele>1311.4344482422</ele>
        <time>2013-07-24T07:03:13Z</time>
      </trkpt>
      <trkpt lat="44.92494" lon="6.60156">
        <ele>1315.5493164062</ele>
        <time>2013-07-24T07:03:13Z</time>
      </trkpt>
      <trkpt lat="44.92484" lon="6.60177">
        <ele>1316.0750732422</ele>
        <time>2013-07-24T07:03:13Z</time>
      </trkpt>
      <trkpt lat="44.92478" lon="6.60214">
        <ele>1319.1324462891</ele>
        <time>2013-07-24T07:03:13Z</time>
      </trkpt>
      <trkpt lat="44.92509" lon="6.60299">
        <ele>1323.830078125</ele>
        <time>2013-07-24T07:03:13Z</time>
      </trkpt>
      <trkpt lat="44.92562" lon="6.60366">
        <ele>1330.4483642578</ele>
        <time>2013-07-24T07:03:13Z</time>
      </trkpt>
      <trkpt lat="44.92613" lon="6.60409">
        <ele>1336.1243896484</ele>
        <time>2013-07-24T07:03:13Z</time>
      </trkpt>
      <trkpt lat="44.9266" lon="6.60446">
        <ele>1339.4749755859</ele>
        <time>2013-07-24T07:03:13Z</time>
      </trkpt>
      <trkpt lat="44.92696" lon="6.60462">
        <ele>1341.5352783203</ele>
        <time>2013-07-24T07:03:13Z</time>
      </trkpt>
      <trkpt lat="44.92736" lon="6.60475">
        <ele>1347.1859130859</ele>
        <time>2013-07-24T07:03:13Z</time>
      </trkpt>
      <trkpt lat="44.92759" lon="6.60493">
        <ele>1351.5654296875</ele>
        <time>2013-07-24T07:03:13Z</time>
      </trkpt>
      <trkpt lat="44.9278" lon="6.60525">
        <ele>1356.0120849609</ele>
        <time>2013-07-24T07:03:13Z</time>
      </trkpt>
      <trkpt lat="44.92783" lon="6.60556">
        <ele>1358.7603759766</ele>
        <time>2013-07-24T07:03:13Z</time>
      </trkpt>
      <trkpt lat="44.92789" lon="6.60507">
        <ele>1356.0484619141</ele>
        <time>2013-07-24T07:03:13Z</time>
      </trkpt>
      <trkpt lat="44.92784" lon="6.60446">
        <ele>1355.0223388672</ele>
        <time>2013-07-24T07:03:13Z</time>
      </trkpt>
      <trkpt lat="44.92785" lon="6.60486">
        <ele>1354.5268554688</ele>
        <time>2013-07-24T07:03:13Z</time>
      </trkpt>
      <trkpt lat="44.92823" lon="6.60458">
        <ele>1362.9190673828</ele>
        <time>2013-07-24T07:03:13Z</time>
      </trkpt>
      <trkpt lat="44.92851" lon="6.60448">
        <ele>1367.1284179688</ele>
        <time>2013-07-24T07:03:13Z</time>
      </trkpt>
      <trkpt lat="44.92886" lon="6.60418">
        <ele>1367.8531494141</ele>
        <time>2013-07-24T07:03:13Z</time>
      </trkpt>
      <trkpt lat="44.92921" lon="6.60408">
        <ele>1372.0751953125</ele>
        <time>2013-07-24T07:03:13Z</time>
      </trkpt>
      <trkpt lat="44.92941" lon="6.60397">
        <ele>1373.6909179688</ele>
        <time>2013-07-24T07:03:13Z</time>
      </trkpt>
      <trkpt lat="44.92974" lon="6.60393">
        <ele>1377.1606445312</ele>
        <time>2013-07-24T07:03:13Z</time>
      </trkpt>
      <trkpt lat="44.92999" lon="6.60391">
        <ele>1379.9208984375</ele>
        <time>2013-07-24T07:03:13Z</time>
      </trkpt>
      <trkpt lat="44.93034" lon="6.60371">
        <ele>1383.9482421875</ele>
        <time>2013-07-24T07:03:13Z</time>
      </trkpt>
      <trkpt lat="44.93014" lon="6.60386">
        <ele>1381.5275878906</ele>
        <time>2013-07-24T07:03:13Z</time>
      </trkpt>
      <trkpt lat="44.93019" lon="6.60413">
        <ele>1383.9259033203</ele>
        <time>2013-07-24T07:03:13Z</time>
      </trkpt>
      <trkpt lat="44.93019" lon="6.60438">
        <ele>1389.0313720703</ele>
        <time>2013-07-24T07:03:13Z</time>
      </trkpt>
      <trkpt lat="44.92981" lon="6.60449">
        <ele>1382.7728271484</ele>
        <time>2013-07-24T07:03:13Z</time>
      </trkpt>
      <trkpt lat="44.92937" lon="6.60493">
        <ele>1382.3188476562</ele>
        <time>2013-07-24T07:03:13Z</time>
      </trkpt>
      <trkpt lat="44.92911" lon="6.60552">
        <ele>1387.7415771484</ele>
        <time>2013-07-24T07:03:13Z</time>
      </trkpt>
      <trkpt lat="44.92879" lon="6.60653">
        <ele>1400.5838623047</ele>
        <time>2013-07-24T07:03:13Z</time>
      </trkpt>
      <trkpt lat="44.9284" lon="6.60697">
        <ele>1398.6843261719</ele>
        <time>2013-07-24T07:03:13Z</time>
      </trkpt>
      <trkpt lat="44.92813" lon="6.60729">
        <ele>1394.9833984375</ele>
        <time>2013-07-24T07:03:13Z</time>
      </trkpt>
      <trkpt lat="44.92808" lon="6.60776">
        <ele>1405.0202636719</ele>
        <time>2013-07-24T07:03:13Z</time>
      </trkpt>
      <trkpt lat="44.92817" lon="6.60813">
        <ele>1409.2211914062</ele>
        <time>2013-07-24T07:03:13Z</time>
      </trkpt>
      <trkpt lat="44.92849" lon="6.60819">
        <ele>1415.2756347656</ele>
        <time>2013-07-24T07:03:13Z</time>
      </trkpt>
      <trkpt lat="44.92825" lon="6.60804">
        <ele>1413.9747314453</ele>
        <time>2013-07-24T07:03:13Z</time>
      </trkpt>
      <trkpt lat="44.92827" lon="6.60768">
        <ele>1414.3037109375</ele>
        <time>2013-07-24T07:03:13Z</time>
      </trkpt>
      <trkpt lat="44.92846" lon="6.60738">
        <ele>1416.5152587891</ele>
        <time>2013-07-24T07:03:13Z</time>
      </trkpt>
      <trkpt lat="44.92864" lon="6.60721">
        <ele>1420.5200195312</ele>
        <time>2013-07-24T07:03:25Z</time>
      </trkpt>
      <trkpt lat="44.92902" lon="6.60682">
        <ele>1417.3415527344</ele>
        <time>2013-07-24T07:03:40Z</time>
      </trkpt>
      <trkpt lat="44.9294" lon="6.60655">
        <ele>1419.8868408203</ele>
        <time>2013-07-24T07:04:14Z</time>
      </trkpt>
      <trkpt lat="44.9296" lon="6.60667">
        <ele>1426.4615478516</ele>
        <time>2013-07-24T07:04:25Z</time>
      </trkpt>
      <trkpt lat="44.92978" lon="6.60667">
        <ele>1433.001953125</ele>
        <time>2013-07-24T07:04:34Z</time>
      </trkpt>
      <trkpt lat="44.9299" lon="6.60623">
        <ele>1430.8460693359</ele>
        <time>2013-07-24T07:04:50Z</time>
      </trkpt>
      <trkpt lat="44.93026" lon="6.60607">
        <ele>1433.8045654297</ele>
        <time>2013-07-24T07:05:23Z</time>
      </trkpt>
      <trkpt lat="44.93071" lon="6.60598">
        <ele>1439.3125</ele>
        <time>2013-07-24T07:05:45Z</time>
      </trkpt>
      <trkpt lat="44.93116" lon="6.60594">
        <ele>1443.5424804688</ele>
        <time>2013-07-24T07:06:03Z</time>
      </trkpt>
      <trkpt lat="44.93167" lon="6.6059">
        <ele>1449.0766601562</ele>
        <time>2013-07-24T07:06:10Z</time>
      </trkpt>
      <trkpt lat="44.93123" lon="6.60646">
        <ele>1450.1702880859</ele>
        <time>2013-07-24T07:06:15Z</time>
      </trkpt>
      <trkpt lat="44.93139" lon="6.60622">
        <ele>1449.2850341797</ele>
        <time>2013-07-24T07:07:51Z</time>
      </trkpt>
      <trkpt lat="44.93161" lon="6.60591">
        <ele>1448.2869873047</ele>
        <time>2013-07-24T07:10:00Z</time>
      </trkpt>
      <trkpt lat="44.93164" lon="6.6059">
        <ele>1448.4998779297</ele>
        <time>2013-07-24T07:10:05Z</time>
      </trkpt>
      <trkpt lat="44.9317" lon="6.60591">
        <ele>1449.5642089844</ele>
        <time>2013-07-24T07:10:27Z</time>
      </trkpt>
      <trkpt lat="44.9317" lon="6.60591">
        <ele>1449.6123046875</ele>
        <time>2013-07-24T07:10:29Z</time>
      </trkpt>
      <trkpt lat="44.93171" lon="6.60591">
        <ele>1449.7426757812</ele>
        <time>2013-07-24T07:10:36Z</time>
      </trkpt>
      <trkpt lat="44.93171" lon="6.60591">
        <ele>1449.7495117188</ele>
        <time>2013-07-24T07:10:37Z</time>
      </trkpt>
      <trkpt lat="44.93173" lon="6.6059">
        <ele>1449.859375</ele>
        <time>2013-07-24T07:10:47Z</time>
      </trkpt>
      <trkpt lat="44.93184" lon="6.60579">
        <ele>1450.0129394531</ele>
        <time>2013-07-24T07:10:52Z</time>
      </trkpt>
      <trkpt lat="44.93196" lon="6.60566">
        <ele>1450.4317626953</ele>
        <time>2013-07-24T07:10:56Z</time>
      </trkpt>
      <trkpt lat="44.93202" lon="6.60559">
        <ele>1450.6584472656</ele>
        <time>2013-07-24T07:10:58Z</time>
      </trkpt>
      <trkpt lat="44.93207" lon="6.60551">
        <ele>1450.6171875</ele>
        <time>2013-07-24T07:11:00Z</time>
      </trkpt>
      <trkpt lat="44.93209" lon="6.60547">
        <ele>1450.5423583984</ele>
        <time>2013-07-24T07:11:01Z</time>
      </trkpt>
      <trkpt lat="44.93217" lon="6.60526">
        <ele>1449.5739746094</ele>
        <time>2013-07-24T07:11:06Z</time>
      </trkpt>
      <trkpt lat="44.93226" lon="6.60495">
        <ele>1448.0418701172</ele>
        <time>2013-07-24T07:11:12Z</time>
      </trkpt>
      <trkpt lat="44.93238" lon="6.60468">
        <ele>1446.5438232422</ele>
        <time>2013-07-24T07:11:18Z</time>
      </trkpt>
      <trkpt lat="44.93253" lon="6.60439">
        <ele>1443.5919189453</ele>
        <time>2013-07-24T07:11:24Z</time>
      </trkpt>
      <trkpt lat="44.9327" lon="6.60417">
        <ele>1440.3748779297</ele>
        <time>2013-07-24T07:11:29Z</time>
      </trkpt>
      <trkpt lat="44.93284" lon="6.60409">
        <ele>1438.8208007812</ele>
        <time>2013-07-24T07:11:32Z</time>
      </trkpt>
      <trkpt lat="44.93301" lon="6.60407">
        <ele>1438.6538085938</ele>
        <time>2013-07-24T07:11:35Z</time>
      </trkpt>
      <trkpt lat="44.93307" lon="6.60409">
        <ele>1439.0190429688</ele>
        <time>2013-07-24T07:11:36Z</time>
      </trkpt>
      <trkpt lat="44.93314" lon="6.60411">
        <ele>1440.4084472656</ele>
        <time>2013-07-24T07:11:37Z</time>
      </trkpt>
      <trkpt lat="44.93324" lon="6.60413">
        <ele>1442.6459960938</ele>
        <time>2013-07-24T07:11:39Z</time>
      </trkpt>
      <trkpt lat="44.93337" lon="6.60406">
        <ele>1445.2941894531</ele>
        <time>2013-07-24T07:11:43Z</time>
      </trkpt>
      <trkpt lat="44.93335" lon="6.60391">
        <ele>1442.7755126953</ele>
        <time>2013-07-24T07:11:46Z</time>
      </trkpt>
      <trkpt lat="44.93327" lon="6.60371">
        <ele>1441.8621826172</ele>
        <time>2013-07-24T07:11:50Z</time>
      </trkpt>
      <trkpt lat="44.93318" lon="6.6034">
        <ele>1439.3388671875</ele>
        <time>2013-07-24T07:11:54Z</time>
      </trkpt>
      <trkpt lat="44.9332" lon="6.60322">
        <ele>1438.5827636719</ele>
        <time>2013-07-24T07:11:57Z</time>
      </trkpt>
      <trkpt lat="44.9332" lon="6.60306">
        <ele>1437.234375</ele>
        <time>2013-07-24T07:12:01Z</time>
      </trkpt>
      <trkpt lat="44.9332" lon="6.60301">
        <ele>1436.8538818359</ele>
        <time>2013-07-24T07:12:02Z</time>
      </trkpt>
      <trkpt lat="44.93325" lon="6.60256">
        <ele>1434.9481201172</ele>
        <time>2013-07-24T07:12:09Z</time>
      </trkpt>
      <trkpt lat="44.93333" lon="6.60231">
        <ele>1435.2816162109</ele>
        <time>2013-07-24T07:12:13Z</time>
      </trkpt>
      <trkpt lat="44.93342" lon="6.60213">
        <ele>1436.9470214844</ele>
        <time>2013-07-24T07:12:17Z</time>
      </trkpt>
      <trkpt lat="44.93347" lon="6.60191">
        <ele>1438.4826660156</ele>
        <time>2013-07-24T07:12:23Z</time>
      </trkpt>
      <trkpt lat="44.93345" lon="6.60183">
        <ele>1438.3897705078</ele>
        <time>2013-07-24T07:12:26Z</time>
      </trkpt>
      <trkpt lat="44.93343" lon="6.60176">
        <ele>1438.2337646484</ele>
        <time>2013-07-24T07:12:29Z</time>
      </trkpt>
      <trkpt lat="44.93335" lon="6.60162">
        <ele>1437.0499267578</ele>
        <time>2013-07-24T07:12:34Z</time>
      </trkpt>
      <trkpt lat="44.93334" lon="6.60158">
        <ele>1436.7958984375</ele>
        <time>2013-07-24T07:12:35Z</time>
      </trkpt>
      <trkpt lat="44.93329" lon="6.60134">
        <ele>1435.2629394531</ele>
        <time>2013-07-24T07:12:41Z</time>
      </trkpt>
      <trkpt lat="44.93317" lon="6.601">
        <ele>1432.8931884766</ele>
        <time>2013-07-24T07:12:47Z</time>
      </trkpt>
      <trkpt lat="44.93316" lon="6.60093">
        <ele>1432.5552978516</ele>
        <time>2013-07-24T07:12:48Z</time>
      </trkpt>
      <trkpt lat="44.93314" lon="6.60071">
        <ele>1432.158203125</ele>
        <time>2013-07-24T07:12:51Z</time>
      </trkpt>
      <trkpt lat="44.93314" lon="6.60056">
        <ele>1432.2680664062</ele>
        <time>2013-07-24T07:12:53Z</time>
      </trkpt>
      <trkpt lat="44.93312" lon="6.60017">
        <ele>1435.6998291016</ele>
        <time>2013-07-24T07:12:59Z</time>
      </trkpt>
      <trkpt lat="44.93305" lon="6.60002">
        <ele>1437.6424560547</ele>
        <time>2013-07-24T07:13:03Z</time>
      </trkpt>
      <trkpt lat="44.93287" lon="6.5998">
        <ele>1438.7550048828</ele>
        <time>2013-07-24T07:13:11Z</time>
      </trkpt>
      <trkpt lat="44.93269" lon="6.59961">
        <ele>1439.2457275391</ele>
        <time>2013-07-24T07:13:20Z</time>
      </trkpt>
      <trkpt lat="44.93262" lon="6.59953">
        <ele>1439.4078369141</ele>
        <time>2013-07-24T07:13:25Z</time>
      </trkpt>
      <trkpt lat="44.93261" lon="6.59949">
        <ele>1439.7404785156</ele>
        <time>2013-07-24T07:13:27Z</time>
      </trkpt>
      <trkpt lat="44.93261" lon="6.59933">
        <ele>1441.4398193359</ele>
        <time>2013-07-24T07:13:33Z</time>
      </trkpt>
      <trkpt lat="44.93263" lon="6.59914">
        <ele>1442.9425048828</ele>
        <time>2013-07-24T07:13:39Z</time>
      </trkpt>
      <trkpt lat="44.93268" lon="6.59883">
        <ele>1444.3946533203</ele>
        <time>2013-07-24T07:13:48Z</time>
      </trkpt>
      <trkpt lat="44.93277" lon="6.59855">
        <ele>1444.4635009766</ele>
        <time>2013-07-24T07:13:56Z</time>
      </trkpt>
      <trkpt lat="44.93286" lon="6.5983">
        <ele>1443.935546875</ele>
        <time>2013-07-24T07:14:03Z</time>
      </trkpt>
      <trkpt lat="44.93297" lon="6.59816">
        <ele>1444.4780273438</ele>
        <time>2013-07-24T07:14:09Z</time>
      </trkpt>
      <trkpt lat="44.93301" lon="6.59792">
        <ele>1443.4582519531</ele>
        <time>2013-07-24T07:14:15Z</time>
      </trkpt>
      <trkpt lat="44.93306" lon="6.59759">
        <ele>1441.6867675781</ele>
        <time>2013-07-24T07:14:21Z</time>
      </trkpt>
      <trkpt lat="44.93323" lon="6.59726">
        <ele>1440.9000244141</ele>
        <time>2013-07-24T07:14:28Z</time>
      </trkpt>
      <trkpt lat="44.93343" lon="6.59697">
        <ele>1441.2495117188</ele>
        <time>2013-07-24T07:14:36Z</time>
      </trkpt>
      <trkpt lat="44.93368" lon="6.59672">
        <ele>1442.1673583984</ele>
        <time>2013-07-24T07:14:45Z</time>
      </trkpt>
      <trkpt lat="44.93391" lon="6.59652">
        <ele>1442.2189941406</ele>
        <time>2013-07-24T07:14:54Z</time>
      </trkpt>
      <trkpt lat="44.9342" lon="6.59625">
        <ele>1442.7780761719</ele>
        <time>2013-07-24T07:15:04Z</time>
      </trkpt>
      <trkpt lat="44.93444" lon="6.59603">
        <ele>1443.5285644531</ele>
        <time>2013-07-24T07:15:12Z</time>
      </trkpt>
      <trkpt lat="44.93463" lon="6.59589">
        <ele>1442.6701660156</ele>
        <time>2013-07-24T07:15:19Z</time>
      </trkpt>
      <trkpt lat="44.93482" lon="6.59571">
        <ele>1441.9493408203</ele>
        <time>2013-07-24T07:15:24Z</time>
      </trkpt>
      <trkpt lat="44.93489" lon="6.59563">
        <ele>1441.4014892578</ele>
        <time>2013-07-24T07:15:26Z</time>
      </trkpt>
      <trkpt lat="44.93501" lon="6.59554">
        <ele>1440.9478759766</ele>
        <time>2013-07-24T07:15:29Z</time>
      </trkpt>
      <trkpt lat="44.93523" lon="6.59537">
        <ele>1441.7192382812</ele>
        <time>2013-07-24T07:15:35Z</time>
      </trkpt>
      <trkpt lat="44.9353" lon="6.59532">
        <ele>1441.8795166016</ele>
        <time>2013-07-24T07:15:37Z</time>
      </trkpt>
      <trkpt lat="44.93543" lon="6.59518">
        <ele>1443.5723876953</ele>
        <time>2013-07-24T07:15:41Z</time>
      </trkpt>
      <trkpt lat="44.93571" lon="6.59494">
        <ele>1443.4234619141</ele>
        <time>2013-07-24T07:15:48Z</time>
      </trkpt>
      <trkpt lat="44.9359" lon="6.59491">
        <ele>1444.5887451172</ele>
        <time>2013-07-24T07:15:52Z</time>
      </trkpt>
      <trkpt lat="44.93605" lon="6.5948">
        <ele>1443.7249755859</ele>
        <time>2013-07-24T07:15:56Z</time>
      </trkpt>
      <trkpt lat="44.93613" lon="6.59473">
        <ele>1443.3375244141</ele>
        <time>2013-07-24T07:15:58Z</time>
      </trkpt>
      <trkpt lat="44.93626" lon="6.59456">
        <ele>1441.8525390625</ele>
        <time>2013-07-24T07:16:03Z</time>
      </trkpt>
      <trkpt lat="44.93633" lon="6.59454">
        <ele>1442.2479248047</ele>
        <time>2013-07-24T07:16:07Z</time>
      </trkpt>
      <trkpt lat="44.93638" lon="6.59455">
        <ele>1442.7280273438</ele>
        <time>2013-07-24T07:16:09Z</time>
      </trkpt>
      <trkpt lat="44.93646" lon="6.59455">
        <ele>1443.6166992188</ele>
        <time>2013-07-24T07:16:14Z</time>
      </trkpt>
      <trkpt lat="44.93652" lon="6.5945">
        <ele>1443.2797851562</ele>
        <time>2013-07-24T07:16:18Z</time>
      </trkpt>
      <trkpt lat="44.93655" lon="6.59429">
        <ele>1440.7694091797</ele>
        <time>2013-07-24T07:16:24Z</time>
      </trkpt>
      <trkpt lat="44.93663" lon="6.59418">
        <ele>1439.9197998047</ele>
        <time>2013-07-24T07:16:27Z</time>
      </trkpt>
      <trkpt lat="44.93678" lon="6.59402">
        <ele>1439.3619384766</ele>
        <time>2013-07-24T07:16:32Z</time>
      </trkpt>
      <trkpt lat="44.9369" lon="6.59395">
        <ele>1439.5198974609</ele>
        <time>2013-07-24T07:16:38Z</time>
      </trkpt>
      <trkpt lat="44.937" lon="6.59394">
        <ele>1441.1771240234</ele>
        <time>2013-07-24T07:16:44Z</time>
      </trkpt>
      <trkpt lat="44.93705" lon="6.59393">
        <ele>1442.2525634766</ele>
        <time>2013-07-24T07:16:46Z</time>
      </trkpt>
      <trkpt lat="44.93709" lon="6.59386">
        <ele>1442.421875</ele>
        <time>2013-07-24T07:16:50Z</time>
      </trkpt>
      <trkpt lat="44.93706" lon="6.5936">
        <ele>1439.3438720703</ele>
        <time>2013-07-24T07:16:56Z</time>
      </trkpt>
      <trkpt lat="44.93703" lon="6.59335">
        <ele>1436.6962890625</ele>
        <time>2013-07-24T07:17:03Z</time>
      </trkpt>
      <trkpt lat="44.93701" lon="6.59316">
        <ele>1434.9434814453</ele>
        <time>2013-07-24T07:17:08Z</time>
      </trkpt>
      <trkpt lat="44.93694" lon="6.59293">
        <ele>1432.0450439453</ele>
        <time>2013-07-24T07:17:13Z</time>
      </trkpt>
      <trkpt lat="44.93688" lon="6.59264">
        <ele>1428.7722167969</ele>
        <time>2013-07-24T07:17:18Z</time>
      </trkpt>
      <trkpt lat="44.93686" lon="6.5925">
        <ele>1427.2413330078</ele>
        <time>2013-07-24T07:17:20Z</time>
      </trkpt>
      <trkpt lat="44.93684" lon="6.59237">
        <ele>1425.7270507812</ele>
        <time>2013-07-24T07:17:22Z</time>
      </trkpt>
      <trkpt lat="44.93671" lon="6.59204">
        <ele>1420.6115722656</ele>
        <time>2013-07-24T07:17:27Z</time>
      </trkpt>
      <trkpt lat="44.9367" lon="6.59174">
        <ele>1419.7789306641</ele>
        <time>2013-07-24T07:17:31Z</time>
      </trkpt>
      <trkpt lat="44.93674" lon="6.59119">
        <ele>1419.0651855469</ele>
        <time>2013-07-24T07:17:36Z</time>
      </trkpt>
      <trkpt lat="44.93676" lon="6.59048">
        <ele>1417.7850341797</ele>
        <time>2013-07-24T07:17:42Z</time>
      </trkpt>
      <trkpt lat="44.93682" lon="6.5901">
        <ele>1417.2060546875</ele>
        <time>2013-07-24T07:17:46Z</time>
      </trkpt>
      <trkpt lat="44.93694" lon="6.5898">
        <ele>1416.8328857422</ele>
        <time>2013-07-24T07:17:51Z</time>
      </trkpt>
      <trkpt lat="44.93714" lon="6.58936">
        <ele>1414.8751220703</ele>
        <time>2013-07-24T07:17:59Z</time>
      </trkpt>
      <trkpt lat="44.93731" lon="6.58911">
        <ele>1413.8328857422</ele>
        <time>2013-07-24T07:18:04Z</time>
      </trkpt>
      <trkpt lat="44.93751" lon="6.58877">
        <ele>1415.4693603516</ele>
        <time>2013-07-24T07:18:11Z</time>
      </trkpt>
      <trkpt lat="44.93755" lon="6.58868">
        <ele>1414.9549560547</ele>
        <time>2013-07-24T07:18:13Z</time>
      </trkpt>
      <trkpt lat="44.93776" lon="6.58843">
        <ele>1415.7520751953</ele>
        <time>2013-07-24T07:18:19Z</time>
      </trkpt>
      <trkpt lat="44.93791" lon="6.58819">
        <ele>1416.2589111328</ele>
        <time>2013-07-24T07:18:24Z</time>
      </trkpt>
      <trkpt lat="44.93794" lon="6.58801">
        <ele>1415.9224853516</ele>
        <time>2013-07-24T07:18:27Z</time>
      </trkpt>
      <trkpt lat="44.93796" lon="6.58765">
        <ele>1417.18359375</ele>
        <time>2013-07-24T07:18:32Z</time>
      </trkpt>
      <trkpt lat="44.93799" lon="6.58727">
        <ele>1415.7375488281</ele>
        <time>2013-07-24T07:18:39Z</time>
      </trkpt>
      <trkpt lat="44.938" lon="6.58723">
        <ele>1415.5418701172</ele>
        <time>2013-07-24T07:18:40Z</time>
      </trkpt>
      <trkpt lat="44.93813" lon="6.58689">
        <ele>1413.2092285156</ele>
        <time>2013-07-24T07:18:48Z</time>
      </trkpt>
      <trkpt lat="44.93816" lon="6.58684">
        <ele>1413.56640625</ele>
        <time>2013-07-24T07:18:52Z</time>
      </trkpt>
      <trkpt lat="44.93818" lon="6.58682">
        <ele>1413.8684082031</ele>
        <time>2013-07-24T07:18:58Z</time>
      </trkpt>
      <trkpt lat="44.93821" lon="6.58677">
        <ele>1413.8272705078</ele>
        <time>2013-07-24T07:19:03Z</time>
      </trkpt>
      <trkpt lat="44.93827" lon="6.58656">
        <ele>1412.2180175781</ele>
        <time>2013-07-24T07:19:10Z</time>
      </trkpt>
      <trkpt lat="44.93838" lon="6.58637">
        <ele>1411.9088134766</ele>
        <time>2013-07-24T07:19:17Z</time>
      </trkpt>
      <trkpt lat="44.93858" lon="6.58609">
        <ele>1411.9152832031</ele>
        <time>2013-07-24T07:19:23Z</time>
      </trkpt>
      <trkpt lat="44.93873" lon="6.58578">
        <ele>1409.9792480469</ele>
        <time>2013-07-24T07:19:30Z</time>
      </trkpt>
      <trkpt lat="44.9389" lon="6.58559">
        <ele>1411.0920410156</ele>
        <time>2013-07-24T07:19:35Z</time>
      </trkpt>
      <trkpt lat="44.93912" lon="6.58534">
        <ele>1415.8753662109</ele>
        <time>2013-07-24T07:19:43Z</time>
      </trkpt>
      <trkpt lat="44.93929" lon="6.5852">
        <ele>1419.7116699219</ele>
        <time>2013-07-24T07:19:49Z</time>
      </trkpt>
      <trkpt lat="44.9394" lon="6.58511">
        <ele>1422.4993896484</ele>
        <time>2013-07-24T07:19:54Z</time>
      </trkpt>
      <trkpt lat="44.9394" lon="6.58506">
        <ele>1423.0095214844</ele>
        <time>2013-07-24T07:19:55Z</time>
      </trkpt>
      <trkpt lat="44.93931" lon="6.58482">
        <ele>1422.0587158203</ele>
        <time>2013-07-24T07:19:59Z</time>
      </trkpt>
      <trkpt lat="44.93927" lon="6.58463">
        <ele>1420.7331542969</ele>
        <time>2013-07-24T07:20:02Z</time>
      </trkpt>
      <trkpt lat="44.93923" lon="6.58433">
        <ele>1418.4223632812</ele>
        <time>2013-07-24T07:20:07Z</time>
      </trkpt>
      <trkpt lat="44.93918" lon="6.58402">
        <ele>1414.4478759766</ele>
        <time>2013-07-24T07:20:13Z</time>
      </trkpt>
      <trkpt lat="44.93917" lon="6.58397">
        <ele>1413.9294433594</ele>
        <time>2013-07-24T07:20:14Z</time>
      </trkpt>
      <trkpt lat="44.93921" lon="6.58364">
        <ele>1413.9273681641</ele>
        <time>2013-07-24T07:20:21Z</time>
      </trkpt>
      <trkpt lat="44.9393" lon="6.58343">
        <ele>1416.7794189453</ele>
        <time>2013-07-24T07:20:26Z</time>
      </trkpt>
      <trkpt lat="44.93936" lon="6.58318">
        <ele>1418.3226318359</ele>
        <time>2013-07-24T07:20:30Z</time>
      </trkpt>
      <trkpt lat="44.93938" lon="6.58295">
        <ele>1418.3189697266</ele>
        <time>2013-07-24T07:20:34Z</time>
      </trkpt>
      <trkpt lat="44.9394" lon="6.5827">
        <ele>1417.7211914062</ele>
        <time>2013-07-24T07:20:40Z</time>
      </trkpt>
      <trkpt lat="44.93943" lon="6.5825">
        <ele>1417.6632080078</ele>
        <time>2013-07-24T07:20:48Z</time>
      </trkpt>
      <trkpt lat="44.93945" lon="6.58242">
        <ele>1417.9254150391</ele>
        <time>2013-07-24T07:20:51Z</time>
      </trkpt>
      <trkpt lat="44.93945" lon="6.58233">
        <ele>1417.7600097656</ele>
        <time>2013-07-24T07:20:54Z</time>
      </trkpt>
      <trkpt lat="44.93948" lon="6.58224">
        <ele>1418.7590332031</ele>
        <time>2013-07-24T07:20:57Z</time>
      </trkpt>
      <trkpt lat="44.93953" lon="6.58201">
        <ele>1419.6766357422</ele>
        <time>2013-07-24T07:21:04Z</time>
      </trkpt>
      <trkpt lat="44.93954" lon="6.58177">
        <ele>1418.7368164062</ele>
        <time>2013-07-24T07:21:09Z</time>
      </trkpt>
      <trkpt lat="44.93961" lon="6.58146">
        <ele>1419.6336669922</ele>
        <time>2013-07-24T07:21:14Z</time>
      </trkpt>
      <trkpt lat="44.93973" lon="6.58101">
        <ele>1422.7955322266</ele>
        <time>2013-07-24T07:21:20Z</time>
      </trkpt>
      <trkpt lat="44.93975" lon="6.58055">
        <ele>1423.8693847656</ele>
        <time>2013-07-24T07:21:25Z</time>
      </trkpt>
      <trkpt lat="44.93966" lon="6.58003">
        <ele>1417.40625</ele>
        <time>2013-07-24T07:21:30Z</time>
      </trkpt>
      <trkpt lat="44.93959" lon="6.57949">
        <ele>1411.7277832031</ele>
        <time>2013-07-24T07:21:36Z</time>
      </trkpt>
      <trkpt lat="44.93962" lon="6.57901">
        <ele>1408.3013916016</ele>
        <time>2013-07-24T07:21:41Z</time>
      </trkpt>
      <trkpt lat="44.93966" lon="6.57883">
        <ele>1407.6898193359</ele>
        <time>2013-07-24T07:21:43Z</time>
      </trkpt>
      <trkpt lat="44.93991" lon="6.57827">
        <ele>1406.6999511719</ele>
        <time>2013-07-24T07:21:50Z</time>
      </trkpt>
      <trkpt lat="44.94011" lon="6.57797">
        <ele>1405.2961425781</ele>
        <time>2013-07-24T07:21:55Z</time>
      </trkpt>
      <trkpt lat="44.94032" lon="6.5777">
        <ele>1403.4178466797</ele>
        <time>2013-07-24T07:21:59Z</time>
      </trkpt>
      <trkpt lat="44.94055" lon="6.5775">
        <ele>1402.9586181641</ele>
        <time>2013-07-24T07:22:04Z</time>
      </trkpt>
      <trkpt lat="44.94072" lon="6.57742">
        <ele>1403.7944335938</ele>
        <time>2013-07-24T07:22:08Z</time>
      </trkpt>
      <trkpt lat="44.94093" lon="6.57718">
        <ele>1404.8665771484</ele>
        <time>2013-07-24T07:22:14Z</time>
      </trkpt>
      <trkpt lat="44.94106" lon="6.57708">
        <ele>1409.5632324219</ele>
        <time>2013-07-24T07:22:18Z</time>
      </trkpt>
      <trkpt lat="44.94117" lon="6.577">
        <ele>1412.5112304688</ele>
        <time>2013-07-24T07:22:21Z</time>
      </trkpt>
      <trkpt lat="44.94134" lon="6.57682">
        <ele>1414.1643066406</ele>
        <time>2013-07-24T07:22:28Z</time>
      </trkpt>
      <trkpt lat="44.94146" lon="6.57662">
        <ele>1415.5614013672</ele>
        <time>2013-07-24T07:22:34Z</time>
      </trkpt>
      <trkpt lat="44.94167" lon="6.57641">
        <ele>1419.1147460938</ele>
        <time>2013-07-24T07:22:41Z</time>
      </trkpt>
      <trkpt lat="44.94187" lon="6.57623">
        <ele>1424.8511962891</ele>
        <time>2013-07-24T07:22:48Z</time>
      </trkpt>
      <trkpt lat="44.94201" lon="6.57605">
        <ele>1426.8551025391</ele>
        <time>2013-07-24T07:22:56Z</time>
      </trkpt>
      <trkpt lat="44.9421" lon="6.57593">
        <ele>1427.5938720703</ele>
        <time>2013-07-24T07:23:02Z</time>
      </trkpt>
      <trkpt lat="44.94219" lon="6.57577">
        <ele>1428.2939453125</ele>
        <time>2013-07-24T07:23:10Z</time>
      </trkpt>
      <trkpt lat="44.94228" lon="6.57566">
        <ele>1428.0417480469</ele>
        <time>2013-07-24T07:23:16Z</time>
      </trkpt>
      <trkpt lat="44.94244" lon="6.57553">
        <ele>1428.0562744141</ele>
        <time>2013-07-24T07:23:22Z</time>
      </trkpt>
      <trkpt lat="44.94258" lon="6.57537">
        <ele>1427.5581054688</ele>
        <time>2013-07-24T07:23:30Z</time>
      </trkpt>
      <trkpt lat="44.94276" lon="6.57525">
        <ele>1427.6199951172</ele>
        <time>2013-07-24T07:23:36Z</time>
      </trkpt>
      <trkpt lat="44.94286" lon="6.57508">
        <ele>1427.2026367188</ele>
        <time>2013-07-24T07:23:42Z</time>
      </trkpt>
      <trkpt lat="44.94297" lon="6.57493">
        <ele>1426.8868408203</ele>
        <time>2013-07-24T07:23:48Z</time>
      </trkpt>
      <trkpt lat="44.94314" lon="6.57471">
        <ele>1426.4919433594</ele>
        <time>2013-07-24T07:23:56Z</time>
      </trkpt>
      <trkpt lat="44.94325" lon="6.5745">
        <ele>1425.8465576172</ele>
        <time>2013-07-24T07:24:03Z</time>
      </trkpt>
      <trkpt lat="44.94331" lon="6.57443">
        <ele>1425.7359619141</ele>
        <time>2013-07-24T07:24:06Z</time>
      </trkpt>
      <trkpt lat="44.94336" lon="6.57439">
        <ele>1425.8715820312</ele>
        <time>2013-07-24T07:24:08Z</time>
      </trkpt>
      <trkpt lat="44.94338" lon="6.57437">
        <ele>1425.9780273438</ele>
        <time>2013-07-24T07:24:09Z</time>
      </trkpt>
      <trkpt lat="44.9435" lon="6.5743">
        <ele>1426.740234375</ele>
        <time>2013-07-24T07:24:13Z</time>
      </trkpt>
      <trkpt lat="44.94358" lon="6.57425">
        <ele>1427.2998046875</ele>
        <time>2013-07-24T07:24:16Z</time>
      </trkpt>
      <trkpt lat="44.94361" lon="6.57423">
        <ele>1427.5437011719</ele>
        <time>2013-07-24T07:24:17Z</time>
      </trkpt>
      <trkpt lat="44.94374" lon="6.57418">
        <ele>1429.0262451172</ele>
        <time>2013-07-24T07:24:21Z</time>
      </trkpt>
      <trkpt lat="44.94389" lon="6.57411">
        <ele>1430.3872070312</ele>
        <time>2013-07-24T07:24:27Z</time>
      </trkpt>
      <trkpt lat="44.94393" lon="6.57415">
        <ele>1431.5584716797</ele>
        <time>2013-07-24T07:24:31Z</time>
      </trkpt>
      <trkpt lat="44.94395" lon="6.57419">
        <ele>1432.2657470703</ele>
        <time>2013-07-24T07:24:33Z</time>
      </trkpt>
      <trkpt lat="44.94399" lon="6.57435">
        <ele>1434.7926025391</ele>
        <time>2013-07-24T07:24:41Z</time>
      </trkpt>
      <trkpt lat="44.94403" lon="6.57452">
        <ele>1437.1711425781</ele>
        <time>2013-07-24T07:24:49Z</time>
      </trkpt>
      <trkpt lat="44.94406" lon="6.5747">
        <ele>1439.3237304688</ele>
        <time>2013-07-24T07:24:57Z</time>
      </trkpt>
      <trkpt lat="44.94408" lon="6.57482">
        <ele>1440.3858642578</ele>
        <time>2013-07-24T07:25:02Z</time>
      </trkpt>
      <trkpt lat="44.9441" lon="6.57499">
        <ele>1441.9273681641</ele>
        <time>2013-07-24T07:25:10Z</time>
      </trkpt>
      <trkpt lat="44.94411" lon="6.57508">
        <ele>1442.8337402344</ele>
        <time>2013-07-24T07:25:14Z</time>
      </trkpt>
      <trkpt lat="44.94413" lon="6.57515">
        <ele>1443.5341796875</ele>
        <time>2013-07-24T07:25:17Z</time>
      </trkpt>
      <trkpt lat="44.94415" lon="6.57521">
        <ele>1444.2172851562</ele>
        <time>2013-07-24T07:25:20Z</time>
      </trkpt>
      <trkpt lat="44.94416" lon="6.57524">
        <ele>1444.6258544922</ele>
        <time>2013-07-24T07:25:22Z</time>
      </trkpt>
      <trkpt lat="44.94425" lon="6.57525">
        <ele>1446.3132324219</ele>
        <time>2013-07-24T07:25:27Z</time>
      </trkpt>
      <trkpt lat="44.94434" lon="6.57524">
        <ele>1447.8101806641</ele>
        <time>2013-07-24T07:25:33Z</time>
      </trkpt>
      <trkpt lat="44.94441" lon="6.57519">
        <ele>1448.8229980469</ele>
        <time>2013-07-24T07:25:39Z</time>
      </trkpt>
      <trkpt lat="44.94445" lon="6.57516">
        <ele>1449.2041015625</ele>
        <time>2013-07-24T07:25:44Z</time>
      </trkpt>
      <trkpt lat="44.9445" lon="6.57518">
        <ele>1450.2237548828</ele>
        <time>2013-07-24T07:25:48Z</time>
      </trkpt>
      <trkpt lat="44.94453" lon="6.57531">
        <ele>1451.8544921875</ele>
        <time>2013-07-24T07:25:54Z</time>
      </trkpt>
      <trkpt lat="44.94449" lon="6.57546">
        <ele>1452.07421875</ele>
        <time>2013-07-24T07:26:01Z</time>
      </trkpt>
      <trkpt lat="44.94446" lon="6.57553">
        <ele>1452.060546875</ele>
        <time>2013-07-24T07:26:05Z</time>
      </trkpt>
      <trkpt lat="44.94447" lon="6.5756">
        <ele>1452.9694824219</ele>
        <time>2013-07-24T07:26:08Z</time>
      </trkpt>
      <trkpt lat="44.94455" lon="6.57565">
        <ele>1455.0345458984</ele>
        <time>2013-07-24T07:26:13Z</time>
      </trkpt>
      <trkpt lat="44.9446" lon="6.57563">
        <ele>1455.6645507812</ele>
        <time>2013-07-24T07:26:17Z</time>
      </trkpt>
      <trkpt lat="44.94466" lon="6.57559">
        <ele>1456.3305664062</ele>
        <time>2013-07-24T07:26:24Z</time>
      </trkpt>
      <trkpt lat="44.94468" lon="6.57559">
        <ele>1456.5743408203</ele>
        <time>2013-07-24T07:26:26Z</time>
      </trkpt>
      <trkpt lat="44.94475" lon="6.57561">
        <ele>1457.8382568359</ele>
        <time>2013-07-24T07:26:31Z</time>
      </trkpt>
      <trkpt lat="44.94479" lon="6.57573">
        <ele>1459.3969726562</ele>
        <time>2013-07-24T07:26:37Z</time>
      </trkpt>
      <trkpt lat="44.94481" lon="6.57577">
        <ele>1459.9754638672</ele>
        <time>2013-07-24T07:26:39Z</time>
      </trkpt>
      <trkpt lat="44.94481" lon="6.57579">
        <ele>1460.208984375</ele>
        <time>2013-07-24T07:26:40Z</time>
      </trkpt>
      <trkpt lat="44.94482" lon="6.57586">
        <ele>1460.9736328125</ele>
        <time>2013-07-24T07:26:43Z</time>
      </trkpt>
      <trkpt lat="44.94478" lon="6.57605">
        <ele>1462.3110351562</ele>
        <time>2013-07-24T07:26:50Z</time>
      </trkpt>
      <trkpt lat="44.94477" lon="6.57613">
        <ele>1462.8128662109</ele>
        <time>2013-07-24T07:26:53Z</time>
      </trkpt>
      <trkpt lat="44.94476" lon="6.57624">
        <ele>1463.6120605469</ele>
        <time>2013-07-24T07:26:58Z</time>
      </trkpt>
      <trkpt lat="44.94476" lon="6.57626">
        <ele>1463.8021240234</ele>
        <time>2013-07-24T07:27:00Z</time>
      </trkpt>
      <trkpt lat="44.94482" lon="6.57622">
        <ele>1464.6296386719</ele>
        <time>2013-07-24T07:27:05Z</time>
      </trkpt>
      <trkpt lat="44.94486" lon="6.57613">
        <ele>1464.1385498047</ele>
        <time>2013-07-24T07:27:11Z</time>
      </trkpt>
      <trkpt lat="44.94495" lon="6.57609">
        <ele>1465.0654296875</ele>
        <time>2013-07-24T07:27:16Z</time>
      </trkpt>
      <trkpt lat="44.94504" lon="6.57605">
        <ele>1466.2395019531</ele>
        <time>2013-07-24T07:27:20Z</time>
      </trkpt>
      <trkpt lat="44.9451" lon="6.5761">
        <ele>1468.3586425781</ele>
        <time>2013-07-24T07:27:25Z</time>
      </trkpt>
      <trkpt lat="44.94508" lon="6.57615">
        <ele>1468.6306152344</ele>
        <time>2013-07-24T07:27:28Z</time>
      </trkpt>
      <trkpt lat="44.94508" lon="6.57619">
        <ele>1469.0731201172</ele>
        <time>2013-07-24T07:27:31Z</time>
      </trkpt>
      <trkpt lat="44.94516" lon="6.5763">
        <ele>1472.28515625</ele>
        <time>2013-07-24T07:27:37Z</time>
      </trkpt>
      <trkpt lat="44.94515" lon="6.5763">
        <ele>1472.1267089844</ele>
        <time>2013-07-24T07:27:39Z</time>
      </trkpt>
      <trkpt lat="44.94516" lon="6.5763">
        <ele>1472.2121582031</ele>
        <time>2013-07-24T07:27:40Z</time>
      </trkpt>
      <trkpt lat="44.94516" lon="6.5763">
        <ele>1472.2121582031</ele>
        <time>2013-07-24T07:27:41Z</time>
      </trkpt>
      <trkpt lat="44.94516" lon="6.57627">
        <ele>1471.8192138672</ele>
        <time>2013-07-24T07:27:43Z</time>
      </trkpt>
      <trkpt lat="44.94522" lon="6.57619">
        <ele>1472.2966308594</ele>
        <time>2013-07-24T07:27:48Z</time>
      </trkpt>
      <trkpt lat="44.94526" lon="6.57619">
        <ele>1473.1166992188</ele>
        <time>2013-07-24T07:27:50Z</time>
      </trkpt>
      <trkpt lat="44.94533" lon="6.57609">
        <ele>1474.6551513672</ele>
        <time>2013-07-24T07:27:58Z</time>
      </trkpt>
      <trkpt lat="44.94542" lon="6.57599">
        <ele>1477.9807128906</ele>
        <time>2013-07-24T07:28:04Z</time>
      </trkpt>
      <trkpt lat="44.94547" lon="6.5759">
        <ele>1480.4753417969</ele>
        <time>2013-07-24T07:28:08Z</time>
      </trkpt>
      <trkpt lat="44.94548" lon="6.57574">
        <ele>1481.9699707031</ele>
        <time>2013-07-24T07:28:14Z</time>
      </trkpt>
      <trkpt lat="44.94545" lon="6.57556">
        <ele>1480.759765625</ele>
        <time>2013-07-24T07:28:21Z</time>
      </trkpt>
      <trkpt lat="44.9454" lon="6.57546">
        <ele>1477.4451904297</ele>
        <time>2013-07-24T07:28:26Z</time>
      </trkpt>
      <trkpt lat="44.94537" lon="6.5754">
        <ele>1475.0985107422</ele>
        <time>2013-07-24T07:28:28Z</time>
      </trkpt>
      <trkpt lat="44.94542" lon="6.57525">
        <ele>1478.7645263672</ele>
        <time>2013-07-24T07:28:34Z</time>
      </trkpt>
      <trkpt lat="44.94547" lon="6.57528">
        <ele>1483.1669921875</ele>
        <time>2013-07-24T07:28:38Z</time>
      </trkpt>
      <trkpt lat="44.9455" lon="6.57538">
        <ele>1485.7091064453</ele>
        <time>2013-07-24T07:28:44Z</time>
      </trkpt>
      <trkpt lat="44.94553" lon="6.57545">
        <ele>1487.2043457031</ele>
        <time>2013-07-24T07:28:49Z</time>
      </trkpt>
      <trkpt lat="44.94556" lon="6.57552">
        <ele>1488.8635253906</ele>
        <time>2013-07-24T07:28:54Z</time>
      </trkpt>
      <trkpt lat="44.9457" lon="6.57562">
        <ele>1495.6281738281</ele>
        <time>2013-07-24T07:29:02Z</time>
      </trkpt>
      <trkpt lat="44.94575" lon="6.57565">
        <ele>1497.8101806641</ele>
        <time>2013-07-24T07:29:05Z</time>
      </trkpt>
      <trkpt lat="44.94576" lon="6.57574">
        <ele>1497.2320556641</ele>
        <time>2013-07-24T07:29:10Z</time>
      </trkpt>
      <trkpt lat="44.94582" lon="6.57588">
        <ele>1498.767578125</ele>
        <time>2013-07-24T07:29:19Z</time>
      </trkpt>
      <trkpt lat="44.94584" lon="6.57594">
        <ele>1498.9553222656</ele>
        <time>2013-07-24T07:29:22Z</time>
      </trkpt>
      <trkpt lat="44.94588" lon="6.57604">
        <ele>1501.3388671875</ele>
        <time>2013-07-24T07:29:27Z</time>
      </trkpt>
      <trkpt lat="44.94592" lon="6.57609">
        <ele>1503.9937744141</ele>
        <time>2013-07-24T07:29:30Z</time>
      </trkpt>
      <trkpt lat="44.946" lon="6.57625">
        <ele>1508.4860839844</ele>
        <time>2013-07-24T07:29:39Z</time>
      </trkpt>
      <trkpt lat="44.94603" lon="6.57641">
        <ele>1509.0623779297</ele>
        <time>2013-07-24T07:29:46Z</time>
      </trkpt>
      <trkpt lat="44.94613" lon="6.57653">
        <ele>1512.5546875</ele>
        <time>2013-07-24T07:29:53Z</time>
      </trkpt>
      <trkpt lat="44.94618" lon="6.57667">
        <ele>1511.9271240234</ele>
        <time>2013-07-24T07:30:02Z</time>
      </trkpt>
      <trkpt lat="44.94625" lon="6.57679">
        <ele>1515.3421630859</ele>
        <time>2013-07-24T07:30:11Z</time>
      </trkpt>
      <trkpt lat="44.94625" lon="6.57681">
        <ele>1515.5313720703</ele>
        <time>2013-07-24T07:30:13Z</time>
      </trkpt>
      <trkpt lat="44.94613" lon="6.57686">
        <ele>1511.6947021484</ele>
        <time>2013-07-24T07:30:20Z</time>
      </trkpt>
      <trkpt lat="44.94615" lon="6.57697">
        <ele>1513.2352294922</ele>
        <time>2013-07-24T07:30:26Z</time>
      </trkpt>
      <trkpt lat="44.94613" lon="6.577">
        <ele>1512.8829345703</ele>
        <time>2013-07-24T07:30:31Z</time>
      </trkpt>
      <trkpt lat="44.94612" lon="6.57701">
        <ele>1512.7204589844</ele>
        <time>2013-07-24T07:30:32Z</time>
      </trkpt>
      <trkpt lat="44.94599" lon="6.57702">
        <ele>1506.8245849609</ele>
        <time>2013-07-24T07:30:39Z</time>
      </trkpt>
      <trkpt lat="44.94589" lon="6.57705">
        <ele>1502.5035400391</ele>
        <time>2013-07-24T07:30:45Z</time>
      </trkpt>
      <trkpt lat="44.94582" lon="6.5771">
        <ele>1500.5029296875</ele>
        <time>2013-07-24T07:30:50Z</time>
      </trkpt>
      <trkpt lat="44.9457" lon="6.57716">
        <ele>1499.7899169922</ele>
        <time>2013-07-24T07:30:56Z</time>
      </trkpt>
      <trkpt lat="44.94555" lon="6.5773">
        <ele>1502.2937011719</ele>
        <time>2013-07-24T07:31:03Z</time>
      </trkpt>
      <trkpt lat="44.94541" lon="6.57747">
        <ele>1506.0151367188</ele>
        <time>2013-07-24T07:31:10Z</time>
      </trkpt>
      <trkpt lat="44.94528" lon="6.57756">
        <ele>1506.1439208984</ele>
        <time>2013-07-24T07:31:17Z</time>
      </trkpt>
      <trkpt lat="44.94522" lon="6.57772">
        <ele>1510.5954589844</ele>
        <time>2013-07-24T07:31:25Z</time>
      </trkpt>
      <trkpt lat="44.94515" lon="6.57794">
        <ele>1515.0894775391</ele>
        <time>2013-07-24T07:31:33Z</time>
      </trkpt>
      <trkpt lat="44.9451" lon="6.57809">
        <ele>1517.9384765625</ele>
        <time>2013-07-24T07:31:40Z</time>
      </trkpt>
      <trkpt lat="44.9451" lon="6.5782">
        <ele>1520.2541503906</ele>
        <time>2013-07-24T07:31:45Z</time>
      </trkpt>
      <trkpt lat="44.94507" lon="6.57831">
        <ele>1522.4788818359</ele>
        <time>2013-07-24T07:31:51Z</time>
      </trkpt>
      <trkpt lat="44.94503" lon="6.57847">
        <ele>1525.1619873047</ele>
        <time>2013-07-24T07:31:58Z</time>
      </trkpt>
      <trkpt lat="44.94503" lon="6.57865">
        <ele>1529.7924804688</ele>
        <time>2013-07-24T07:32:06Z</time>
      </trkpt>
      <trkpt lat="44.94501" lon="6.57883">
        <ele>1532.8720703125</ele>
        <time>2013-07-24T07:32:12Z</time>
      </trkpt>
      <trkpt lat="44.94489" lon="6.5789">
        <ele>1531.1142578125</ele>
        <time>2013-07-24T07:32:20Z</time>
      </trkpt>
      <trkpt lat="44.9448" lon="6.57896">
        <ele>1529.7718505859</ele>
        <time>2013-07-24T07:32:27Z</time>
      </trkpt>
      <trkpt lat="44.94471" lon="6.57908">
        <ele>1529.8858642578</ele>
        <time>2013-07-24T07:32:34Z</time>
      </trkpt>
      <trkpt lat="44.94461" lon="6.57925">
        <ele>1532.3660888672</ele>
        <time>2013-07-24T07:32:43Z</time>
      </trkpt>
      <trkpt lat="44.94457" lon="6.57937">
        <ele>1534.5966796875</ele>
        <time>2013-07-24T07:32:49Z</time>
      </trkpt>
      <trkpt lat="44.94455" lon="6.57949">
        <ele>1536.8355712891</ele>
        <time>2013-07-24T07:32:55Z</time>
      </trkpt>
      <trkpt lat="44.9445" lon="6.57959">
        <ele>1537.4792480469</ele>
        <time>2013-07-24T07:32:59Z</time>
      </trkpt>
      <trkpt lat="44.9445" lon="6.57972">
        <ele>1539.9504394531</ele>
        <time>2013-07-24T07:33:05Z</time>
      </trkpt>
      <trkpt lat="44.94448" lon="6.57991">
        <ele>1542.9774169922</ele>
        <time>2013-07-24T07:33:11Z</time>
      </trkpt>
      <trkpt lat="44.94446" lon="6.58004">
        <ele>1544.7930908203</ele>
        <time>2013-07-24T07:33:18Z</time>
      </trkpt>
      <trkpt lat="44.94445" lon="6.58011">
        <ele>1545.6392822266</ele>
        <time>2013-07-24T07:33:21Z</time>
      </trkpt>
      <trkpt lat="44.94438" lon="6.58023">
        <ele>1545.8297119141</ele>
        <time>2013-07-24T07:33:28Z</time>
      </trkpt>
      <trkpt lat="44.94436" lon="6.58027">
        <ele>1546.0123291016</ele>
        <time>2013-07-24T07:33:30Z</time>
      </trkpt>
      <trkpt lat="44.94434" lon="6.58029">
        <ele>1545.8248291016</ele>
        <time>2013-07-24T07:33:32Z</time>
      </trkpt>
      <trkpt lat="44.94426" lon="6.58039">
        <ele>1545.8172607422</ele>
        <time>2013-07-24T07:33:38Z</time>
      </trkpt>
      <trkpt lat="44.94425" lon="6.58056">
        <ele>1548.1636962891</ele>
        <time>2013-07-24T07:33:45Z</time>
      </trkpt>
      <trkpt lat="44.94419" lon="6.58063">
        <ele>1547.6197509766</ele>
        <time>2013-07-24T07:33:48Z</time>
      </trkpt>
      <trkpt lat="44.94411" lon="6.58079">
        <ele>1548.3310546875</ele>
        <time>2013-07-24T07:33:55Z</time>
      </trkpt>
      <trkpt lat="44.94411" lon="6.58094">
        <ele>1550.0988769531</ele>
        <time>2013-07-24T07:34:01Z</time>
      </trkpt>
      <trkpt lat="44.9441" lon="6.58109">
        <ele>1551.6352539062</ele>
        <time>2013-07-24T07:34:07Z</time>
      </trkpt>
      <trkpt lat="44.94408" lon="6.58122">
        <ele>1553.1943359375</ele>
        <time>2013-07-24T07:34:12Z</time>
      </trkpt>
      <trkpt lat="44.94409" lon="6.58128">
        <ele>1554.2004394531</ele>
        <time>2013-07-24T07:34:15Z</time>
      </trkpt>
      <trkpt lat="44.94409" lon="6.58138">
        <ele>1555.7943115234</ele>
        <time>2013-07-24T07:34:20Z</time>
      </trkpt>
      <trkpt lat="44.944" lon="6.58147">
        <ele>1555.7091064453</ele>
        <time>2013-07-24T07:34:27Z</time>
      </trkpt>
      <trkpt lat="44.94393" lon="6.58153">
        <ele>1555.3073730469</ele>
        <time>2013-07-24T07:34:32Z</time>
      </trkpt>
      <trkpt lat="44.9439" lon="6.58157">
        <ele>1555.1224365234</ele>
        <time>2013-07-24T07:34:34Z</time>
      </trkpt>
      <trkpt lat="44.94382" lon="6.5817">
        <ele>1554.9167480469</ele>
        <time>2013-07-24T07:34:40Z</time>
      </trkpt>
      <trkpt lat="44.94377" lon="6.58182">
        <ele>1555.3765869141</ele>
        <time>2013-07-24T07:34:46Z</time>
      </trkpt>
      <trkpt lat="44.94371" lon="6.58196">
        <ele>1555.6765136719</ele>
        <time>2013-07-24T07:34:54Z</time>
      </trkpt>
      <trkpt lat="44.94367" lon="6.58214">
        <ele>1556.8094482422</ele>
        <time>2013-07-24T07:35:02Z</time>
      </trkpt>
      <trkpt lat="44.94358" lon="6.58239">
        <ele>1557.9541015625</ele>
        <time>2013-07-24T07:35:12Z</time>
      </trkpt>
      <trkpt lat="44.94355" lon="6.58256">
        <ele>1559.9429931641</ele>
        <time>2013-07-24T07:35:20Z</time>
      </trkpt>
      <trkpt lat="44.94352" lon="6.58264">
        <ele>1560.6107177734</ele>
        <time>2013-07-24T07:35:24Z</time>
      </trkpt>
      <trkpt lat="44.94358" lon="6.58273">
        <ele>1563.4152832031</ele>
        <time>2013-07-24T07:35:29Z</time>
      </trkpt>
      <trkpt lat="44.94362" lon="6.58271">
        <ele>1564.1625976562</ele>
        <time>2013-07-24T07:35:31Z</time>
      </trkpt>
      <trkpt lat="44.94368" lon="6.5826">
        <ele>1564.6083984375</ele>
        <time>2013-07-24T07:35:38Z</time>
      </trkpt>
      <trkpt lat="44.94376" lon="6.58242">
        <ele>1564.7725830078</ele>
        <time>2013-07-24T07:35:47Z</time>
      </trkpt>
      <trkpt lat="44.94384" lon="6.58225">
        <ele>1564.1833496094</ele>
        <time>2013-07-24T07:35:55Z</time>
      </trkpt>
      <trkpt lat="44.94385" lon="6.58217">
        <ele>1562.9066162109</ele>
        <time>2013-07-24T07:35:59Z</time>
      </trkpt>
      <trkpt lat="44.94392" lon="6.58211">
        <ele>1563.8155517578</ele>
        <time>2013-07-24T07:36:05Z</time>
      </trkpt>
      <trkpt lat="44.94396" lon="6.58211">
        <ele>1564.9354248047</ele>
        <time>2013-07-24T07:36:07Z</time>
      </trkpt>
      <trkpt lat="44.94409" lon="6.58208">
        <ele>1567.7850341797</ele>
        <time>2013-07-24T07:36:16Z</time>
      </trkpt>
      <trkpt lat="44.94424" lon="6.58204">
        <ele>1570.5872802734</ele>
        <time>2013-07-24T07:36:23Z</time>
      </trkpt>
      <trkpt lat="44.94439" lon="6.58193">
        <ele>1572.5211181641</ele>
        <time>2013-07-24T07:36:32Z</time>
      </trkpt>
      <trkpt lat="44.94448" lon="6.58186">
        <ele>1573.2473144531</ele>
        <time>2013-07-24T07:36:39Z</time>
      </trkpt>
      <trkpt lat="44.94459" lon="6.58185">
        <ele>1574.2086181641</ele>
        <time>2013-07-24T07:36:47Z</time>
      </trkpt>
      <trkpt lat="44.94468" lon="6.58191">
        <ele>1576.0213623047</ele>
        <time>2013-07-24T07:36:55Z</time>
      </trkpt>
      <trkpt lat="44.94477" lon="6.58204">
        <ele>1579.5047607422</ele>
        <time>2013-07-24T07:37:03Z</time>
      </trkpt>
      <trkpt lat="44.94493" lon="6.5822">
        <ele>1585.953125</ele>
        <time>2013-07-24T07:37:12Z</time>
      </trkpt>
      <trkpt lat="44.94505" lon="6.58222">
        <ele>1589.0036621094</ele>
        <time>2013-07-24T07:37:18Z</time>
      </trkpt>
      <trkpt lat="44.94517" lon="6.58212">
        <ele>1589.9772949219</ele>
        <time>2013-07-24T07:37:25Z</time>
      </trkpt>
      <trkpt lat="44.9453" lon="6.58201">
        <ele>1591.3499755859</ele>
        <time>2013-07-24T07:37:34Z</time>
      </trkpt>
      <trkpt lat="44.9454" lon="6.5819">
        <ele>1591.9639892578</ele>
        <time>2013-07-24T07:37:42Z</time>
      </trkpt>
      <trkpt lat="44.94553" lon="6.58184">
        <ele>1593.4815673828</ele>
        <time>2013-07-24T07:37:50Z</time>
      </trkpt>
      <trkpt lat="44.94567" lon="6.58175">
        <ele>1594.7803955078</ele>
        <time>2013-07-24T07:37:58Z</time>
      </trkpt>
      <trkpt lat="44.94575" lon="6.58174">
        <ele>1596.1470947266</ele>
        <time>2013-07-24T07:38:04Z</time>
      </trkpt>
      <trkpt lat="44.94583" lon="6.58175">
        <ele>1597.8271484375</ele>
        <time>2013-07-24T07:38:09Z</time>
      </trkpt>
      <trkpt lat="44.94592" lon="6.58164">
        <ele>1600.2316894531</ele>
        <time>2013-07-24T07:38:15Z</time>
      </trkpt>
      <trkpt lat="44.94595" lon="6.58159">
        <ele>1601.3748779297</ele>
        <time>2013-07-24T07:38:19Z</time>
      </trkpt>
      <trkpt lat="44.946" lon="6.58145">
        <ele>1601.7868652344</ele>
        <time>2013-07-24T07:38:26Z</time>
      </trkpt>
      <trkpt lat="44.94613" lon="6.58137">
        <ele>1606.0457763672</ele>
        <time>2013-07-24T07:38:33Z</time>
      </trkpt>
      <trkpt lat="44.94628" lon="6.58127">
        <ele>1608.2310791016</ele>
        <time>2013-07-24T07:38:43Z</time>
      </trkpt>
      <trkpt lat="44.94641" lon="6.58123">
        <ele>1610.7464599609</ele>
        <time>2013-07-24T07:38:51Z</time>
      </trkpt>
      <trkpt lat="44.94654" lon="6.58115">
        <ele>1612.3995361328</ele>
        <time>2013-07-24T07:39:00Z</time>
      </trkpt>
      <trkpt lat="44.94662" lon="6.58093">
        <ele>1610.7489013672</ele>
        <time>2013-07-24T07:39:08Z</time>
      </trkpt>
      <trkpt lat="44.94669" lon="6.58079">
        <ele>1609.6228027344</ele>
        <time>2013-07-24T07:39:15Z</time>
      </trkpt>
      <trkpt lat="44.9467" lon="6.58075">
        <ele>1609.3549804688</ele>
        <time>2013-07-24T07:39:17Z</time>
      </trkpt>
      <trkpt lat="44.94678" lon="6.58066">
        <ele>1610.1583251953</ele>
        <time>2013-07-24T07:39:23Z</time>
      </trkpt>
      <trkpt lat="44.9468" lon="6.58065">
        <ele>1610.34375</ele>
        <time>2013-07-24T07:39:24Z</time>
      </trkpt>
      <trkpt lat="44.94691" lon="6.58059">
        <ele>1612.7435302734</ele>
        <time>2013-07-24T07:39:30Z</time>
      </trkpt>
      <trkpt lat="44.94701" lon="6.58057">
        <ele>1615.6164550781</ele>
        <time>2013-07-24T07:39:36Z</time>
      </trkpt>
      <trkpt lat="44.94718" lon="6.58053">
        <ele>1620.7199707031</ele>
        <time>2013-07-24T07:39:44Z</time>
      </trkpt>
      <trkpt lat="44.94721" lon="6.5805">
        <ele>1621.1546630859</ele>
        <time>2013-07-24T07:39:47Z</time>
      </trkpt>
      <trkpt lat="44.9473" lon="6.5803">
        <ele>1619.1153564453</ele>
        <time>2013-07-24T07:39:57Z</time>
      </trkpt>
      <trkpt lat="44.94739" lon="6.58017">
        <ele>1619.6838378906</ele>
        <time>2013-07-24T07:40:04Z</time>
      </trkpt>
      <trkpt lat="44.9475" lon="6.58008">
        <ele>1621.6888427734</ele>
        <time>2013-07-24T07:40:11Z</time>
      </trkpt>
      <trkpt lat="44.94762" lon="6.58001">
        <ele>1624.1667480469</ele>
        <time>2013-07-24T07:40:19Z</time>
      </trkpt>
      <trkpt lat="44.94773" lon="6.57987">
        <ele>1625.0734863281</ele>
        <time>2013-07-24T07:40:27Z</time>
      </trkpt>
      <trkpt lat="44.94781" lon="6.57973">
        <ele>1625.1851806641</ele>
        <time>2013-07-24T07:40:34Z</time>
      </trkpt>
      <trkpt lat="44.94789" lon="6.57966">
        <ele>1626.0430908203</ele>
        <time>2013-07-24T07:40:39Z</time>
      </trkpt>
      <trkpt lat="44.94802" lon="6.57958">
        <ele>1628.7008056641</ele>
        <time>2013-07-24T07:40:47Z</time>
      </trkpt>
      <trkpt lat="44.94811" lon="6.5795">
        <ele>1630.5646972656</ele>
        <time>2013-07-24T07:40:55Z</time>
      </trkpt>
      <trkpt lat="44.94812" lon="6.5795">
        <ele>1630.9147949219</ele>
        <time>2013-07-24T07:40:56Z</time>
      </trkpt>
      <trkpt lat="44.94811" lon="6.57955">
        <ele>1630.9909667969</ele>
        <time>2013-07-24T07:41:03Z</time>
      </trkpt>
      <trkpt lat="44.94806" lon="6.57958">
        <ele>1630.1488037109</ele>
        <time>2013-07-24T07:41:08Z</time>
      </trkpt>
      <trkpt lat="44.94797" lon="6.5797">
        <ele>1629.1903076172</ele>
        <time>2013-07-24T07:41:16Z</time>
      </trkpt>
      <trkpt lat="44.94793" lon="6.57984">
        <ele>1630.4895019531</ele>
        <time>2013-07-24T07:41:23Z</time>
      </trkpt>
      <trkpt lat="44.94792" lon="6.57986">
        <ele>1630.4775390625</ele>
        <time>2013-07-24T07:41:24Z</time>
      </trkpt>
      <trkpt lat="44.94786" lon="6.58004">
        <ele>1632.0484619141</ele>
        <time>2013-07-24T07:41:32Z</time>
      </trkpt>
      <trkpt lat="44.94776" lon="6.58016">
        <ele>1631.4421386719</ele>
        <time>2013-07-24T07:41:40Z</time>
      </trkpt>
      <trkpt lat="44.94773" lon="6.58031">
        <ele>1633.2056884766</ele>
        <time>2013-07-24T07:41:47Z</time>
      </trkpt>
      <trkpt lat="44.94771" lon="6.58036">
        <ele>1633.7687988281</ele>
        <time>2013-07-24T07:41:49Z</time>
      </trkpt>
      <trkpt lat="44.94767" lon="6.58048">
        <ele>1635.1763916016</ele>
        <time>2013-07-24T07:41:55Z</time>
      </trkpt>
      <trkpt lat="44.94765" lon="6.58056">
        <ele>1636.4689941406</ele>
        <time>2013-07-24T07:41:59Z</time>
      </trkpt>
      <trkpt lat="44.94761" lon="6.58071">
        <ele>1638.326171875</ele>
        <time>2013-07-24T07:42:06Z</time>
      </trkpt>
      <trkpt lat="44.94757" lon="6.58077">
        <ele>1638.5095214844</ele>
        <time>2013-07-24T07:42:09Z</time>
      </trkpt>
      <trkpt lat="44.94751" lon="6.58089">
        <ele>1638.5866699219</ele>
        <time>2013-07-24T07:42:15Z</time>
      </trkpt>
      <trkpt lat="44.9475" lon="6.58096">
        <ele>1640.2397460938</ele>
        <time>2013-07-24T07:42:19Z</time>
      </trkpt>
      <trkpt lat="44.94747" lon="6.58113">
        <ele>1643.5264892578</ele>
        <time>2013-07-24T07:42:26Z</time>
      </trkpt>
      <trkpt lat="44.94747" lon="6.58121">
        <ele>1645.3519287109</ele>
        <time>2013-07-24T07:42:30Z</time>
      </trkpt>
      <trkpt lat="44.94748" lon="6.58135">
        <ele>1649.2440185547</ele>
        <time>2013-07-24T07:42:37Z</time>
      </trkpt>
      <trkpt lat="44.94744" lon="6.58142">
        <ele>1649.4288330078</ele>
        <time>2013-07-24T07:42:40Z</time>
      </trkpt>
      <trkpt lat="44.94736" lon="6.58158">
        <ele>1650.9290771484</ele>
        <time>2013-07-24T07:42:48Z</time>
      </trkpt>
      <trkpt lat="44.94734" lon="6.58165">
        <ele>1651.8114013672</ele>
        <time>2013-07-24T07:42:50Z</time>
      </trkpt>
      <trkpt lat="44.94739" lon="6.58173">
        <ele>1655.4393310547</ele>
        <time>2013-07-24T07:42:56Z</time>
      </trkpt>
      <trkpt lat="44.94741" lon="6.58171">
        <ele>1655.9028320312</ele>
        <time>2013-07-24T07:42:58Z</time>
      </trkpt>
      <trkpt lat="44.94756" lon="6.58162">
        <ele>1658.7697753906</ele>
        <time>2013-07-24T07:43:06Z</time>
      </trkpt>
      <trkpt lat="44.94764" lon="6.58153">
        <ele>1659.2945556641</ele>
        <time>2013-07-24T07:43:12Z</time>
      </trkpt>
      <trkpt lat="44.9477" lon="6.5814">
        <ele>1658.4895019531</ele>
        <time>2013-07-24T07:43:20Z</time>
      </trkpt>
      <trkpt lat="44.94775" lon="6.58128">
        <ele>1657.474609375</ele>
        <time>2013-07-24T07:43:27Z</time>
      </trkpt>
      <trkpt lat="44.94781" lon="6.58117">
        <ele>1656.5548095703</ele>
        <time>2013-07-24T07:43:34Z</time>
      </trkpt>
      <trkpt lat="44.94787" lon="6.581">
        <ele>1654.6561279297</ele>
        <time>2013-07-24T07:43:41Z</time>
      </trkpt>
      <trkpt lat="44.94791" lon="6.58093">
        <ele>1654.5582275391</ele>
        <time>2013-07-24T07:43:46Z</time>
      </trkpt>
      <trkpt lat="44.94797" lon="6.58086">
        <ele>1655.0803222656</ele>
        <time>2013-07-24T07:43:51Z</time>
      </trkpt>
      <trkpt lat="44.94806" lon="6.58077">
        <ele>1656.7045898438</ele>
        <time>2013-07-24T07:43:57Z</time>
      </trkpt>
      <trkpt lat="44.94814" lon="6.58067">
        <ele>1657.1912841797</ele>
        <time>2013-07-24T07:44:03Z</time>
      </trkpt>
      <trkpt lat="44.9482" lon="6.58061">
        <ele>1658.4030761719</ele>
        <time>2013-07-24T07:44:08Z</time>
      </trkpt>
      <trkpt lat="44.94826" lon="6.58056">
        <ele>1659.8050537109</ele>
        <time>2013-07-24T07:44:12Z</time>
      </trkpt>
      <trkpt lat="44.94836" lon="6.58048">
        <ele>1661.6873779297</ele>
        <time>2013-07-24T07:44:19Z</time>
      </trkpt>
      <trkpt lat="44.94848" lon="6.58044">
        <ele>1664.2974853516</ele>
        <time>2013-07-24T07:44:27Z</time>
      </trkpt>
      <trkpt lat="44.94859" lon="6.58042">
        <ele>1667.2626953125</ele>
        <time>2013-07-24T07:44:33Z</time>
      </trkpt>
      <trkpt lat="44.94871" lon="6.58039">
        <ele>1669.9486083984</ele>
        <time>2013-07-24T07:44:40Z</time>
      </trkpt>
      <trkpt lat="44.94875" lon="6.58039">
        <ele>1671.0592041016</ele>
        <time>2013-07-24T07:44:43Z</time>
      </trkpt>
      <trkpt lat="44.94878" lon="6.58046">
        <ele>1672.8966064453</ele>
        <time>2013-07-24T07:44:49Z</time>
      </trkpt>
      <trkpt lat="44.94874" lon="6.58047">
        <ele>1672.2602539062</ele>
        <time>2013-07-24T07:44:52Z</time>
      </trkpt>
      <trkpt lat="44.9486" lon="6.58058">
        <ele>1671.1813964844</ele>
        <time>2013-07-24T07:45:01Z</time>
      </trkpt>
      <trkpt lat="44.94854" lon="6.58067">
        <ele>1671.7250976562</ele>
        <time>2013-07-24T07:45:07Z</time>
      </trkpt>
      <trkpt lat="44.9485" lon="6.58074">
        <ele>1672.076171875</ele>
        <time>2013-07-24T07:45:12Z</time>
      </trkpt>
      <trkpt lat="44.94841" lon="6.5809">
        <ele>1672.1457519531</ele>
        <time>2013-07-24T07:45:21Z</time>
      </trkpt>
      <trkpt lat="44.94834" lon="6.58108">
        <ele>1672.6441650391</ele>
        <time>2013-07-24T07:45:31Z</time>
      </trkpt>
      <trkpt lat="44.94828" lon="6.58127">
        <ele>1674.7194824219</ele>
        <time>2013-07-24T07:45:39Z</time>
      </trkpt>
      <trkpt lat="44.94824" lon="6.58149">
        <ele>1678.169921875</ele>
        <time>2013-07-24T07:45:47Z</time>
      </trkpt>
      <trkpt lat="44.94818" lon="6.58167">
        <ele>1680.2828369141</ele>
        <time>2013-07-24T07:45:55Z</time>
      </trkpt>
      <trkpt lat="44.94814" lon="6.58186">
        <ele>1682.1948242188</ele>
        <time>2013-07-24T07:46:04Z</time>
      </trkpt>
      <trkpt lat="44.94809" lon="6.58201">
        <ele>1684.0129394531</ele>
        <time>2013-07-24T07:46:11Z</time>
      </trkpt>
      <trkpt lat="44.94803" lon="6.58222">
        <ele>1686.9591064453</ele>
        <time>2013-07-24T07:46:19Z</time>
      </trkpt>
      <trkpt lat="44.94802" lon="6.58239">
        <ele>1690.677734375</ele>
        <time>2013-07-24T07:46:28Z</time>
      </trkpt>
      <trkpt lat="44.94798" lon="6.58256">
        <ele>1693.4075927734</ele>
        <time>2013-07-24T07:46:36Z</time>
      </trkpt>
      <trkpt lat="44.94793" lon="6.58276">
        <ele>1695.5408935547</ele>
        <time>2013-07-24T07:46:45Z</time>
      </trkpt>
      <trkpt lat="44.9479" lon="6.58293">
        <ele>1696.1806640625</ele>
        <time>2013-07-24T07:46:53Z</time>
      </trkpt>
      <trkpt lat="44.94794" lon="6.58308">
        <ele>1698.2604980469</ele>
        <time>2013-07-24T07:47:00Z</time>
      </trkpt>
      <trkpt lat="44.94806" lon="6.58317">
        <ele>1701.5571289062</ele>
        <time>2013-07-24T07:47:08Z</time>
      </trkpt>
      <trkpt lat="44.94816" lon="6.58323">
        <ele>1706.2926025391</ele>
        <time>2013-07-24T07:47:16Z</time>
      </trkpt>
      <trkpt lat="44.94823" lon="6.58329">
        <ele>1710.1242675781</ele>
        <time>2013-07-24T07:47:22Z</time>
      </trkpt>
      <trkpt lat="44.94824" lon="6.58342">
        <ele>1710.5239257812</ele>
        <time>2013-07-24T07:47:28Z</time>
      </trkpt>
      <trkpt lat="44.94812" lon="6.58354">
        <ele>1705.8323974609</ele>
        <time>2013-07-24T07:47:36Z</time>
      </trkpt>
      <trkpt lat="44.94803" lon="6.58367">
        <ele>1704.6359863281</ele>
        <time>2013-07-24T07:47:43Z</time>
      </trkpt>
      <trkpt lat="44.94796" lon="6.58378">
        <ele>1705.126953125</ele>
        <time>2013-07-24T07:47:49Z</time>
      </trkpt>
      <trkpt lat="44.94784" lon="6.58393">
        <ele>1705.5303955078</ele>
        <time>2013-07-24T07:47:58Z</time>
      </trkpt>
      <trkpt lat="44.9478" lon="6.58402">
        <ele>1706.7563476562</ele>
        <time>2013-07-24T07:48:03Z</time>
      </trkpt>
      <trkpt lat="44.94771" lon="6.58416">
        <ele>1708.3598632812</ele>
        <time>2013-07-24T07:48:11Z</time>
      </trkpt>
      <trkpt lat="44.94761" lon="6.5843">
        <ele>1710.3828125</ele>
        <time>2013-07-24T07:48:20Z</time>
      </trkpt>
      <trkpt lat="44.94753" lon="6.58445">
        <ele>1712.7364501953</ele>
        <time>2013-07-24T07:48:28Z</time>
      </trkpt>
      <trkpt lat="44.94743" lon="6.58465">
        <ele>1715.3338623047</ele>
        <time>2013-07-24T07:48:38Z</time>
      </trkpt>
      <trkpt lat="44.94743" lon="6.58476">
        <ele>1717.1038818359</ele>
        <time>2013-07-24T07:48:42Z</time>
      </trkpt>
      <trkpt lat="44.9475" lon="6.58483">
        <ele>1720.3065185547</ele>
        <time>2013-07-24T07:48:48Z</time>
      </trkpt>
      <trkpt lat="44.94757" lon="6.5848">
        <ele>1720.9156494141</ele>
        <time>2013-07-24T07:48:53Z</time>
      </trkpt>
      <trkpt lat="44.94774" lon="6.58476">
        <ele>1722.1177978516</ele>
        <time>2013-07-24T07:49:03Z</time>
      </trkpt>
      <trkpt lat="44.94789" lon="6.58474">
        <ele>1724.1922607422</ele>
        <time>2013-07-24T07:49:11Z</time>
      </trkpt>
      <trkpt lat="44.94802" lon="6.58474">
        <ele>1726.7294921875</ele>
        <time>2013-07-24T07:49:20Z</time>
      </trkpt>
      <trkpt lat="44.9481" lon="6.58479">
        <ele>1729.0600585938</ele>
        <time>2013-07-24T07:49:26Z</time>
      </trkpt>
      <trkpt lat="44.94823" lon="6.58478">
        <ele>1731.1629638672</ele>
        <time>2013-07-24T07:49:33Z</time>
      </trkpt>
      <trkpt lat="44.94838" lon="6.58475">
        <ele>1733.2946777344</ele>
        <time>2013-07-24T07:49:42Z</time>
      </trkpt>
      <trkpt lat="44.94847" lon="6.58466">
        <ele>1733.3773193359</ele>
        <time>2013-07-24T07:49:49Z</time>
      </trkpt>
      <trkpt lat="44.94857" lon="6.58447">
        <ele>1731.7208251953</ele>
        <time>2013-07-24T07:49:58Z</time>
      </trkpt>
      <trkpt lat="44.9487" lon="6.58432">
        <ele>1731.6593017578</ele>
        <time>2013-07-24T07:50:08Z</time>
      </trkpt>
      <trkpt lat="44.94884" lon="6.58427">
        <ele>1734.2097167969</ele>
        <time>2013-07-24T07:50:16Z</time>
      </trkpt>
      <trkpt lat="44.94893" lon="6.5843">
        <ele>1737.2553710938</ele>
        <time>2013-07-24T07:50:22Z</time>
      </trkpt>
      <trkpt lat="44.949" lon="6.58437">
        <ele>1740.6824951172</ele>
        <time>2013-07-24T07:50:29Z</time>
      </trkpt>
      <trkpt lat="44.94909" lon="6.58429">
        <ele>1742.427734375</ele>
        <time>2013-07-24T07:50:35Z</time>
      </trkpt>
      <trkpt lat="44.9491" lon="6.58424">
        <ele>1742.1369628906</ele>
        <time>2013-07-24T07:50:37Z</time>
      </trkpt>
      <trkpt lat="44.94915" lon="6.58401">
        <ele>1740.2429199219</ele>
        <time>2013-07-24T07:50:46Z</time>
      </trkpt>
      <trkpt lat="44.94926" lon="6.58379">
        <ele>1741.6722412109</ele>
        <time>2013-07-24T07:50:57Z</time>
      </trkpt>
      <trkpt lat="44.94936" lon="6.5836">
        <ele>1743.6566162109</ele>
        <time>2013-07-24T07:51:06Z</time>
      </trkpt>
      <trkpt lat="44.94952" lon="6.58338">
        <ele>1745.9674072266</ele>
        <time>2013-07-24T07:51:17Z</time>
      </trkpt>
      <trkpt lat="44.94966" lon="6.58312">
        <ele>1746.5322265625</ele>
        <time>2013-07-24T07:51:28Z</time>
      </trkpt>
      <trkpt lat="44.94976" lon="6.58293">
        <ele>1747.0302734375</ele>
        <time>2013-07-24T07:51:36Z</time>
      </trkpt>
      <trkpt lat="44.94987" lon="6.58276">
        <ele>1746.9312744141</ele>
        <time>2013-07-24T07:51:44Z</time>
      </trkpt>
      <trkpt lat="44.94999" lon="6.5827">
        <ele>1748.0958251953</ele>
        <time>2013-07-24T07:51:51Z</time>
      </trkpt>
      <trkpt lat="44.95016" lon="6.58267">
        <ele>1750.86328125</ele>
        <time>2013-07-24T07:52:00Z</time>
      </trkpt>
      <trkpt lat="44.95031" lon="6.58263">
        <ele>1753.3132324219</ele>
        <time>2013-07-24T07:52:08Z</time>
      </trkpt>
      <trkpt lat="44.95035" lon="6.58262">
        <ele>1754.0402832031</ele>
        <time>2013-07-24T07:52:10Z</time>
      </trkpt>
      <trkpt lat="44.95039" lon="6.58271">
        <ele>1756.6994628906</ele>
        <time>2013-07-24T07:52:16Z</time>
      </trkpt>
      <trkpt lat="44.95037" lon="6.58276">
        <ele>1756.8656005859</ele>
        <time>2013-07-24T07:52:19Z</time>
      </trkpt>
      <trkpt lat="44.9503" lon="6.58291">
        <ele>1757.939453125</ele>
        <time>2013-07-24T07:52:28Z</time>
      </trkpt>
      <trkpt lat="44.95028" lon="6.58311">
        <ele>1760.9436035156</ele>
        <time>2013-07-24T07:52:37Z</time>
      </trkpt>
      <trkpt lat="44.95023" lon="6.58326">
        <ele>1762.8575439453</ele>
        <time>2013-07-24T07:52:45Z</time>
      </trkpt>
      <trkpt lat="44.95016" lon="6.58341">
        <ele>1764.181640625</ele>
        <time>2013-07-24T07:52:54Z</time>
      </trkpt>
      <trkpt lat="44.95007" lon="6.58355">
        <ele>1764.6876220703</ele>
        <time>2013-07-24T07:53:03Z</time>
      </trkpt>
      <trkpt lat="44.94996" lon="6.58371">
        <ele>1764.4641113281</ele>
        <time>2013-07-24T07:53:12Z</time>
      </trkpt>
      <trkpt lat="44.94989" lon="6.58387">
        <ele>1764.9927978516</ele>
        <time>2013-07-24T07:53:21Z</time>
      </trkpt>
      <trkpt lat="44.94985" lon="6.58404">
        <ele>1766.4141845703</ele>
        <time>2013-07-24T07:53:29Z</time>
      </trkpt>
      <trkpt lat="44.94982" lon="6.58422">
        <ele>1768.2453613281</ele>
        <time>2013-07-24T07:53:37Z</time>
      </trkpt>
      <trkpt lat="44.94979" lon="6.58434">
        <ele>1769.2429199219</ele>
        <time>2013-07-24T07:53:43Z</time>
      </trkpt>
      <trkpt lat="44.94978" lon="6.58446">
        <ele>1770.9230957031</ele>
        <time>2013-07-24T07:53:49Z</time>
      </trkpt>
      <trkpt lat="44.94983" lon="6.58444">
        <ele>1772.0491943359</ele>
        <time>2013-07-24T07:53:54Z</time>
      </trkpt>
      <trkpt lat="44.94993" lon="6.58434">
        <ele>1773.2008056641</ele>
        <time>2013-07-24T07:54:04Z</time>
      </trkpt>
      <trkpt lat="44.95003" lon="6.58426">
        <ele>1774.1893310547</ele>
        <time>2013-07-24T07:54:12Z</time>
      </trkpt>
      <trkpt lat="44.95018" lon="6.58418">
        <ele>1776.1484375</ele>
        <time>2013-07-24T07:54:22Z</time>
      </trkpt>
      <trkpt lat="44.95026" lon="6.58412">
        <ele>1776.9309082031</ele>
        <time>2013-07-24T07:54:29Z</time>
      </trkpt>
      <trkpt lat="44.95039" lon="6.58407">
        <ele>1778.4801025391</ele>
        <time>2013-07-24T07:54:39Z</time>
      </trkpt>
      <trkpt lat="44.95055" lon="6.58409">
        <ele>1781.1264648438</ele>
        <time>2013-07-24T07:54:47Z</time>
      </trkpt>
      <trkpt lat="44.95071" lon="6.58407">
        <ele>1784.8664550781</ele>
        <time>2013-07-24T07:54:56Z</time>
      </trkpt>
      <trkpt lat="44.95081" lon="6.58403">
        <ele>1786.3425292969</ele>
        <time>2013-07-24T07:55:03Z</time>
      </trkpt>
      <trkpt lat="44.95095" lon="6.58398">
        <ele>1788.7816162109</ele>
        <time>2013-07-24T07:55:12Z</time>
      </trkpt>
      <trkpt lat="44.95104" lon="6.58396">
        <ele>1790.4967041016</ele>
        <time>2013-07-24T07:55:19Z</time>
      </trkpt>
      <trkpt lat="44.95111" lon="6.58394">
        <ele>1791.8967285156</ele>
        <time>2013-07-24T07:55:24Z</time>
      </trkpt>
      <trkpt lat="44.95123" lon="6.58388">
        <ele>1792.9672851562</ele>
        <time>2013-07-24T07:55:33Z</time>
      </trkpt>
      <trkpt lat="44.95132" lon="6.58378">
        <ele>1793.1555175781</ele>
        <time>2013-07-24T07:55:39Z</time>
      </trkpt>
      <trkpt lat="44.95139" lon="6.58367">
        <ele>1792.9266357422</ele>
        <time>2013-07-24T07:55:46Z</time>
      </trkpt>
      <trkpt lat="44.95147" lon="6.58359">
        <ele>1793.1842041016</ele>
        <time>2013-07-24T07:55:52Z</time>
      </trkpt>
      <trkpt lat="44.95155" lon="6.58351">
        <ele>1793.9085693359</ele>
        <time>2013-07-24T07:55:58Z</time>
      </trkpt>
      <trkpt lat="44.9517" lon="6.58338">
        <ele>1795.673828125</ele>
        <time>2013-07-24T07:56:08Z</time>
      </trkpt>
      <trkpt lat="44.95179" lon="6.58329">
        <ele>1797.0764160156</ele>
        <time>2013-07-24T07:56:15Z</time>
      </trkpt>
      <trkpt lat="44.95191" lon="6.58323">
        <ele>1799.5207519531</ele>
        <time>2013-07-24T07:56:23Z</time>
      </trkpt>
      <trkpt lat="44.95207" lon="6.58318">
        <ele>1804.2885742188</ele>
        <time>2013-07-24T07:56:33Z</time>
      </trkpt>
      <trkpt lat="44.95223" lon="6.58307">
        <ele>1807.6127929688</ele>
        <time>2013-07-24T07:56:44Z</time>
      </trkpt>
      <trkpt lat="44.95234" lon="6.58289">
        <ele>1809.6053466797</ele>
        <time>2013-07-24T07:56:54Z</time>
      </trkpt>
      <trkpt lat="44.95242" lon="6.58272">
        <ele>1811.2342529297</ele>
        <time>2013-07-24T07:57:03Z</time>
      </trkpt>
      <trkpt lat="44.9525" lon="6.58259">
        <ele>1813.232421875</ele>
        <time>2013-07-24T07:57:11Z</time>
      </trkpt>
      <trkpt lat="44.95259" lon="6.58237">
        <ele>1813.5509033203</ele>
        <time>2013-07-24T07:57:22Z</time>
      </trkpt>
      <trkpt lat="44.95267" lon="6.58228">
        <ele>1815.3721923828</ele>
        <time>2013-07-24T07:57:29Z</time>
      </trkpt>
      <trkpt lat="44.95278" lon="6.58214">
        <ele>1817.7844238281</ele>
        <time>2013-07-24T07:57:39Z</time>
      </trkpt>
      <trkpt lat="44.95288" lon="6.582">
        <ele>1819.4117431641</ele>
        <time>2013-07-24T07:57:49Z</time>
      </trkpt>
      <trkpt lat="44.95294" lon="6.58184">
        <ele>1819.0289306641</ele>
        <time>2013-07-24T07:57:58Z</time>
      </trkpt>
      <trkpt lat="44.95301" lon="6.58168">
        <ele>1818.6427001953</ele>
        <time>2013-07-24T07:58:06Z</time>
      </trkpt>
      <trkpt lat="44.95311" lon="6.58151">
        <ele>1817.3142089844</ele>
        <time>2013-07-24T07:58:16Z</time>
      </trkpt>
      <trkpt lat="44.95322" lon="6.58148">
        <ele>1819.3687744141</ele>
        <time>2013-07-24T07:58:24Z</time>
      </trkpt>
      <trkpt lat="44.95337" lon="6.58146">
        <ele>1822.7270507812</ele>
        <time>2013-07-24T07:58:34Z</time>
      </trkpt>
      <trkpt lat="44.95351" lon="6.58145">
        <ele>1827.0426025391</ele>
        <time>2013-07-24T07:58:42Z</time>
      </trkpt>
      <trkpt lat="44.95364" lon="6.58145">
        <ele>1830.8873291016</ele>
        <time>2013-07-24T07:58:51Z</time>
      </trkpt>
      <trkpt lat="44.95375" lon="6.58137">
        <ele>1831.0935058594</ele>
        <time>2013-07-24T07:58:59Z</time>
      </trkpt>
      <trkpt lat="44.95379" lon="6.58125">
        <ele>1829.177734375</ele>
        <time>2013-07-24T07:59:05Z</time>
      </trkpt>
      <trkpt lat="44.95379" lon="6.58113">
        <ele>1826.5341796875</ele>
        <time>2013-07-24T07:59:11Z</time>
      </trkpt>
      <trkpt lat="44.95391" lon="6.58103">
        <ele>1827.0604248047</ele>
        <time>2013-07-24T07:59:19Z</time>
      </trkpt>
      <trkpt lat="44.95411" lon="6.58092">
        <ele>1828.5483398438</ele>
        <time>2013-07-24T07:59:30Z</time>
      </trkpt>
      <trkpt lat="44.95428" lon="6.58083">
        <ele>1827.7028808594</ele>
        <time>2013-07-24T07:59:40Z</time>
      </trkpt>
      <trkpt lat="44.95441" lon="6.58085">
        <ele>1829.3332519531</ele>
        <time>2013-07-24T07:59:48Z</time>
      </trkpt>
      <trkpt lat="44.95447" lon="6.58086">
        <ele>1830.0108642578</ele>
        <time>2013-07-24T07:59:53Z</time>
      </trkpt>
      <trkpt lat="44.95446" lon="6.58087">
        <ele>1830.4387207031</ele>
        <time>2013-07-24T08:00:01Z</time>
      </trkpt>
      <trkpt lat="44.95451" lon="6.58085">
        <ele>1829.5958251953</ele>
        <time>2013-07-24T08:00:07Z</time>
      </trkpt>
      <trkpt lat="44.95449" lon="6.58081">
        <ele>1827.9996337891</ele>
        <time>2013-07-24T08:00:17Z</time>
      </trkpt>
      <trkpt lat="44.95449" lon="6.58085">
        <ele>1829.5944824219</ele>
        <time>2013-07-24T08:00:21Z</time>
      </trkpt>
      <trkpt lat="44.95433" lon="6.58104">
        <ele>1835.0046386719</ele>
        <time>2013-07-24T08:00:28Z</time>
      </trkpt>
      <trkpt lat="44.95456" lon="6.58086">
        <ele>1829.5552978516</ele>
        <time>2013-07-24T08:00:28Z</time>
      </trkpt>
      <trkpt lat="44.95478" lon="6.58081">
        <ele>1828.3929443359</ele>
        <time>2013-07-24T08:00:29Z</time>
      </trkpt>
      <trkpt lat="44.9551" lon="6.58078">
        <ele>1835.0974121094</ele>
        <time>2013-07-24T08:00:37Z</time>
      </trkpt>
      <trkpt lat="44.95549" lon="6.58079">
        <ele>1847.0129394531</ele>
        <time>2013-07-24T08:00:45Z</time>
      </trkpt>
      <trkpt lat="44.95559" lon="6.58073">
        <ele>1853.2097167969</ele>
        <time>2013-07-24T08:00:52Z</time>
      </trkpt>
      <trkpt lat="44.95559" lon="6.58057">
        <ele>1856.7973632812</ele>
        <time>2013-07-24T08:01:21Z</time>
      </trkpt>
      <trkpt lat="44.9555" lon="6.58037">
        <ele>1858.1860351562</ele>
        <time>2013-07-24T08:01:32Z</time>
      </trkpt>
      <trkpt lat="44.95548" lon="6.58026">
        <ele>1860.6405029297</ele>
        <time>2013-07-24T08:01:51Z</time>
      </trkpt>
      <trkpt lat="44.95539" lon="6.5802">
        <ele>1859.3114013672</ele>
        <time>2013-07-24T08:01:57Z</time>
      </trkpt>
      <trkpt lat="44.95529" lon="6.58014">
        <ele>1857.4836425781</ele>
        <time>2013-07-24T08:02:03Z</time>
      </trkpt>
      <trkpt lat="44.95523" lon="6.58009">
        <ele>1856.2293701172</ele>
        <time>2013-07-24T08:02:04Z</time>
      </trkpt>
      <trkpt lat="44.95513" lon="6.58">
        <ele>1852.9764404297</ele>
        <time>2013-07-24T08:02:13Z</time>
      </trkpt>
      <trkpt lat="44.95501" lon="6.57985">
        <ele>1849.6455078125</ele>
        <time>2013-07-24T08:02:19Z</time>
      </trkpt>
      <trkpt lat="44.95496" lon="6.57977">
        <ele>1849.5686035156</ele>
        <time>2013-07-24T08:02:27Z</time>
      </trkpt>
      <trkpt lat="44.9549" lon="6.57968">
        <ele>1849.4244384766</ele>
        <time>2013-07-24T08:02:35Z</time>
      </trkpt>
      <trkpt lat="44.9548" lon="6.57952">
        <ele>1849.1844482422</ele>
        <time>2013-07-24T08:02:38Z</time>
      </trkpt>
      <trkpt lat="44.95477" lon="6.5794">
        <ele>1850.9420166016</ele>
        <time>2013-07-24T08:02:43Z</time>
      </trkpt>
      <trkpt lat="44.95486" lon="6.57922">
        <ele>1859.6123046875</ele>
        <time>2013-07-24T08:02:51Z</time>
      </trkpt>
      <trkpt lat="44.9548" lon="6.57909">
        <ele>1859.5985107422</ele>
        <time>2013-07-24T08:02:51Z</time>
      </trkpt>
      <trkpt lat="44.95475" lon="6.57902">
        <ele>1858.3449707031</ele>
        <time>2013-07-24T08:02:52Z</time>
      </trkpt>
      <trkpt lat="44.95466" lon="6.57887">
        <ele>1857.3385009766</ele>
        <time>2013-07-24T08:02:58Z</time>
      </trkpt>
      <trkpt lat="44.95457" lon="6.57876">
        <ele>1858.0434570312</ele>
        <time>2013-07-24T08:03:07Z</time>
      </trkpt>
      <trkpt lat="44.95447" lon="6.57857">
        <ele>1857.9938964844</ele>
        <time>2013-07-24T08:03:11Z</time>
      </trkpt>
      <trkpt lat="44.9544" lon="6.57846">
        <ele>1859.2525634766</ele>
        <time>2013-07-24T08:03:14Z</time>
      </trkpt>
      <trkpt lat="44.95437" lon="6.57837">
        <ele>1861.8621826172</ele>
        <time>2013-07-24T08:03:21Z</time>
      </trkpt>
      <trkpt lat="44.95428" lon="6.57824">
        <ele>1863.6893310547</ele>
        <time>2013-07-24T08:03:28Z</time>
      </trkpt>
      <trkpt lat="44.9542" lon="6.57813">
        <ele>1863.9204101562</ele>
        <time>2013-07-24T08:03:31Z</time>
      </trkpt>
      <trkpt lat="44.9541" lon="6.57806">
        <ele>1861.7768554688</ele>
        <time>2013-07-24T08:03:41Z</time>
      </trkpt>
      <trkpt lat="44.954" lon="6.57807">
        <ele>1858.2172851562</ele>
        <time>2013-07-24T08:03:48Z</time>
      </trkpt>
      <trkpt lat="44.95393" lon="6.57803">
        <ele>1856.8332519531</ele>
        <time>2013-07-24T08:04:15Z</time>
      </trkpt>
      <trkpt lat="44.95386" lon="6.57797">
        <ele>1855.4907226562</ele>
        <time>2013-07-24T08:04:55Z</time>
      </trkpt>
      <trkpt lat="44.95385" lon="6.57764">
        <ele>1859.9421386719</ele>
        <time>2013-07-24T08:05:37Z</time>
      </trkpt>
      <trkpt lat="44.95381" lon="6.57719">
        <ele>1861.0614013672</ele>
        <time>2013-07-24T08:06:36Z</time>
      </trkpt>
      <trkpt lat="44.95374" lon="6.57678">
        <ele>1860.31640625</ele>
        <time>2013-07-24T08:08:13Z</time>
      </trkpt>
      <trkpt lat="44.95373" lon="6.5763">
        <ele>1863.5333251953</ele>
        <time>2013-07-24T08:09:55Z</time>
      </trkpt>
      <trkpt lat="44.95368" lon="6.57592">
        <ele>1863.7668457031</ele>
        <time>2013-07-24T08:10:54Z</time>
      </trkpt>
      <trkpt lat="44.95366" lon="6.57576">
        <ele>1864.0281982422</ele>
        <time>2013-07-24T08:11:08Z</time>
      </trkpt>
      <trkpt lat="44.95365" lon="6.57568">
        <ele>1864.2104492188</ele>
        <time>2013-07-24T08:11:15Z</time>
      </trkpt>
      <trkpt lat="44.95358" lon="6.57546">
        <ele>1861.8209228516</ele>
        <time>2013-07-24T08:11:28Z</time>
      </trkpt>
      <trkpt lat="44.95364" lon="6.57569">
        <ele>1863.7163085938</ele>
        <time>2013-07-24T08:11:47Z</time>
      </trkpt>
      <trkpt lat="44.95367" lon="6.57535">
        <ele>1866.8837890625</ele>
        <time>2013-07-24T08:11:51Z</time>
      </trkpt>
      <trkpt lat="44.95368" lon="6.57514">
        <ele>1868.9455566406</ele>
        <time>2013-07-24T08:12:03Z</time>
      </trkpt>
      <trkpt lat="44.95366" lon="6.57493">
        <ele>1868.9666748047</ele>
        <time>2013-07-24T08:12:10Z</time>
      </trkpt>
      <trkpt lat="44.95364" lon="6.57469">
        <ele>1869.5285644531</ele>
        <time>2013-07-24T08:12:21Z</time>
      </trkpt>
      <trkpt lat="44.9536" lon="6.57448">
        <ele>1868.2960205078</ele>
        <time>2013-07-24T08:12:35Z</time>
      </trkpt>
      <trkpt lat="44.9536" lon="6.57425">
        <ele>1868.623046875</ele>
        <time>2013-07-24T08:12:50Z</time>
      </trkpt>
      <trkpt lat="44.95369" lon="6.5739">
        <ele>1871.3127441406</ele>
        <time>2013-07-24T08:12:58Z</time>
      </trkpt>
      <trkpt lat="44.95378" lon="6.57364">
        <ele>1873.6885986328</ele>
        <time>2013-07-24T08:13:06Z</time>
      </trkpt>
      <trkpt lat="44.95385" lon="6.57344">
        <ele>1875.3388671875</ele>
        <time>2013-07-24T08:13:10Z</time>
      </trkpt>
      <trkpt lat="44.95388" lon="6.57348">
        <ele>1876.8695068359</ele>
        <time>2013-07-24T08:13:11Z</time>
      </trkpt>
      <trkpt lat="44.95388" lon="6.5737">
        <ele>1877.9663085938</ele>
        <time>2013-07-24T08:13:14Z</time>
      </trkpt>
      <trkpt lat="44.95387" lon="6.57387">
        <ele>1878.0041503906</ele>
        <time>2013-07-24T08:13:16Z</time>
      </trkpt>
      <trkpt lat="44.954" lon="6.57409">
        <ele>1884.9371337891</ele>
        <time>2013-07-24T08:13:18Z</time>
      </trkpt>
      <trkpt lat="44.95419" lon="6.57446">
        <ele>1895.1890869141</ele>
        <time>2013-07-24T08:13:22Z</time>
      </trkpt>
      <trkpt lat="44.95425" lon="6.57475">
        <ele>1898.8156738281</ele>
        <time>2013-07-24T08:13:25Z</time>
      </trkpt>
      <trkpt lat="44.95444" lon="6.57511">
        <ele>1906.7027587891</ele>
        <time>2013-07-24T08:13:28Z</time>
      </trkpt>
      <trkpt lat="44.95458" lon="6.5756">
        <ele>1908.7823486328</ele>
        <time>2013-07-24T08:13:33Z</time>
      </trkpt>
      <trkpt lat="44.95479" lon="6.57636">
        <ele>1912.693359375</ele>
        <time>2013-07-24T08:13:41Z</time>
      </trkpt>
      <trkpt lat="44.95495" lon="6.57676">
        <ele>1918.7263183594</ele>
        <time>2013-07-24T08:13:45Z</time>
      </trkpt>
      <trkpt lat="44.95527" lon="6.57731">
        <ele>1926.6669921875</ele>
        <time>2013-07-24T08:13:51Z</time>
      </trkpt>
      <trkpt lat="44.95537" lon="6.5775">
        <ele>1930.4018554688</ele>
        <time>2013-07-24T08:13:55Z</time>
      </trkpt>
      <trkpt lat="44.95544" lon="6.57766">
        <ele>1932.7115478516</ele>
        <time>2013-07-24T08:13:58Z</time>
      </trkpt>
      <trkpt lat="44.95549" lon="6.57762">
        <ele>1935.4857177734</ele>
        <time>2013-07-24T08:13:59Z</time>
      </trkpt>
      <trkpt lat="44.9556" lon="6.5778">
        <ele>1937.3665771484</ele>
        <time>2013-07-24T08:14:01Z</time>
      </trkpt>
      <trkpt lat="44.95548" lon="6.5776">
        <ele>1935.5404052734</ele>
        <time>2013-07-24T08:14:02Z</time>
      </trkpt>
      <trkpt lat="44.95544" lon="6.57724">
        <ele>1936.6502685547</ele>
        <time>2013-07-24T08:14:05Z</time>
      </trkpt>
      <trkpt lat="44.95536" lon="6.57699">
        <ele>1934.3668212891</ele>
        <time>2013-07-24T08:14:12Z</time>
      </trkpt>
      <trkpt lat="44.95532" lon="6.57667">
        <ele>1934.1882324219</ele>
        <time>2013-07-24T08:14:19Z</time>
      </trkpt>
      <trkpt lat="44.95537" lon="6.57648">
        <ele>1938.6682128906</ele>
        <time>2013-07-24T08:14:29Z</time>
      </trkpt>
      <trkpt lat="44.95541" lon="6.57616">
        <ele>1943.3022460938</ele>
        <time>2013-07-24T08:14:40Z</time>
      </trkpt>
      <trkpt lat="44.95542" lon="6.57596">
        <ele>1945.6029052734</ele>
        <time>2013-07-24T08:14:50Z</time>
      </trkpt>
      <trkpt lat="44.95538" lon="6.57557">
        <ele>1946.6517333984</ele>
        <time>2013-07-24T08:14:56Z</time>
      </trkpt>
      <trkpt lat="44.95536" lon="6.57512">
        <ele>1948.0949707031</ele>
        <time>2013-07-24T08:15:01Z</time>
      </trkpt>
      <trkpt lat="44.95538" lon="6.57497">
        <ele>1950.0323486328</ele>
        <time>2013-07-24T08:15:05Z</time>
      </trkpt>
      <trkpt lat="44.95546" lon="6.57486">
        <ele>1954.6569824219</ele>
        <time>2013-07-24T08:15:06Z</time>
      </trkpt>
      <trkpt lat="44.95545" lon="6.57471">
        <ele>1954.6118164062</ele>
        <time>2013-07-24T08:15:06Z</time>
      </trkpt>
      <trkpt lat="44.95559" lon="6.57435">
        <ele>1961.8026123047</ele>
        <time>2013-07-24T08:15:06Z</time>
      </trkpt>
      <trkpt lat="44.95565" lon="6.5741">
        <ele>1964.1400146484</ele>
        <time>2013-07-24T08:15:06Z</time>
      </trkpt>
      <trkpt lat="44.95569" lon="6.57404">
        <ele>1965.1143798828</ele>
        <time>2013-07-24T08:15:06Z</time>
      </trkpt>
      <trkpt lat="44.95576" lon="6.57422">
        <ele>1967.1711425781</ele>
        <time>2013-07-24T08:15:06Z</time>
      </trkpt>
      <trkpt lat="44.95583" lon="6.57446">
        <ele>1969.0029296875</ele>
        <time>2013-07-24T08:15:06Z</time>
      </trkpt>
      <trkpt lat="44.95588" lon="6.57462">
        <ele>1970.5437011719</ele>
        <time>2013-07-24T08:15:06Z</time>
      </trkpt>
      <trkpt lat="44.95582" lon="6.57485">
        <ele>1968.6130371094</ele>
        <time>2013-07-24T08:15:06Z</time>
      </trkpt>
      <trkpt lat="44.95593" lon="6.5751">
        <ele>1972.1950683594</ele>
        <time>2013-07-24T08:15:06Z</time>
      </trkpt>
      <trkpt lat="44.95614" lon="6.5753">
        <ele>1979.9534912109</ele>
        <time>2013-07-24T08:15:06Z</time>
      </trkpt>
      <trkpt lat="44.95631" lon="6.57578">
        <ele>1983.84765625</ele>
        <time>2013-07-24T08:15:06Z</time>
      </trkpt>
      <trkpt lat="44.95641" lon="6.57628">
        <ele>1984.3055419922</ele>
        <time>2013-07-24T08:15:06Z</time>
      </trkpt>
      <trkpt lat="44.95654" lon="6.57646">
        <ele>1986.4870605469</ele>
        <time>2013-07-24T08:15:06Z</time>
      </trkpt>
      <trkpt lat="44.9566" lon="6.57653">
        <ele>1987.2429199219</ele>
        <time>2013-07-24T08:15:06Z</time>
      </trkpt>
      <trkpt lat="44.95665" lon="6.5765">
        <ele>1988.9949951172</ele>
        <time>2013-07-24T08:15:06Z</time>
      </trkpt>
      <trkpt lat="44.95687" lon="6.57668">
        <ele>1992.0068359375</ele>
        <time>2013-07-24T08:15:06Z</time>
      </trkpt>
      <trkpt lat="44.95709" lon="6.57686">
        <ele>1994.6357421875</ele>
        <time>2013-07-24T08:15:06Z</time>
      </trkpt>
      <trkpt lat="44.95746" lon="6.57709">
        <ele>2000.5238037109</ele>
        <time>2013-07-24T08:15:06Z</time>
      </trkpt>
      <trkpt lat="44.95772" lon="6.57728">
        <ele>2000.8568115234</ele>
        <time>2013-07-24T08:15:06Z</time>
      </trkpt>
      <trkpt lat="44.95793" lon="6.57766">
        <ele>1999.5799560547</ele>
        <time>2013-07-24T08:15:06Z</time>
      </trkpt>
      <trkpt lat="44.95818" lon="6.57813">
        <ele>2009.0013427734</ele>
        <time>2013-07-24T08:15:06Z</time>
      </trkpt>
      <trkpt lat="44.95862" lon="6.57863">
        <ele>2022.2239990234</ele>
        <time>2013-07-24T08:15:06Z</time>
      </trkpt>
      <trkpt lat="44.95897" lon="6.57908">
        <ele>2029.3776855469</ele>
        <time>2013-07-24T08:15:06Z</time>
      </trkpt>
      <trkpt lat="44.9593" lon="6.57932">
        <ele>2036.8017578125</ele>
        <time>2013-07-24T08:15:07Z</time>
      </trkpt>
      <trkpt lat="44.95975" lon="6.5797">
        <ele>2044.0609130859</ele>
        <time>2013-07-24T08:15:08Z</time>
      </trkpt>
      <trkpt lat="44.96" lon="6.58005">
        <ele>2053.6474609375</ele>
        <time>2013-07-24T08:15:09Z</time>
      </trkpt>
      <trkpt lat="44.95997" lon="6.58049">
        <ele>2051.0139160156</ele>
        <time>2013-07-24T08:15:09Z</time>
      </trkpt>
      <trkpt lat="44.95998" lon="6.58074">
        <ele>2054.1557617188</ele>
        <time>2013-07-24T08:15:09Z</time>
      </trkpt>
      <trkpt lat="44.96019" lon="6.58128">
        <ele>2068.9318847656</ele>
        <time>2013-07-24T08:15:09Z</time>
      </trkpt>
      <trkpt lat="44.96049" lon="6.58167">
        <ele>2076.2033691406</ele>
        <time>2013-07-24T08:15:09Z</time>
      </trkpt>
      <trkpt lat="44.96104" lon="6.58188">
        <ele>2082.5729980469</ele>
        <time>2013-07-24T08:15:09Z</time>
      </trkpt>
      <trkpt lat="44.9617" lon="6.5821">
        <ele>2094.0732421875</ele>
        <time>2013-07-24T08:15:09Z</time>
      </trkpt>
      <trkpt lat="44.96194" lon="6.58231">
        <ele>2096.6398925781</ele>
        <time>2013-07-24T08:15:10Z</time>
      </trkpt>
      <trkpt lat="44.96241" lon="6.5827">
        <ele>2101.7746582031</ele>
        <time>2013-07-24T08:15:10Z</time>
      </trkpt>
      <trkpt lat="44.96276" lon="6.58284">
        <ele>2108.9392089844</ele>
        <time>2013-07-24T08:15:10Z</time>
      </trkpt>
      <trkpt lat="44.96253" lon="6.58248">
        <ele>2110.6154785156</ele>
        <time>2013-07-24T08:15:10Z</time>
      </trkpt>
      <trkpt lat="44.96278" lon="6.58287">
        <ele>2108.6865234375</ele>
        <time>2013-07-24T08:15:10Z</time>
      </trkpt>
      <trkpt lat="44.96326" lon="6.58316">
        <ele>2113.6164550781</ele>
        <time>2013-07-24T08:15:10Z</time>
      </trkpt>
      <trkpt lat="44.96365" lon="6.5832">
        <ele>2118.5812988281</ele>
        <time>2013-07-24T08:15:10Z</time>
      </trkpt>
      <trkpt lat="44.96427" lon="6.58321">
        <ele>2130.0891113281</ele>
        <time>2013-07-24T08:15:10Z</time>
      </trkpt>
      <trkpt lat="44.96434" lon="6.58306">
        <ele>2134.376953125</ele>
        <time>2013-07-24T08:15:10Z</time>
      </trkpt>
      <trkpt lat="44.96465" lon="6.58332">
        <ele>2135.73828125</ele>
        <time>2013-07-24T08:15:10Z</time>
      </trkpt>
      <trkpt lat="44.96481" lon="6.58384">
        <ele>2134.3747558594</ele>
        <time>2013-07-24T08:39:23Z</time>
      </trkpt>
      <trkpt lat="44.96504" lon="6.58419">
        <ele>2137.7080078125</ele>
        <time>2013-07-24T08:39:31Z</time>
      </trkpt>
      <trkpt lat="44.96529" lon="6.58431">
        <ele>2142.255859375</ele>
        <time>2013-07-24T08:39:40Z</time>
      </trkpt>
      <trkpt lat="44.96567" lon="6.58433">
        <ele>2147.8090820312</ele>
        <time>2013-07-24T08:39:49Z</time>
      </trkpt>
      <trkpt lat="44.96597" lon="6.58434">
        <ele>2151.5520019531</ele>
        <time>2013-07-24T08:39:57Z</time>
      </trkpt>
      <trkpt lat="44.9663" lon="6.58435">
        <ele>2155.6064453125</ele>
        <time>2013-07-24T08:40:05Z</time>
      </trkpt>
      <trkpt lat="44.96671" lon="6.58431">
        <ele>2160.494140625</ele>
        <time>2013-07-24T08:40:16Z</time>
      </trkpt>
      <trkpt lat="44.967" lon="6.58419">
        <ele>2164.4621582031</ele>
        <time>2013-07-24T08:40:24Z</time>
      </trkpt>
      <trkpt lat="44.96725" lon="6.58399">
        <ele>2166.5974121094</ele>
        <time>2013-07-24T08:40:35Z</time>
      </trkpt>
      <trkpt lat="44.96751" lon="6.58393">
        <ele>2168.5456542969</ele>
        <time>2013-07-24T08:40:43Z</time>
      </trkpt>
      <trkpt lat="44.96781" lon="6.5839">
        <ele>2172.1953125</ele>
        <time>2013-07-24T08:40:44Z</time>
      </trkpt>
      <trkpt lat="44.96806" lon="6.58397">
        <ele>2174.1293945312</ele>
        <time>2013-07-24T08:40:53Z</time>
      </trkpt>
      <trkpt lat="44.96825" lon="6.58411">
        <ele>2175.2624511719</ele>
        <time>2013-07-24T08:41:02Z</time>
      </trkpt>
      <trkpt lat="44.96827" lon="6.58441">
        <ele>2173.1003417969</ele>
        <time>2013-07-24T08:44:01Z</time>
      </trkpt>
      <trkpt lat="44.96828" lon="6.58439">
        <ele>2173.3896484375</ele>
        <time>2013-07-24T08:44:02Z</time>
      </trkpt>
      <trkpt lat="44.96834" lon="6.5844">
        <ele>2174.3662109375</ele>
        <time>2013-07-24T08:44:07Z</time>
      </trkpt>
      <trkpt lat="44.96838" lon="6.58444">
        <ele>2174.798828125</ele>
        <time>2013-07-24T08:44:10Z</time>
      </trkpt>
      <trkpt lat="44.96848" lon="6.58455">
        <ele>2176.2553710938</ele>
        <time>2013-07-24T08:44:18Z</time>
      </trkpt>
      <trkpt lat="44.96857" lon="6.58454">
        <ele>2177.9411621094</ele>
        <time>2013-07-24T08:44:23Z</time>
      </trkpt>
      <trkpt lat="44.96875" lon="6.58445">
        <ele>2179.5383300781</ele>
        <time>2013-07-24T08:44:33Z</time>
      </trkpt>
      <trkpt lat="44.96882" lon="6.58434">
        <ele>2179.8400878906</ele>
        <time>2013-07-24T08:44:37Z</time>
      </trkpt>
      <trkpt lat="44.96889" lon="6.5841">
        <ele>2180.0202636719</ele>
        <time>2013-07-24T08:45:39Z</time>
      </trkpt>
      <trkpt lat="44.96889" lon="6.58385">
        <ele>2180.5043945312</ele>
        <time>2013-07-24T08:46:42Z</time>
      </trkpt>
      <trkpt lat="44.96888" lon="6.58382">
        <ele>2180.9790039062</ele>
        <time>2013-07-24T08:46:43Z</time>
      </trkpt>
      <trkpt lat="44.96881" lon="6.58367">
        <ele>2182.5532226562</ele>
        <time>2013-07-24T08:46:49Z</time>
      </trkpt>
      <trkpt lat="44.96877" lon="6.58356">
        <ele>2183.5334472656</ele>
        <time>2013-07-24T08:46:53Z</time>
      </trkpt>
      <trkpt lat="44.96865" lon="6.58335">
        <ele>2186.185546875</ele>
        <time>2013-07-24T08:47:02Z</time>
      </trkpt>
      <trkpt lat="44.96854" lon="6.58321">
        <ele>2188.470703125</ele>
        <time>2013-07-24T08:47:10Z</time>
      </trkpt>
      <trkpt lat="44.96845" lon="6.58309">
        <ele>2190.7399902344</ele>
        <time>2013-07-24T08:47:16Z</time>
      </trkpt>
      <trkpt lat="44.96836" lon="6.58296">
        <ele>2193.0949707031</ele>
        <time>2013-07-24T08:47:23Z</time>
      </trkpt>
      <trkpt lat="44.96829" lon="6.5828">
        <ele>2196.3225097656</ele>
        <time>2013-07-24T08:47:31Z</time>
      </trkpt>
      <trkpt lat="44.96835" lon="6.58274">
        <ele>2198.3395996094</ele>
        <time>2013-07-24T08:47:36Z</time>
      </trkpt>
      <trkpt lat="44.96843" lon="6.58281">
        <ele>2196.2602539062</ele>
        <time>2013-07-24T08:47:43Z</time>
      </trkpt>
      <trkpt lat="44.96855" lon="6.58289">
        <ele>2194.7976074219</ele>
        <time>2013-07-24T08:47:53Z</time>
      </trkpt>
      <trkpt lat="44.96865" lon="6.58297">
        <ele>2193.9816894531</ele>
        <time>2013-07-24T08:48:02Z</time>
      </trkpt>
      <trkpt lat="44.96877" lon="6.58311">
        <ele>2192.5639648438</ele>
        <time>2013-07-24T08:48:12Z</time>
      </trkpt>
      <trkpt lat="44.96893" lon="6.58308">
        <ele>2195.0454101562</ele>
        <time>2013-07-24T08:48:19Z</time>
      </trkpt>
      <trkpt lat="44.96914" lon="6.58303">
        <ele>2200.5275878906</ele>
        <time>2013-07-24T08:48:28Z</time>
      </trkpt>
      <trkpt lat="44.96929" lon="6.58302">
        <ele>2202.75</ele>
        <time>2013-07-24T08:48:36Z</time>
      </trkpt>
      <trkpt lat="44.96938" lon="6.58298">
        <ele>2205.2314453125</ele>
        <time>2013-07-24T08:48:43Z</time>
      </trkpt>
      <trkpt lat="44.96949" lon="6.58303">
        <ele>2204.9624023438</ele>
        <time>2013-07-24T08:48:51Z</time>
      </trkpt>
      <trkpt lat="44.96962" lon="6.58303">
        <ele>2205.3193359375</ele>
        <time>2013-07-24T08:48:58Z</time>
      </trkpt>
      <trkpt lat="44.96973" lon="6.58303">
        <ele>2205.8459472656</ele>
        <time>2013-07-24T08:49:06Z</time>
      </trkpt>
      <trkpt lat="44.96982" lon="6.5831">
        <ele>2205.8896484375</ele>
        <time>2013-07-24T08:49:14Z</time>
      </trkpt>
      <trkpt lat="44.97002" lon="6.58307">
        <ele>2210.193359375</ele>
        <time>2013-07-24T08:49:21Z</time>
      </trkpt>
      <trkpt lat="44.97013" lon="6.58337">
        <ele>2206.6843261719</ele>
        <time>2013-07-24T08:49:29Z</time>
      </trkpt>
      <trkpt lat="44.9702" lon="6.58364">
        <ele>2203.712890625</ele>
        <time>2013-07-24T08:49:36Z</time>
      </trkpt>
      <trkpt lat="44.97011" lon="6.58393">
        <ele>2201.93359375</ele>
        <time>2013-07-24T08:49:43Z</time>
      </trkpt>
      <trkpt lat="44.97007" lon="6.58402">
        <ele>2200.9992675781</ele>
        <time>2013-07-24T08:49:51Z</time>
      </trkpt>
      <trkpt lat="44.97003" lon="6.5842">
        <ele>2200.0495605469</ele>
        <time>2013-07-24T08:49:57Z</time>
      </trkpt>
      <trkpt lat="44.96997" lon="6.58438">
        <ele>2202.8020019531</ele>
        <time>2013-07-24T08:50:05Z</time>
      </trkpt>
      <trkpt lat="44.96993" lon="6.58453">
        <ele>2205.2907714844</ele>
        <time>2013-07-24T08:50:12Z</time>
      </trkpt>
      <trkpt lat="44.9699" lon="6.58471">
        <ele>2209.236328125</ele>
        <time>2013-07-24T08:50:20Z</time>
      </trkpt>
      <trkpt lat="44.96986" lon="6.58479">
        <ele>2210.009765625</ele>
        <time>2013-07-24T08:50:28Z</time>
      </trkpt>
      <trkpt lat="44.96976" lon="6.58489">
        <ele>2209.3559570312</ele>
        <time>2013-07-24T08:50:39Z</time>
      </trkpt>
      <trkpt lat="44.96962" lon="6.58503">
        <ele>2210.37890625</ele>
        <time>2013-07-24T08:50:49Z</time>
      </trkpt>
      <trkpt lat="44.96947" lon="6.58511">
        <ele>2208.8579101562</ele>
        <time>2013-07-24T08:50:57Z</time>
      </trkpt>
      <trkpt lat="44.96936" lon="6.58524">
        <ele>2211.34375</ele>
        <time>2013-07-24T08:51:04Z</time>
      </trkpt>
      <trkpt lat="44.96926" lon="6.58542">
        <ele>2215.3369140625</ele>
        <time>2013-07-24T08:51:12Z</time>
      </trkpt>
      <trkpt lat="44.96915" lon="6.58562">
        <ele>2219.0422363281</ele>
        <time>2013-07-24T08:51:20Z</time>
      </trkpt>
      <trkpt lat="44.96905" lon="6.58578">
        <ele>2220.298828125</ele>
        <time>2013-07-24T08:51:28Z</time>
      </trkpt>
      <trkpt lat="44.96889" lon="6.58595">
        <ele>2220.5769042969</ele>
        <time>2013-07-24T08:51:38Z</time>
      </trkpt>
      <trkpt lat="44.96877" lon="6.5861">
        <ele>2221.6569824219</ele>
        <time>2013-07-24T08:51:48Z</time>
      </trkpt>
      <trkpt lat="44.96864" lon="6.58629">
        <ele>2222.7524414062</ele>
        <time>2013-07-24T08:51:59Z</time>
      </trkpt>
      <trkpt lat="44.96852" lon="6.58648">
        <ele>2224.7062988281</ele>
        <time>2013-07-24T08:52:09Z</time>
      </trkpt>
      <trkpt lat="44.96841" lon="6.58665">
        <ele>2226.142578125</ele>
        <time>2013-07-24T08:52:18Z</time>
      </trkpt>
      <trkpt lat="44.9683" lon="6.58678">
        <ele>2226.576171875</ele>
        <time>2013-07-24T08:52:27Z</time>
      </trkpt>
      <trkpt lat="44.96819" lon="6.58691">
        <ele>2226.8422851562</ele>
        <time>2013-07-24T08:52:35Z</time>
      </trkpt>
      <trkpt lat="44.96808" lon="6.58704">
        <ele>2227.7861328125</ele>
        <time>2013-07-24T08:52:43Z</time>
      </trkpt>
      <trkpt lat="44.96795" lon="6.58722">
        <ele>2229.4548339844</ele>
        <time>2013-07-24T08:52:54Z</time>
      </trkpt>
      <trkpt lat="44.96782" lon="6.58737">
        <ele>2230.6081542969</ele>
        <time>2013-07-24T08:53:04Z</time>
      </trkpt>
      <trkpt lat="44.9677" lon="6.58747">
        <ele>2231.2092285156</ele>
        <time>2013-07-24T08:53:13Z</time>
      </trkpt>
      <trkpt lat="44.96757" lon="6.58762">
        <ele>2232.9604492188</ele>
        <time>2013-07-24T08:53:23Z</time>
      </trkpt>
      <trkpt lat="44.96745" lon="6.58782">
        <ele>2236.3205566406</ele>
        <time>2013-07-24T08:53:34Z</time>
      </trkpt>
      <trkpt lat="44.9674" lon="6.58797">
        <ele>2239.2600097656</ele>
        <time>2013-07-24T08:53:41Z</time>
      </trkpt>
      <trkpt lat="44.9673" lon="6.5882">
        <ele>2242.6306152344</ele>
        <time>2013-07-24T08:53:52Z</time>
      </trkpt>
      <trkpt lat="44.96722" lon="6.58834">
        <ele>2244.0861816406</ele>
        <time>2013-07-24T08:53:59Z</time>
      </trkpt>
      <trkpt lat="44.96708" lon="6.58852">
        <ele>2244.5119628906</ele>
        <time>2013-07-24T08:54:10Z</time>
      </trkpt>
      <trkpt lat="44.96697" lon="6.58864">
        <ele>2244.8896484375</ele>
        <time>2013-07-24T08:54:18Z</time>
      </trkpt>
      <trkpt lat="44.96691" lon="6.58881">
        <ele>2245.8776855469</ele>
        <time>2013-07-24T08:54:26Z</time>
      </trkpt>
      <trkpt lat="44.96685" lon="6.58897">
        <ele>2247.107421875</ele>
        <time>2013-07-24T08:54:34Z</time>
      </trkpt>
      <trkpt lat="44.96676" lon="6.58921">
        <ele>2248.4694824219</ele>
        <time>2013-07-24T08:54:45Z</time>
      </trkpt>
      <trkpt lat="44.96668" lon="6.58939">
        <ele>2248.6267089844</ele>
        <time>2013-07-24T08:54:54Z</time>
      </trkpt>
      <trkpt lat="44.96658" lon="6.5896">
        <ele>2249.0317382812</ele>
        <time>2013-07-24T08:55:05Z</time>
      </trkpt>
      <trkpt lat="44.9665" lon="6.58983">
        <ele>2250.4838867188</ele>
        <time>2013-07-24T08:55:14Z</time>
      </trkpt>
      <trkpt lat="44.96654" lon="6.58993">
        <ele>2252.6879882812</ele>
        <time>2013-07-24T08:55:19Z</time>
      </trkpt>
      <trkpt lat="44.96662" lon="6.58991">
        <ele>2253.8002929688</ele>
        <time>2013-07-24T08:55:24Z</time>
      </trkpt>
      <trkpt lat="44.96668" lon="6.58979">
        <ele>2253.3605957031</ele>
        <time>2013-07-24T08:55:30Z</time>
      </trkpt>
      <trkpt lat="44.96675" lon="6.58959">
        <ele>2253.0092773438</ele>
        <time>2013-07-24T08:55:38Z</time>
      </trkpt>
      <trkpt lat="44.96682" lon="6.5895">
        <ele>2254.3161621094</ele>
        <time>2013-07-24T08:55:44Z</time>
      </trkpt>
      <trkpt lat="44.96698" lon="6.58942">
        <ele>2257.9079589844</ele>
        <time>2013-07-24T08:55:55Z</time>
      </trkpt>
      <trkpt lat="44.9671" lon="6.58939">
        <ele>2258.1791992188</ele>
        <time>2013-07-24T08:56:02Z</time>
      </trkpt>
      <trkpt lat="44.96732" lon="6.58929">
        <ele>2258.1762695312</ele>
        <time>2013-07-24T08:56:15Z</time>
      </trkpt>
      <trkpt lat="44.96744" lon="6.58927">
        <ele>2258.2448730469</ele>
        <time>2013-07-24T08:56:22Z</time>
      </trkpt>
      <trkpt lat="44.96759" lon="6.58922">
        <ele>2259.1408691406</ele>
        <time>2013-07-24T08:56:31Z</time>
      </trkpt>
      <trkpt lat="44.96773" lon="6.58912">
        <ele>2259.5249023438</ele>
        <time>2013-07-24T08:56:40Z</time>
      </trkpt>
      <trkpt lat="44.96783" lon="6.58896">
        <ele>2258.8813476562</ele>
        <time>2013-07-24T08:56:48Z</time>
      </trkpt>
      <trkpt lat="44.96792" lon="6.58878">
        <ele>2258.9841308594</ele>
        <time>2013-07-24T08:56:56Z</time>
      </trkpt>
      <trkpt lat="44.96804" lon="6.58866">
        <ele>2260.4909667969</ele>
        <time>2013-07-24T08:57:04Z</time>
      </trkpt>
      <trkpt lat="44.96815" lon="6.58857">
        <ele>2260.9423828125</ele>
        <time>2013-07-24T08:57:12Z</time>
      </trkpt>
      <trkpt lat="44.96832" lon="6.58848">
        <ele>2261.9436035156</ele>
        <time>2013-07-24T08:57:21Z</time>
      </trkpt>
      <trkpt lat="44.96839" lon="6.58845">
        <ele>2262.6301269531</ele>
        <time>2013-07-24T08:57:25Z</time>
      </trkpt>
      <trkpt lat="44.96847" lon="6.58843">
        <ele>2263.3937988281</ele>
        <time>2013-07-24T08:57:29Z</time>
      </trkpt>
      <trkpt lat="44.96862" lon="6.58838">
        <ele>2264.4780273438</ele>
        <time>2013-07-24T08:57:38Z</time>
      </trkpt>
      <trkpt lat="44.96874" lon="6.58833">
        <ele>2265.0988769531</ele>
        <time>2013-07-24T08:57:46Z</time>
      </trkpt>
      <trkpt lat="44.96886" lon="6.58828">
        <ele>2266.0134277344</ele>
        <time>2013-07-24T08:57:54Z</time>
      </trkpt>
      <trkpt lat="44.96904" lon="6.58822">
        <ele>2267.7143554688</ele>
        <time>2013-07-24T08:58:05Z</time>
      </trkpt>
      <trkpt lat="44.96918" lon="6.58821">
        <ele>2270.0258789062</ele>
        <time>2013-07-24T08:58:14Z</time>
      </trkpt>
      <trkpt lat="44.96932" lon="6.58818">
        <ele>2273.3715820312</ele>
        <time>2013-07-24T08:58:23Z</time>
      </trkpt>
      <trkpt lat="44.96949" lon="6.58813">
        <ele>2277.0131835938</ele>
        <time>2013-07-24T08:58:32Z</time>
      </trkpt>
      <trkpt lat="44.96964" lon="6.58809">
        <ele>2279.873046875</ele>
        <time>2013-07-24T08:58:42Z</time>
      </trkpt>
      <trkpt lat="44.9698" lon="6.58807">
        <ele>2282.7177734375</ele>
        <time>2013-07-24T08:58:52Z</time>
      </trkpt>
      <trkpt lat="44.96992" lon="6.58805">
        <ele>2284.2963867188</ele>
        <time>2013-07-24T08:58:59Z</time>
      </trkpt>
      <trkpt lat="44.97005" lon="6.58798">
        <ele>2285.3793945312</ele>
        <time>2013-07-24T08:59:08Z</time>
      </trkpt>
      <trkpt lat="44.9702" lon="6.58789">
        <ele>2286.3037109375</ele>
        <time>2013-07-24T08:59:18Z</time>
      </trkpt>
      <trkpt lat="44.97036" lon="6.58777">
        <ele>2286.9133300781</ele>
        <time>2013-07-24T08:59:28Z</time>
      </trkpt>
      <trkpt lat="44.97047" lon="6.58766">
        <ele>2287.5961914062</ele>
        <time>2013-07-24T08:59:37Z</time>
      </trkpt>
      <trkpt lat="44.97058" lon="6.58756">
        <ele>2287.6123046875</ele>
        <time>2013-07-24T08:59:44Z</time>
      </trkpt>
      <trkpt lat="44.97068" lon="6.58745">
        <ele>2287.4821777344</ele>
        <time>2013-07-24T08:59:52Z</time>
      </trkpt>
      <trkpt lat="44.97078" lon="6.58734">
        <ele>2287.181640625</ele>
        <time>2013-07-24T08:59:59Z</time>
      </trkpt>
      <trkpt lat="44.97087" lon="6.58726">
        <ele>2287.4423828125</ele>
        <time>2013-07-24T09:00:05Z</time>
      </trkpt>
      <trkpt lat="44.971" lon="6.5871">
        <ele>2287.6240234375</ele>
        <time>2013-07-24T09:00:14Z</time>
      </trkpt>
      <trkpt lat="44.9711" lon="6.58704">
        <ele>2288.7084960938</ele>
        <time>2013-07-24T09:00:21Z</time>
      </trkpt>
      <trkpt lat="44.97122" lon="6.58698">
        <ele>2289.6911621094</ele>
        <time>2013-07-24T09:00:29Z</time>
      </trkpt>
      <trkpt lat="44.97136" lon="6.5869">
        <ele>2290.6450195312</ele>
        <time>2013-07-24T09:00:38Z</time>
      </trkpt>
      <trkpt lat="44.97151" lon="6.58685">
        <ele>2292.3286132812</ele>
        <time>2013-07-24T09:00:47Z</time>
      </trkpt>
      <trkpt lat="44.97165" lon="6.58683">
        <ele>2294.1604003906</ele>
        <time>2013-07-24T09:00:55Z</time>
      </trkpt>
      <trkpt lat="44.97181" lon="6.58678">
        <ele>2295.0322265625</ele>
        <time>2013-07-24T09:01:05Z</time>
      </trkpt>
      <trkpt lat="44.97195" lon="6.58675">
        <ele>2295.8039550781</ele>
        <time>2013-07-24T09:01:14Z</time>
      </trkpt>
      <trkpt lat="44.97207" lon="6.58672">
        <ele>2297.2883300781</ele>
        <time>2013-07-24T09:01:22Z</time>
      </trkpt>
      <trkpt lat="44.97219" lon="6.58672">
        <ele>2299.2705078125</ele>
        <time>2013-07-24T09:01:30Z</time>
      </trkpt>
      <trkpt lat="44.97233" lon="6.58671">
        <ele>2301.2214355469</ele>
        <time>2013-07-24T09:01:39Z</time>
      </trkpt>
      <trkpt lat="44.97242" lon="6.58672">
        <ele>2303.1840820312</ele>
        <time>2013-07-24T09:01:46Z</time>
      </trkpt>
      <trkpt lat="44.97257" lon="6.58671">
        <ele>2304.7954101562</ele>
        <time>2013-07-24T09:01:56Z</time>
      </trkpt>
      <trkpt lat="44.97271" lon="6.58669">
        <ele>2305.0546875</ele>
        <time>2013-07-24T09:02:04Z</time>
      </trkpt>
      <trkpt lat="44.97284" lon="6.58668">
        <ele>2305.3354492188</ele>
        <time>2013-07-24T09:02:12Z</time>
      </trkpt>
      <trkpt lat="44.97296" lon="6.58673">
        <ele>2306.5432128906</ele>
        <time>2013-07-24T09:02:20Z</time>
      </trkpt>
      <trkpt lat="44.97305" lon="6.58684">
        <ele>2308.7927246094</ele>
        <time>2013-07-24T09:02:27Z</time>
      </trkpt>
      <trkpt lat="44.9732" lon="6.58696">
        <ele>2310.2319335938</ele>
        <time>2013-07-24T09:02:36Z</time>
      </trkpt>
      <trkpt lat="44.97339" lon="6.58705">
        <ele>2310.8051757812</ele>
        <time>2013-07-24T09:02:47Z</time>
      </trkpt>
      <trkpt lat="44.97355" lon="6.58707">
        <ele>2311.1513671875</ele>
        <time>2013-07-24T09:02:53Z</time>
      </trkpt>
      <trkpt lat="44.97368" lon="6.58704">
        <ele>2311.8234863281</ele>
        <time>2013-07-24T09:03:01Z</time>
      </trkpt>
      <trkpt lat="44.97385" lon="6.58701">
        <ele>2315.0629882812</ele>
        <time>2013-07-24T09:03:11Z</time>
      </trkpt>
      <trkpt lat="44.974" lon="6.58691">
        <ele>2317.3469238281</ele>
        <time>2013-07-24T09:03:20Z</time>
      </trkpt>
      <trkpt lat="44.97408" lon="6.58676">
        <ele>2317.1345214844</ele>
        <time>2013-07-24T09:03:28Z</time>
      </trkpt>
      <trkpt lat="44.97416" lon="6.58667">
        <ele>2317.7875976562</ele>
        <time>2013-07-24T09:03:34Z</time>
      </trkpt>
      <trkpt lat="44.9743" lon="6.58663">
        <ele>2319.4753417969</ele>
        <time>2013-07-24T09:03:42Z</time>
      </trkpt>
      <trkpt lat="44.97441" lon="6.58661">
        <ele>2320.8823242188</ele>
        <time>2013-07-24T09:03:50Z</time>
      </trkpt>
      <trkpt lat="44.97453" lon="6.58656">
        <ele>2321.6787109375</ele>
        <time>2013-07-24T09:03:59Z</time>
      </trkpt>
      <trkpt lat="44.97469" lon="6.58653">
        <ele>2323.5412597656</ele>
        <time>2013-07-24T09:04:10Z</time>
      </trkpt>
      <trkpt lat="44.97479" lon="6.5865">
        <ele>2324.1220703125</ele>
        <time>2013-07-24T09:04:17Z</time>
      </trkpt>
      <trkpt lat="44.97486" lon="6.5864">
        <ele>2322.0812988281</ele>
        <time>2013-07-24T09:04:23Z</time>
      </trkpt>
      <trkpt lat="44.97496" lon="6.58632">
        <ele>2320.9982910156</ele>
        <time>2013-07-24T09:04:30Z</time>
      </trkpt>
      <trkpt lat="44.97509" lon="6.5863">
        <ele>2322.7160644531</ele>
        <time>2013-07-24T09:04:38Z</time>
      </trkpt>
      <trkpt lat="44.9752" lon="6.5863">
        <ele>2324.8198242188</ele>
        <time>2013-07-24T09:04:45Z</time>
      </trkpt>
      <trkpt lat="44.97534" lon="6.58631">
        <ele>2326.8505859375</ele>
        <time>2013-07-24T09:04:53Z</time>
      </trkpt>
      <trkpt lat="44.97548" lon="6.58633">
        <ele>2328.5764160156</ele>
        <time>2013-07-24T09:05:02Z</time>
      </trkpt>
      <trkpt lat="44.97564" lon="6.58636">
        <ele>2329.5124511719</ele>
        <time>2013-07-24T09:05:12Z</time>
      </trkpt>
      <trkpt lat="44.97575" lon="6.58641">
        <ele>2330.3181152344</ele>
        <time>2013-07-24T09:05:19Z</time>
      </trkpt>
      <trkpt lat="44.9758" lon="6.58651">
        <ele>2334.5146484375</ele>
        <time>2013-07-24T09:05:27Z</time>
      </trkpt>
      <trkpt lat="44.97584" lon="6.5866">
        <ele>2338.22265625</ele>
        <time>2013-07-24T09:05:32Z</time>
      </trkpt>
      <trkpt lat="44.97594" lon="6.58665">
        <ele>2338.9697265625</ele>
        <time>2013-07-24T09:05:38Z</time>
      </trkpt>
      <trkpt lat="44.97607" lon="6.58665">
        <ele>2337.8044433594</ele>
        <time>2013-07-24T09:05:43Z</time>
      </trkpt>
      <trkpt lat="44.97622" lon="6.58666">
        <ele>2337.5610351562</ele>
        <time>2013-07-24T09:05:51Z</time>
      </trkpt>
      <trkpt lat="44.97632" lon="6.58665">
        <ele>2336.7607421875</ele>
        <time>2013-07-24T09:05:57Z</time>
      </trkpt>
      <trkpt lat="44.97647" lon="6.58666">
        <ele>2336.8876953125</ele>
        <time>2013-07-24T09:06:05Z</time>
      </trkpt>
      <trkpt lat="44.97659" lon="6.5867">
        <ele>2337.9860839844</ele>
        <time>2013-07-24T09:06:13Z</time>
      </trkpt>
      <trkpt lat="44.9767" lon="6.58669">
        <ele>2338.3400878906</ele>
        <time>2013-07-24T09:06:21Z</time>
      </trkpt>
      <trkpt lat="44.97685" lon="6.5867">
        <ele>2340.6213378906</ele>
        <time>2013-07-24T09:06:29Z</time>
      </trkpt>
      <trkpt lat="44.97696" lon="6.58669">
        <ele>2341.9387207031</ele>
        <time>2013-07-24T09:06:36Z</time>
      </trkpt>
      <trkpt lat="44.97709" lon="6.58668">
        <ele>2345.0346679688</ele>
        <time>2013-07-24T09:06:44Z</time>
      </trkpt>
      <trkpt lat="44.97722" lon="6.58667">
        <ele>2347.9995117188</ele>
        <time>2013-07-24T09:06:52Z</time>
      </trkpt>
      <trkpt lat="44.97736" lon="6.58665">
        <ele>2349.0874023438</ele>
        <time>2013-07-24T09:07:00Z</time>
      </trkpt>
      <trkpt lat="44.97744" lon="6.58673">
        <ele>2350.080078125</ele>
        <time>2013-07-24T09:07:07Z</time>
      </trkpt>
      <trkpt lat="44.97744" lon="6.58682">
        <ele>2350.9399414062</ele>
        <time>2013-07-24T09:07:13Z</time>
      </trkpt>
      <trkpt lat="44.97739" lon="6.58687">
        <ele>2351.2275390625</ele>
        <time>2013-07-24T09:07:17Z</time>
      </trkpt>
      <trkpt lat="44.97725" lon="6.58688">
        <ele>2351.1455078125</ele>
        <time>2013-07-24T09:07:25Z</time>
      </trkpt>
      <trkpt lat="44.97713" lon="6.58681">
        <ele>2348.6904296875</ele>
        <time>2013-07-24T09:07:33Z</time>
      </trkpt>
      <trkpt lat="44.97702" lon="6.58679">
        <ele>2346.3947753906</ele>
        <time>2013-07-24T09:07:40Z</time>
      </trkpt>
      <trkpt lat="44.97689" lon="6.58688">
        <ele>2347.1359863281</ele>
        <time>2013-07-24T09:07:47Z</time>
      </trkpt>
      <trkpt lat="44.97671" lon="6.58697">
        <ele>2347.4274902344</ele>
        <time>2013-07-24T09:07:57Z</time>
      </trkpt>
      <trkpt lat="44.97656" lon="6.58705">
        <ele>2349.4375</ele>
        <time>2013-07-24T09:08:05Z</time>
      </trkpt>
      <trkpt lat="44.97639" lon="6.58712">
        <ele>2352.283203125</ele>
        <time>2013-07-24T09:08:14Z</time>
      </trkpt>
      <trkpt lat="44.97621" lon="6.58716">
        <ele>2356.248046875</ele>
        <time>2013-07-24T09:08:24Z</time>
      </trkpt>
      <trkpt lat="44.97604" lon="6.5872">
        <ele>2359.1457519531</ele>
        <time>2013-07-24T09:08:33Z</time>
      </trkpt>
      <trkpt lat="44.97595" lon="6.5872">
        <ele>2359.3518066406</ele>
        <time>2013-07-24T09:08:38Z</time>
      </trkpt>
      <trkpt lat="44.97582" lon="6.58717">
        <ele>2357.8815917969</ele>
        <time>2013-07-24T09:08:45Z</time>
      </trkpt>
      <trkpt lat="44.97568" lon="6.58716">
        <ele>2355.9265136719</ele>
        <time>2013-07-24T09:08:52Z</time>
      </trkpt>
      <trkpt lat="44.97557" lon="6.58726">
        <ele>2357.2048339844</ele>
        <time>2013-07-24T09:08:59Z</time>
      </trkpt>
      <trkpt lat="44.97542" lon="6.58734">
        <ele>2358.0473632812</ele>
        <time>2013-07-24T09:09:08Z</time>
      </trkpt>
      <trkpt lat="44.97526" lon="6.5874">
        <ele>2358.1872558594</ele>
        <time>2013-07-24T09:09:18Z</time>
      </trkpt>
      <trkpt lat="44.97506" lon="6.58749">
        <ele>2357.576171875</ele>
        <time>2013-07-24T09:09:30Z</time>
      </trkpt>
      <trkpt lat="44.97493" lon="6.58759">
        <ele>2357.5239257812</ele>
        <time>2013-07-24T09:09:39Z</time>
      </trkpt>
      <trkpt lat="44.9748" lon="6.58775">
        <ele>2358.9521484375</ele>
        <time>2013-07-24T09:09:49Z</time>
      </trkpt>
      <trkpt lat="44.97473" lon="6.58788">
        <ele>2360.7893066406</ele>
        <time>2013-07-24T09:09:56Z</time>
      </trkpt>
      <trkpt lat="44.97465" lon="6.58799">
        <ele>2361.4665527344</ele>
        <time>2013-07-24T09:10:03Z</time>
      </trkpt>
      <trkpt lat="44.97451" lon="6.58806">
        <ele>2359.8159179688</ele>
        <time>2013-07-24T09:10:13Z</time>
      </trkpt>
      <trkpt lat="44.97439" lon="6.58812">
        <ele>2359.2119140625</ele>
        <time>2013-07-24T09:10:21Z</time>
      </trkpt>
      <trkpt lat="44.97427" lon="6.58819">
        <ele>2359.5441894531</ele>
        <time>2013-07-24T09:10:30Z</time>
      </trkpt>
      <trkpt lat="44.97417" lon="6.58834">
        <ele>2362.4221191406</ele>
        <time>2013-07-24T09:10:39Z</time>
      </trkpt>
      <trkpt lat="44.9741" lon="6.58852">
        <ele>2367.4045410156</ele>
        <time>2013-07-24T09:10:48Z</time>
      </trkpt>
      <trkpt lat="44.97402" lon="6.58865">
        <ele>2369.9636230469</ele>
        <time>2013-07-24T09:10:55Z</time>
      </trkpt>
      <trkpt lat="44.97393" lon="6.58873">
        <ele>2370.7421875</ele>
        <time>2013-07-24T09:11:01Z</time>
      </trkpt>
      <trkpt lat="44.97384" lon="6.58893">
        <ele>2373.7614746094</ele>
        <time>2013-07-24T09:11:11Z</time>
      </trkpt>
      <trkpt lat="44.97381" lon="6.58913">
        <ele>2377.8522949219</ele>
        <time>2013-07-24T09:11:20Z</time>
      </trkpt>
      <trkpt lat="44.9738" lon="6.5893">
        <ele>2380.8576660156</ele>
        <time>2013-07-24T09:11:28Z</time>
      </trkpt>
      <trkpt lat="44.97377" lon="6.58952">
        <ele>2384.0207519531</ele>
        <time>2013-07-24T09:11:37Z</time>
      </trkpt>
      <trkpt lat="44.97377" lon="6.58966">
        <ele>2386.2810058594</ele>
        <time>2013-07-24T09:11:44Z</time>
      </trkpt>
      <trkpt lat="44.97372" lon="6.58987">
        <ele>2389.1926269531</ele>
        <time>2013-07-24T09:11:53Z</time>
      </trkpt>
      <trkpt lat="44.97368" lon="6.59003">
        <ele>2391.4233398438</ele>
        <time>2013-07-24T09:12:01Z</time>
      </trkpt>
      <trkpt lat="44.97359" lon="6.59022">
        <ele>2393.5012207031</ele>
        <time>2013-07-24T09:12:11Z</time>
      </trkpt>
      <trkpt lat="44.97345" lon="6.59034">
        <ele>2393.2670898438</ele>
        <time>2013-07-24T09:12:20Z</time>
      </trkpt>
      <trkpt lat="44.97331" lon="6.59045">
        <ele>2392.7517089844</ele>
        <time>2013-07-24T09:12:30Z</time>
      </trkpt>
      <trkpt lat="44.97317" lon="6.59054">
        <ele>2391.7106933594</ele>
        <time>2013-07-24T09:12:39Z</time>
      </trkpt>
      <trkpt lat="44.97305" lon="6.59063">
        <ele>2391.6188964844</ele>
        <time>2013-07-24T09:12:47Z</time>
      </trkpt>
      <trkpt lat="44.97296" lon="6.59067">
        <ele>2390.2497558594</ele>
        <time>2013-07-24T09:12:54Z</time>
      </trkpt>
      <trkpt lat="44.97284" lon="6.59078">
        <ele>2390.0466308594</ele>
        <time>2013-07-24T09:13:03Z</time>
      </trkpt>
      <trkpt lat="44.97282" lon="6.59085">
        <ele>2391.1804199219</ele>
        <time>2013-07-24T09:13:06Z</time>
      </trkpt>
      <trkpt lat="44.97283" lon="6.59092">
        <ele>2393.4206542969</ele>
        <time>2013-07-24T09:13:10Z</time>
      </trkpt>
      <trkpt lat="44.97295" lon="6.59097">
        <ele>2397.2607421875</ele>
        <time>2013-07-24T09:13:17Z</time>
      </trkpt>
      <trkpt lat="44.97306" lon="6.59091">
        <ele>2398.1882324219</ele>
        <time>2013-07-24T09:13:23Z</time>
      </trkpt>
      <trkpt lat="44.97317" lon="6.59083">
        <ele>2397.4733886719</ele>
        <time>2013-07-24T09:13:30Z</time>
      </trkpt>
      <trkpt lat="44.97332" lon="6.59078">
        <ele>2398.9443359375</ele>
        <time>2013-07-24T09:13:38Z</time>
      </trkpt>
      <trkpt lat="44.97346" lon="6.59073">
        <ele>2400.5327148438</ele>
        <time>2013-07-24T09:13:48Z</time>
      </trkpt>
      <trkpt lat="44.97356" lon="6.59069">
        <ele>2401.5056152344</ele>
        <time>2013-07-24T09:13:55Z</time>
      </trkpt>
      <trkpt lat="44.97368" lon="6.59065">
        <ele>2402.5485839844</ele>
        <time>2013-07-24T09:14:03Z</time>
      </trkpt>
      <trkpt lat="44.97383" lon="6.59057">
        <ele>2403.3486328125</ele>
        <time>2013-07-24T09:14:14Z</time>
      </trkpt>
      <trkpt lat="44.97395" lon="6.59054">
        <ele>2405.2705078125</ele>
        <time>2013-07-24T09:14:22Z</time>
      </trkpt>
      <trkpt lat="44.97408" lon="6.59057">
        <ele>2409.1958007812</ele>
        <time>2013-07-24T09:14:30Z</time>
      </trkpt>
      <trkpt lat="44.97425" lon="6.59058">
        <ele>2413.3850097656</ele>
        <time>2013-07-24T09:14:40Z</time>
      </trkpt>
      <trkpt lat="44.97437" lon="6.59056">
        <ele>2415.4780273438</ele>
        <time>2013-07-24T09:14:47Z</time>
      </trkpt>
      <trkpt lat="44.97449" lon="6.59051">
        <ele>2416.9716796875</ele>
        <time>2013-07-24T09:14:54Z</time>
      </trkpt>
      <trkpt lat="44.97464" lon="6.59042">
        <ele>2417.4919433594</ele>
        <time>2013-07-24T09:15:02Z</time>
      </trkpt>
      <trkpt lat="44.97475" lon="6.59029">
        <ele>2416.4975585938</ele>
        <time>2013-07-24T09:15:10Z</time>
      </trkpt>
      <trkpt lat="44.97488" lon="6.59012">
        <ele>2416.6767578125</ele>
        <time>2013-07-24T09:15:21Z</time>
      </trkpt>
      <trkpt lat="44.97501" lon="6.58996">
        <ele>2418.1994628906</ele>
        <time>2013-07-24T09:15:31Z</time>
      </trkpt>
      <trkpt lat="44.9751" lon="6.58984">
        <ele>2417.6413574219</ele>
        <time>2013-07-24T09:15:39Z</time>
      </trkpt>
      <trkpt lat="44.97515" lon="6.58977">
        <ele>2417.31640625</ele>
        <time>2013-07-24T09:15:47Z</time>
      </trkpt>
      <trkpt lat="44.97515" lon="6.58977">
        <ele>2417.3608398438</ele>
        <time>2013-07-24T09:15:52Z</time>
      </trkpt>
      <trkpt lat="44.97514" lon="6.58978">
        <ele>2417.576171875</ele>
        <time>2013-07-24T09:15:57Z</time>
      </trkpt>
      <trkpt lat="44.97513" lon="6.5898">
        <ele>2417.6142578125</ele>
        <time>2013-07-24T09:16:10Z</time>
      </trkpt>
      <trkpt lat="44.97514" lon="6.58981">
        <ele>2417.9438476562</ele>
        <time>2013-07-24T09:16:22Z</time>
      </trkpt>
      <trkpt lat="44.97514" lon="6.58981">
        <ele>2417.982421875</ele>
        <time>2013-07-24T09:16:28Z</time>
      </trkpt>
      <trkpt lat="44.97518" lon="6.58977">
        <ele>2418.3500976562</ele>
        <time>2013-07-24T09:16:44Z</time>
      </trkpt>
      <trkpt lat="44.97524" lon="6.58967">
        <ele>2417.6643066406</ele>
        <time>2013-07-24T09:16:50Z</time>
      </trkpt>
      <trkpt lat="44.97536" lon="6.58951">
        <ele>2414.2272949219</ele>
        <time>2013-07-24T09:16:59Z</time>
      </trkpt>
      <trkpt lat="44.97552" lon="6.5895">
        <ele>2414.5568847656</ele>
        <time>2013-07-24T09:17:06Z</time>
      </trkpt>
      <trkpt lat="44.97567" lon="6.58948">
        <ele>2414.1179199219</ele>
        <time>2013-07-24T09:17:15Z</time>
      </trkpt>
      <trkpt lat="44.97576" lon="6.58946">
        <ele>2413.4587402344</ele>
        <time>2013-07-24T09:17:21Z</time>
      </trkpt>
      <trkpt lat="44.97593" lon="6.58946">
        <ele>2414.4399414062</ele>
        <time>2013-07-24T09:17:31Z</time>
      </trkpt>
      <trkpt lat="44.97605" lon="6.58953">
        <ele>2417.8044433594</ele>
        <time>2013-07-24T09:17:39Z</time>
      </trkpt>
      <trkpt lat="44.97613" lon="6.5896">
        <ele>2420.9724121094</ele>
        <time>2013-07-24T09:17:45Z</time>
      </trkpt>
      <trkpt lat="44.97626" lon="6.5896">
        <ele>2424.0793457031</ele>
        <time>2013-07-24T09:17:53Z</time>
      </trkpt>
      <trkpt lat="44.97639" lon="6.58958">
        <ele>2427.0126953125</ele>
        <time>2013-07-24T09:18:02Z</time>
      </trkpt>
      <trkpt lat="44.97651" lon="6.58958">
        <ele>2429.37109375</ele>
        <time>2013-07-24T09:18:10Z</time>
      </trkpt>
      <trkpt lat="44.97662" lon="6.58954">
        <ele>2430.8647460938</ele>
        <time>2013-07-24T09:18:17Z</time>
      </trkpt>
      <trkpt lat="44.97673" lon="6.58947">
        <ele>2431.3012695312</ele>
        <time>2013-07-24T09:18:25Z</time>
      </trkpt>
      <trkpt lat="44.97685" lon="6.58943">
        <ele>2431.5642089844</ele>
        <time>2013-07-24T09:18:33Z</time>
      </trkpt>
      <trkpt lat="44.97696" lon="6.58942">
        <ele>2432.7387695312</ele>
        <time>2013-07-24T09:18:41Z</time>
      </trkpt>
      <trkpt lat="44.97708" lon="6.58945">
        <ele>2435.4729003906</ele>
        <time>2013-07-24T09:18:49Z</time>
      </trkpt>
      <trkpt lat="44.97718" lon="6.58942">
        <ele>2436.6525878906</ele>
        <time>2013-07-24T09:18:57Z</time>
      </trkpt>
      <trkpt lat="44.97732" lon="6.58938">
        <ele>2436.5422363281</ele>
        <time>2013-07-24T09:19:07Z</time>
      </trkpt>
      <trkpt lat="44.97742" lon="6.58937">
        <ele>2436.3752441406</ele>
        <time>2013-07-24T09:19:14Z</time>
      </trkpt>
      <trkpt lat="44.97757" lon="6.58936">
        <ele>2437.3532714844</ele>
        <time>2013-07-24T09:19:24Z</time>
      </trkpt>
      <trkpt lat="44.97773" lon="6.58936">
        <ele>2439.8498535156</ele>
        <time>2013-07-24T09:19:34Z</time>
      </trkpt>
      <trkpt lat="44.97788" lon="6.58935">
        <ele>2441.7712402344</ele>
        <time>2013-07-24T09:19:43Z</time>
      </trkpt>
      <trkpt lat="44.97801" lon="6.58933">
        <ele>2442.7836914062</ele>
        <time>2013-07-24T09:19:51Z</time>
      </trkpt>
      <trkpt lat="44.97807" lon="6.58933">
        <ele>2443.6091308594</ele>
        <time>2013-07-24T09:19:56Z</time>
      </trkpt>
      <trkpt lat="44.97816" lon="6.58937">
        <ele>2444.7524414062</ele>
        <time>2013-07-24T09:20:03Z</time>
      </trkpt>
      <trkpt lat="44.9783" lon="6.58945">
        <ele>2447.0698242188</ele>
        <time>2013-07-24T09:20:14Z</time>
      </trkpt>
      <trkpt lat="44.97844" lon="6.5895">
        <ele>2448.5874023438</ele>
        <time>2013-07-24T09:20:23Z</time>
      </trkpt>
      <trkpt lat="44.97857" lon="6.58951">
        <ele>2449.1606445312</ele>
        <time>2013-07-24T09:20:31Z</time>
      </trkpt>
      <trkpt lat="44.9786" lon="6.58949">
        <ele>2449.0029296875</ele>
        <time>2013-07-24T09:20:33Z</time>
      </trkpt>
      <trkpt lat="44.97868" lon="6.58944">
        <ele>2448.2250976562</ele>
        <time>2013-07-24T09:20:39Z</time>
      </trkpt>
      <trkpt lat="44.97882" lon="6.58944">
        <ele>2448.5874023438</ele>
        <time>2013-07-24T09:20:48Z</time>
      </trkpt>
      <trkpt lat="44.97896" lon="6.58948">
        <ele>2449.8706054688</ele>
        <time>2013-07-24T09:20:56Z</time>
      </trkpt>
      <trkpt lat="44.97911" lon="6.58952">
        <ele>2451.1667480469</ele>
        <time>2013-07-24T09:21:06Z</time>
      </trkpt>
      <trkpt lat="44.97968" lon="6.58953">
        <ele>2454.3891601562</ele>
        <time>2013-07-24T09:21:14Z</time>
      </trkpt>
      <trkpt lat="44.98044" lon="6.58936">
        <ele>2458.0971679688</ele>
        <time>2013-07-24T09:21:19Z</time>
      </trkpt>
      <trkpt lat="44.98106" lon="6.58892">
        <ele>2462.5642089844</ele>
        <time>2013-07-24T09:21:20Z</time>
      </trkpt>
      <trkpt lat="44.98154" lon="6.58829">
        <ele>2470.5263671875</ele>
        <time>2013-07-24T09:21:20Z</time>
      </trkpt>
      <trkpt lat="44.98129" lon="6.58859">
        <ele>2463.7661132812</ele>
        <time>2013-07-24T09:21:20Z</time>
      </trkpt>
      <trkpt lat="44.98167" lon="6.58796">
        <ele>2472.6794433594</ele>
        <time>2013-07-24T09:21:20Z</time>
      </trkpt>
      <trkpt lat="44.98195" lon="6.5878">
        <ele>2483.8547363281</ele>
        <time>2013-07-24T09:21:20Z</time>
      </trkpt>
      <trkpt lat="44.98139" lon="6.58859">
        <ele>2469.4291992188</ele>
        <time>2013-07-24T09:21:20Z</time>
      </trkpt>
      <trkpt lat="44.98101" lon="6.58908">
        <ele>2468.3620605469</ele>
        <time>2013-07-24T09:21:20Z</time>
      </trkpt>
      <trkpt lat="44.97931" lon="6.58969">
        <ele>2454.8935546875</ele>
        <time>2013-07-24T09:21:22Z</time>
      </trkpt>
      <trkpt lat="44.97932" lon="6.58974">
        <ele>2455.9558105469</ele>
        <time>2013-07-24T09:21:26Z</time>
      </trkpt>
      <trkpt lat="44.9793" lon="6.5898">
        <ele>2457.2260742188</ele>
        <time>2013-07-24T09:21:30Z</time>
      </trkpt>
      <trkpt lat="44.9792" lon="6.58989">
        <ele>2458.2758789062</ele>
        <time>2013-07-24T09:21:39Z</time>
      </trkpt>
      <trkpt lat="44.97929" lon="6.58981">
        <ele>2457.251953125</ele>
        <time>2013-07-24T09:21:46Z</time>
      </trkpt>
      <trkpt lat="44.97897" lon="6.58987">
        <ele>2457.2685546875</ele>
        <time>2013-07-24T09:21:53Z</time>
      </trkpt>
      <trkpt lat="44.97885" lon="6.58983">
        <ele>2456.2749023438</ele>
        <time>2013-07-24T09:22:00Z</time>
      </trkpt>
      <trkpt lat="44.97871" lon="6.58984">
        <ele>2456.4807128906</ele>
        <time>2013-07-24T09:22:08Z</time>
      </trkpt>
      <trkpt lat="44.97855" lon="6.58985">
        <ele>2456.5622558594</ele>
        <time>2013-07-24T09:22:16Z</time>
      </trkpt>
      <trkpt lat="44.9784" lon="6.58981">
        <ele>2455.4089355469</ele>
        <time>2013-07-24T09:22:23Z</time>
      </trkpt>
      <trkpt lat="44.97822" lon="6.58984">
        <ele>2455.9304199219</ele>
        <time>2013-07-24T09:22:31Z</time>
      </trkpt>
      <trkpt lat="44.97799" lon="6.58989">
        <ele>2457.31640625</ele>
        <time>2013-07-24T09:22:41Z</time>
      </trkpt>
      <trkpt lat="44.97783" lon="6.58991">
        <ele>2458.0151367188</ele>
        <time>2013-07-24T09:22:49Z</time>
      </trkpt>
      <trkpt lat="44.97771" lon="6.58994">
        <ele>2459.0141601562</ele>
        <time>2013-07-24T09:22:56Z</time>
      </trkpt>
      <trkpt lat="44.97755" lon="6.58999">
        <ele>2461.3054199219</ele>
        <time>2013-07-24T09:23:03Z</time>
      </trkpt>
      <trkpt lat="44.97731" lon="6.59004">
        <ele>2460.9392089844</ele>
        <time>2013-07-24T09:23:13Z</time>
      </trkpt>
      <trkpt lat="44.97717" lon="6.59016">
        <ele>2461.1879882812</ele>
        <time>2013-07-24T09:23:20Z</time>
      </trkpt>
      <trkpt lat="44.97699" lon="6.59044">
        <ele>2464.2180175781</ele>
        <time>2013-07-24T09:23:29Z</time>
      </trkpt>
      <trkpt lat="44.97682" lon="6.59069">
        <ele>2466.2431640625</ele>
        <time>2013-07-24T09:23:37Z</time>
      </trkpt>
      <trkpt lat="44.97667" lon="6.59085">
        <ele>2466.7646484375</ele>
        <time>2013-07-24T09:23:44Z</time>
      </trkpt>
      <trkpt lat="44.97652" lon="6.59099">
        <ele>2466.6628417969</ele>
        <time>2013-07-24T09:23:50Z</time>
      </trkpt>
      <trkpt lat="44.9764" lon="6.59118">
        <ele>2467.9599609375</ele>
        <time>2013-07-24T09:23:56Z</time>
      </trkpt>
      <trkpt lat="44.9763" lon="6.59133">
        <ele>2468.3569335938</ele>
        <time>2013-07-24T09:24:01Z</time>
      </trkpt>
      <trkpt lat="44.97613" lon="6.5914">
        <ele>2463.9543457031</ele>
        <time>2013-07-24T09:24:07Z</time>
      </trkpt>
      <trkpt lat="44.97587" lon="6.59143">
        <ele>2463.1840820312</ele>
        <time>2013-07-24T09:24:16Z</time>
      </trkpt>
      <trkpt lat="44.97569" lon="6.59147">
        <ele>2462.9343261719</ele>
        <time>2013-07-24T09:24:23Z</time>
      </trkpt>
      <trkpt lat="44.97554" lon="6.59163">
        <ele>2464.9060058594</ele>
        <time>2013-07-24T09:24:30Z</time>
      </trkpt>
      <trkpt lat="44.97539" lon="6.59181">
        <ele>2465.8212890625</ele>
        <time>2013-07-24T09:24:37Z</time>
      </trkpt>
      <trkpt lat="44.97518" lon="6.59198">
        <ele>2464.6745605469</ele>
        <time>2013-07-24T09:24:46Z</time>
      </trkpt>
      <trkpt lat="44.97508" lon="6.59216">
        <ele>2465.9123535156</ele>
        <time>2013-07-24T09:24:52Z</time>
      </trkpt>
      <trkpt lat="44.97501" lon="6.59239">
        <ele>2468.2263183594</ele>
        <time>2013-07-24T09:24:59Z</time>
      </trkpt>
      <trkpt lat="44.97492" lon="6.59259">
        <ele>2468.5915527344</ele>
        <time>2013-07-24T09:25:06Z</time>
      </trkpt>
      <trkpt lat="44.97492" lon="6.59278">
        <ele>2471.9985351562</ele>
        <time>2013-07-24T09:25:11Z</time>
      </trkpt>
      <trkpt lat="44.97492" lon="6.593">
        <ele>2475.5148925781</ele>
        <time>2013-07-24T09:25:17Z</time>
      </trkpt>
      <trkpt lat="44.97485" lon="6.59331">
        <ele>2476.6396484375</ele>
        <time>2013-07-24T09:25:25Z</time>
      </trkpt>
      <trkpt lat="44.97478" lon="6.59366">
        <ele>2477.6735839844</ele>
        <time>2013-07-24T09:25:34Z</time>
      </trkpt>
      <trkpt lat="44.97471" lon="6.59399">
        <ele>2478.7253417969</ele>
        <time>2013-07-24T09:25:42Z</time>
      </trkpt>
      <trkpt lat="44.97462" lon="6.59438">
        <ele>2476.3371582031</ele>
        <time>2013-07-24T09:25:52Z</time>
      </trkpt>
      <trkpt lat="44.97454" lon="6.59478">
        <ele>2476.6560058594</ele>
        <time>2013-07-24T09:26:02Z</time>
      </trkpt>
      <trkpt lat="44.97445" lon="6.59505">
        <ele>2475.705078125</ele>
        <time>2013-07-24T09:26:09Z</time>
      </trkpt>
      <trkpt lat="44.97432" lon="6.59535">
        <ele>2470.4670410156</ele>
        <time>2013-07-24T09:26:17Z</time>
      </trkpt>
      <trkpt lat="44.97419" lon="6.59558">
        <ele>2466.5783691406</ele>
        <time>2013-07-24T09:26:25Z</time>
      </trkpt>
      <trkpt lat="44.97416" lon="6.59577">
        <ele>2467.9587402344</ele>
        <time>2013-07-24T09:26:31Z</time>
      </trkpt>
      <trkpt lat="44.97421" lon="6.59599">
        <ele>2472.4443359375</ele>
        <time>2013-07-24T09:26:39Z</time>
      </trkpt>
      <trkpt lat="44.97424" lon="6.59615">
        <ele>2475.4069824219</ele>
        <time>2013-07-24T09:26:45Z</time>
      </trkpt>
      <trkpt lat="44.97429" lon="6.59642">
        <ele>2480.9177246094</ele>
        <time>2013-07-24T09:26:55Z</time>
      </trkpt>
      <trkpt lat="44.97434" lon="6.59666">
        <ele>2485.7580566406</ele>
        <time>2013-07-24T09:27:04Z</time>
      </trkpt>
      <trkpt lat="44.9744" lon="6.5969">
        <ele>2490.2927246094</ele>
        <time>2013-07-24T09:27:12Z</time>
      </trkpt>
      <trkpt lat="44.97443" lon="6.59708">
        <ele>2493.8046875</ele>
        <time>2013-07-24T09:27:19Z</time>
      </trkpt>
      <trkpt lat="44.97438" lon="6.59734">
        <ele>2494.0966796875</ele>
        <time>2013-07-24T09:27:27Z</time>
      </trkpt>
      <trkpt lat="44.97431" lon="6.59754">
        <ele>2493.1220703125</ele>
        <time>2013-07-24T09:27:34Z</time>
      </trkpt>
      <trkpt lat="44.97424" lon="6.59779">
        <ele>2492.7299804688</ele>
        <time>2013-07-24T09:27:43Z</time>
      </trkpt>
      <trkpt lat="44.97422" lon="6.59802">
        <ele>2494.2482910156</ele>
        <time>2013-07-24T09:35:22Z</time>
      </trkpt>
      <trkpt lat="44.97424" lon="6.59803">
        <ele>2495.0849609375</ele>
        <time>2013-07-24T09:35:28Z</time>
      </trkpt>
      <trkpt lat="44.97423" lon="6.59812">
        <ele>2495.6550292969</ele>
        <time>2013-07-24T09:35:32Z</time>
      </trkpt>
      <trkpt lat="44.97421" lon="6.59815">
        <ele>2495.4123535156</ele>
        <time>2013-07-24T09:35:41Z</time>
      </trkpt>
      <trkpt lat="44.97407" lon="6.59819">
        <ele>2491.6005859375</ele>
        <time>2013-07-24T09:35:44Z</time>
      </trkpt>
      <trkpt lat="44.97424" lon="6.59813">
        <ele>2496.1782226562</ele>
        <time>2013-07-24T09:35:47Z</time>
      </trkpt>
      <trkpt lat="44.97444" lon="6.59798">
        <ele>2501.2385253906</ele>
        <time>2013-07-24T09:35:53Z</time>
      </trkpt>
      <trkpt lat="44.97448" lon="6.59787">
        <ele>2501.6535644531</ele>
        <time>2013-07-24T09:35:58Z</time>
      </trkpt>
      <trkpt lat="44.97457" lon="6.59762">
        <ele>2502.9951171875</ele>
        <time>2013-07-24T09:36:04Z</time>
      </trkpt>
      <trkpt lat="44.9747" lon="6.59726">
        <ele>2503.8090820312</ele>
        <time>2013-07-24T09:36:06Z</time>
      </trkpt>
      <trkpt lat="44.97482" lon="6.59691">
        <ele>2503.4106445312</ele>
        <time>2013-07-24T09:36:06Z</time>
      </trkpt>
      <trkpt lat="44.9749" lon="6.59664">
        <ele>2503.7780761719</ele>
        <time>2013-07-24T09:36:07Z</time>
      </trkpt>
      <trkpt lat="44.97485" lon="6.59645">
        <ele>2499.9916992188</ele>
        <time>2013-07-24T09:36:07Z</time>
      </trkpt>
      <trkpt lat="44.97485" lon="6.59631">
        <ele>2498.7041015625</ele>
        <time>2013-07-24T09:36:07Z</time>
      </trkpt>
      <trkpt lat="44.97491" lon="6.59619">
        <ele>2499.7890625</ele>
        <time>2013-07-24T09:36:07Z</time>
      </trkpt>
      <trkpt lat="44.97496" lon="6.59618">
        <ele>2501.4567871094</ele>
        <time>2013-07-24T09:36:07Z</time>
      </trkpt>
      <trkpt lat="44.97517" lon="6.59596">
        <ele>2510.5651855469</ele>
        <time>2013-07-24T09:36:07Z</time>
      </trkpt>
      <trkpt lat="44.97496" lon="6.59617">
        <ele>2501.392578125</ele>
        <time>2013-07-24T09:36:07Z</time>
      </trkpt>
      <trkpt lat="44.97506" lon="6.5963">
        <ele>2505.5834960938</ele>
        <time>2013-07-24T09:36:07Z</time>
      </trkpt>
      <trkpt lat="44.975" lon="6.59661">
        <ele>2506.4213867188</ele>
        <time>2013-07-24T09:36:07Z</time>
      </trkpt>
      <trkpt lat="44.975" lon="6.5969">
        <ele>2508.6564941406</ele>
        <time>2013-07-24T09:36:07Z</time>
      </trkpt>
      <trkpt lat="44.975" lon="6.59723">
        <ele>2512.1994628906</ele>
        <time>2013-07-24T09:36:07Z</time>
      </trkpt>
      <trkpt lat="44.97494" lon="6.5976">
        <ele>2514.0322265625</ele>
        <time>2013-07-24T09:36:07Z</time>
      </trkpt>
      <trkpt lat="44.9748" lon="6.59788">
        <ele>2512.1352539062</ele>
        <time>2013-07-24T09:36:07Z</time>
      </trkpt>
      <trkpt lat="44.97471" lon="6.59823">
        <ele>2511.939453125</ele>
        <time>2013-07-24T09:36:07Z</time>
      </trkpt>
      <trkpt lat="44.97449" lon="6.59857">
        <ele>2509.9792480469</ele>
        <time>2013-07-24T09:36:07Z</time>
      </trkpt>
      <trkpt lat="44.97431" lon="6.59881">
        <ele>2509.6481933594</ele>
        <time>2013-07-24T09:36:07Z</time>
      </trkpt>
      <trkpt lat="44.9741" lon="6.599">
        <ele>2510.0932617188</ele>
        <time>2013-07-24T09:36:07Z</time>
      </trkpt>
      <trkpt lat="44.97379" lon="6.59909">
        <ele>2507.2331542969</ele>
        <time>2013-07-24T09:36:07Z</time>
      </trkpt>
      <trkpt lat="44.97354" lon="6.59932">
        <ele>2512.31640625</ele>
        <time>2013-07-24T09:36:08Z</time>
      </trkpt>
      <trkpt lat="44.97343" lon="6.59976">
        <ele>2522.3605957031</ele>
        <time>2013-07-24T09:36:08Z</time>
      </trkpt>
      <trkpt lat="44.97379" lon="6.59982">
        <ele>2529.2294921875</ele>
        <time>2013-07-24T09:36:08Z</time>
      </trkpt>
      <trkpt lat="44.9734" lon="6.5998">
        <ele>2522.564453125</ele>
        <time>2013-07-24T09:36:08Z</time>
      </trkpt>
      <trkpt lat="44.97294" lon="6.59967">
        <ele>2506.5236816406</ele>
        <time>2013-07-24T09:36:09Z</time>
      </trkpt>
      <trkpt lat="44.97248" lon="6.59963">
        <ele>2505.1748046875</ele>
        <time>2013-07-24T09:36:16Z</time>
      </trkpt>
      <trkpt lat="44.97201" lon="6.59945">
        <ele>2495.3176269531</ele>
        <time>2013-07-24T09:36:22Z</time>
      </trkpt>
      <trkpt lat="44.9717" lon="6.59947">
        <ele>2496.0595703125</ele>
        <time>2013-07-24T09:36:26Z</time>
      </trkpt>
      <trkpt lat="44.97123" lon="6.59951">
        <ele>2496.4587402344</ele>
        <time>2013-07-24T09:36:27Z</time>
      </trkpt>
      <trkpt lat="44.97097" lon="6.59963">
        <ele>2500.2263183594</ele>
        <time>2013-07-24T09:36:28Z</time>
      </trkpt>
      <trkpt lat="44.97066" lon="6.5998">
        <ele>2500.6552734375</ele>
        <time>2013-07-24T09:36:32Z</time>
      </trkpt>
      <trkpt lat="44.97063" lon="6.60012">
        <ele>2504.3872070312</ele>
        <time>2013-07-24T09:36:35Z</time>
      </trkpt>
      <trkpt lat="44.9705" lon="6.60026">
        <ele>2501.7919921875</ele>
        <time>2013-07-24T09:36:37Z</time>
      </trkpt>
      <trkpt lat="44.97029" lon="6.60026">
        <ele>2498.1862792969</ele>
        <time>2013-07-24T09:36:38Z</time>
      </trkpt>
      <trkpt lat="44.97015" lon="6.6005">
        <ele>2497.2507324219</ele>
        <time>2013-07-24T09:36:43Z</time>
      </trkpt>
      <trkpt lat="44.97023" lon="6.60082">
        <ele>2502.3833007812</ele>
        <time>2013-07-24T09:36:49Z</time>
      </trkpt>
      <trkpt lat="44.96999" lon="6.60094">
        <ele>2495.7807617188</ele>
        <time>2013-07-24T09:36:54Z</time>
      </trkpt>
      <trkpt lat="44.96982" lon="6.60126">
        <ele>2493.8095703125</ele>
        <time>2013-07-24T09:36:57Z</time>
      </trkpt>
      <trkpt lat="44.96968" lon="6.60148">
        <ele>2492.7429199219</ele>
        <time>2013-07-24T09:37:01Z</time>
      </trkpt>
      <trkpt lat="44.96941" lon="6.60146">
        <ele>2486.9614257812</ele>
        <time>2013-07-24T09:37:04Z</time>
      </trkpt>
      <trkpt lat="44.96922" lon="6.60163">
        <ele>2485.8515625</ele>
        <time>2013-07-24T09:37:09Z</time>
      </trkpt>
      <trkpt lat="44.96905" lon="6.60187">
        <ele>2486.5908203125</ele>
        <time>2013-07-24T09:37:10Z</time>
      </trkpt>
      <trkpt lat="44.96891" lon="6.6022">
        <ele>2486.9260253906</ele>
        <time>2013-07-24T09:37:15Z</time>
      </trkpt>
      <trkpt lat="44.96882" lon="6.6025">
        <ele>2486.7009277344</ele>
        <time>2013-07-24T09:37:20Z</time>
      </trkpt>
      <trkpt lat="44.96867" lon="6.60298">
        <ele>2484.96875</ele>
        <time>2013-07-24T09:37:24Z</time>
      </trkpt>
      <trkpt lat="44.96856" lon="6.60328">
        <ele>2483.9943847656</ele>
        <time>2013-07-24T09:37:25Z</time>
      </trkpt>
      <trkpt lat="44.96839" lon="6.60342">
        <ele>2478.3244628906</ele>
        <time>2013-07-24T09:37:27Z</time>
      </trkpt>
      <trkpt lat="44.9682" lon="6.6038">
        <ele>2476.1274414062</ele>
        <time>2013-07-24T09:37:45Z</time>
      </trkpt>
      <trkpt lat="44.96801" lon="6.60406">
        <ele>2473.2348632812</ele>
        <time>2013-07-24T09:37:50Z</time>
      </trkpt>
      <trkpt lat="44.96781" lon="6.60448">
        <ele>2469.9001464844</ele>
        <time>2013-07-24T09:37:53Z</time>
      </trkpt>
      <trkpt lat="44.96773" lon="6.60474">
        <ele>2468.3166503906</ele>
        <time>2013-07-24T09:37:58Z</time>
      </trkpt>
      <trkpt lat="44.96766" lon="6.60486">
        <ele>2464.7048339844</ele>
        <time>2013-07-24T09:38:05Z</time>
      </trkpt>
      <trkpt lat="44.96743" lon="6.60528">
        <ele>2456.9577636719</ele>
        <time>2013-07-24T09:38:07Z</time>
      </trkpt>
      <trkpt lat="44.96727" lon="6.60547">
        <ele>2451.2907714844</ele>
        <time>2013-07-24T09:38:10Z</time>
      </trkpt>
      <trkpt lat="44.96714" lon="6.60566">
        <ele>2449.1059570312</ele>
        <time>2013-07-24T09:38:12Z</time>
      </trkpt>
      <trkpt lat="44.96696" lon="6.60584">
        <ele>2448.1691894531</ele>
        <time>2013-07-24T09:38:17Z</time>
      </trkpt>
      <trkpt lat="44.96669" lon="6.60591">
        <ele>2443.3559570312</ele>
        <time>2013-07-24T09:38:19Z</time>
      </trkpt>
      <trkpt lat="44.96658" lon="6.60609">
        <ele>2445.1677246094</ele>
        <time>2013-07-24T09:38:23Z</time>
      </trkpt>
      <trkpt lat="44.96649" lon="6.60641">
        <ele>2447.0793457031</ele>
        <time>2013-07-24T09:38:26Z</time>
      </trkpt>
      <trkpt lat="44.9664" lon="6.60669">
        <ele>2450</ele>
        <time>2013-07-24T09:38:30Z</time>
      </trkpt>
      <trkpt lat="44.96611" lon="6.607">
        <ele>2445.1826171875</ele>
        <time>2013-07-24T09:38:31Z</time>
      </trkpt>
      <trkpt lat="44.96581" lon="6.60719">
        <ele>2442.466796875</ele>
        <time>2013-07-24T09:38:37Z</time>
      </trkpt>
      <trkpt lat="44.96563" lon="6.60724">
        <ele>2440.9997558594</ele>
        <time>2013-07-24T09:38:45Z</time>
      </trkpt>
      <trkpt lat="44.96555" lon="6.60725">
        <ele>2440.1530761719</ele>
        <time>2013-07-24T09:38:49Z</time>
      </trkpt>
      <trkpt lat="44.96545" lon="6.60725">
        <ele>2439.0886230469</ele>
        <time>2013-07-24T09:38:56Z</time>
      </trkpt>
      <trkpt lat="44.96534" lon="6.60725">
        <ele>2437.8903808594</ele>
        <time>2013-07-24T09:39:03Z</time>
      </trkpt>
      <trkpt lat="44.96521" lon="6.60724">
        <ele>2435.0361328125</ele>
        <time>2013-07-24T09:39:10Z</time>
      </trkpt>
      <trkpt lat="44.96508" lon="6.60731">
        <ele>2431.4880371094</ele>
        <time>2013-07-24T09:39:12Z</time>
      </trkpt>
      <trkpt lat="44.96498" lon="6.60744">
        <ele>2429.9401855469</ele>
        <time>2013-07-24T09:39:13Z</time>
      </trkpt>
      <trkpt lat="44.96487" lon="6.60752">
        <ele>2428.1315917969</ele>
        <time>2013-07-24T09:39:14Z</time>
      </trkpt>
      <trkpt lat="44.96477" lon="6.60772">
        <ele>2428.0544433594</ele>
        <time>2013-07-24T09:39:15Z</time>
      </trkpt>
      <trkpt lat="44.96469" lon="6.60785">
        <ele>2426.2114257812</ele>
        <time>2013-07-24T09:39:18Z</time>
      </trkpt>
      <trkpt lat="44.96458" lon="6.60799">
        <ele>2422.927734375</ele>
        <time>2013-07-24T09:39:23Z</time>
      </trkpt>
      <trkpt lat="44.96445" lon="6.60806">
        <ele>2418.2607421875</ele>
        <time>2013-07-24T09:39:32Z</time>
      </trkpt>
      <trkpt lat="44.96428" lon="6.60823">
        <ele>2416.8820800781</ele>
        <time>2013-07-24T09:39:34Z</time>
      </trkpt>
      <trkpt lat="44.96419" lon="6.60828">
        <ele>2415.7421875</ele>
        <time>2013-07-24T09:39:38Z</time>
      </trkpt>
      <trkpt lat="44.96423" lon="6.60872">
        <ele>2420.529296875</ele>
        <time>2013-07-24T09:39:43Z</time>
      </trkpt>
      <trkpt lat="44.96423" lon="6.60896">
        <ele>2418.1813964844</ele>
        <time>2013-07-24T09:39:46Z</time>
      </trkpt>
      <trkpt lat="44.96415" lon="6.60909">
        <ele>2413.5124511719</ele>
        <time>2013-07-24T09:39:53Z</time>
      </trkpt>
      <trkpt lat="44.96402" lon="6.60923">
        <ele>2409.9194335938</ele>
        <time>2013-07-24T09:39:57Z</time>
      </trkpt>
      <trkpt lat="44.96405" lon="6.60919">
        <ele>2410.81640625</ele>
        <time>2013-07-24T09:40:01Z</time>
      </trkpt>
      <trkpt lat="44.96406" lon="6.60909">
        <ele>2411.6669921875</ele>
        <time>2013-07-24T09:40:11Z</time>
      </trkpt>
      <trkpt lat="44.96397" lon="6.6093">
        <ele>2408.74609375</ele>
        <time>2013-07-24T09:40:15Z</time>
      </trkpt>
      <trkpt lat="44.96384" lon="6.6096">
        <ele>2406.5185546875</ele>
        <time>2013-07-24T09:40:21Z</time>
      </trkpt>
      <trkpt lat="44.9636" lon="6.6099">
        <ele>2405.7314453125</ele>
        <time>2013-07-24T09:40:28Z</time>
      </trkpt>
      <trkpt lat="44.96347" lon="6.61003">
        <ele>2405.216796875</ele>
        <time>2013-07-24T09:40:33Z</time>
      </trkpt>
      <trkpt lat="44.96335" lon="6.61012">
        <ele>2404.5817871094</ele>
        <time>2013-07-24T09:40:38Z</time>
      </trkpt>
      <trkpt lat="44.96318" lon="6.61015">
        <ele>2403.1701660156</ele>
        <time>2013-07-24T09:40:44Z</time>
      </trkpt>
      <trkpt lat="44.96312" lon="6.6104">
        <ele>2405.7214355469</ele>
        <time>2013-07-24T09:40:51Z</time>
      </trkpt>
      <trkpt lat="44.96302" lon="6.61052">
        <ele>2406.5170898438</ele>
        <time>2013-07-24T09:40:58Z</time>
      </trkpt>
      <trkpt lat="44.963" lon="6.61059">
        <ele>2407.25</ele>
        <time>2013-07-24T09:41:01Z</time>
      </trkpt>
      <trkpt lat="44.96301" lon="6.61065">
        <ele>2408.109375</ele>
        <time>2013-07-24T09:41:04Z</time>
      </trkpt>
      <trkpt lat="44.96301" lon="6.61068">
        <ele>2408.4645996094</ele>
        <time>2013-07-24T09:41:06Z</time>
      </trkpt>
      <trkpt lat="44.9629" lon="6.61075">
        <ele>2408.8986816406</ele>
        <time>2013-07-24T09:41:13Z</time>
      </trkpt>
      <trkpt lat="44.9628" lon="6.61088">
        <ele>2408.8041992188</ele>
        <time>2013-07-24T09:41:18Z</time>
      </trkpt>
      <trkpt lat="44.96281" lon="6.61102">
        <ele>2407.8876953125</ele>
        <time>2013-07-24T09:41:22Z</time>
      </trkpt>
      <trkpt lat="44.96279" lon="6.6111">
        <ele>2407.1528320312</ele>
        <time>2013-07-24T09:41:25Z</time>
      </trkpt>
      <trkpt lat="44.9627" lon="6.61113">
        <ele>2406.0173339844</ele>
        <time>2013-07-24T09:41:30Z</time>
      </trkpt>
      <trkpt lat="44.96262" lon="6.61112">
        <ele>2404.853515625</ele>
        <time>2013-07-24T09:41:35Z</time>
      </trkpt>
      <trkpt lat="44.96253" lon="6.61112">
        <ele>2403.6306152344</ele>
        <time>2013-07-24T09:41:41Z</time>
      </trkpt>
      <trkpt lat="44.96246" lon="6.61121">
        <ele>2406.0974121094</ele>
        <time>2013-07-24T09:41:48Z</time>
      </trkpt>
      <trkpt lat="44.96243" lon="6.61124">
        <ele>2407.3337402344</ele>
        <time>2013-07-24T09:41:51Z</time>
      </trkpt>
      <trkpt lat="44.96236" lon="6.61131">
        <ele>2409.1857910156</ele>
        <time>2013-07-24T09:41:58Z</time>
      </trkpt>
      <trkpt lat="44.96233" lon="6.61131">
        <ele>2409.5473632812</ele>
        <time>2013-07-24T09:42:01Z</time>
      </trkpt>
      <trkpt lat="44.96228" lon="6.61128">
        <ele>2409.6633300781</ele>
        <time>2013-07-24T09:42:07Z</time>
      </trkpt>
      <trkpt lat="44.96225" lon="6.61129">
        <ele>2410.0629882812</ele>
        <time>2013-07-24T09:42:17Z</time>
      </trkpt>
      <trkpt lat="44.96223" lon="6.6113">
        <ele>2410.20703125</ele>
        <time>2013-07-24T09:42:18Z</time>
      </trkpt>
      <trkpt lat="44.96217" lon="6.61143">
        <ele>2411.048828125</ele>
        <time>2013-07-24T09:42:24Z</time>
      </trkpt>
      <trkpt lat="44.96217" lon="6.61146">
        <ele>2411.2490234375</ele>
        <time>2013-07-24T09:42:25Z</time>
      </trkpt>
      <trkpt lat="44.96212" lon="6.61164">
        <ele>2412.0952148438</ele>
        <time>2013-07-24T09:42:30Z</time>
      </trkpt>
      <trkpt lat="44.96202" lon="6.6119">
        <ele>2411.7453613281</ele>
        <time>2013-07-24T09:42:36Z</time>
      </trkpt>
      <trkpt lat="44.96196" lon="6.61205">
        <ele>2411.1560058594</ele>
        <time>2013-07-24T09:42:41Z</time>
      </trkpt>
      <trkpt lat="44.96192" lon="6.61217">
        <ele>2411</ele>
        <time>2013-07-24T09:42:46Z</time>
      </trkpt>
      <trkpt lat="44.96185" lon="6.61229">
        <ele>2411.1479492188</ele>
        <time>2013-07-24T09:42:50Z</time>
      </trkpt>
      <trkpt lat="44.96176" lon="6.61238">
        <ele>2411.1821289062</ele>
        <time>2013-07-24T09:42:55Z</time>
      </trkpt>
      <trkpt lat="44.96166" lon="6.61246">
        <ele>2410.99609375</ele>
        <time>2013-07-24T09:42:59Z</time>
      </trkpt>
      <trkpt lat="44.96148" lon="6.61249">
        <ele>2410.9714355469</ele>
        <time>2013-07-24T09:43:04Z</time>
      </trkpt>
      <trkpt lat="44.96131" lon="6.61242">
        <ele>2410.1997070312</ele>
        <time>2013-07-24T09:43:10Z</time>
      </trkpt>
      <trkpt lat="44.96122" lon="6.61241">
        <ele>2409.6599121094</ele>
        <time>2013-07-24T09:43:13Z</time>
      </trkpt>
      <trkpt lat="44.96116" lon="6.61258">
        <ele>2409.3200683594</ele>
        <time>2013-07-24T09:43:17Z</time>
      </trkpt>
      <trkpt lat="44.96112" lon="6.61268">
        <ele>2409.0278320312</ele>
        <time>2013-07-24T09:43:20Z</time>
      </trkpt>
      <trkpt lat="44.96105" lon="6.61282">
        <ele>2407.2590332031</ele>
        <time>2013-07-24T09:43:27Z</time>
      </trkpt>
      <trkpt lat="44.96097" lon="6.61296">
        <ele>2405.6496582031</ele>
        <time>2013-07-24T09:43:32Z</time>
      </trkpt>
      <trkpt lat="44.96092" lon="6.61313">
        <ele>2405.2126464844</ele>
        <time>2013-07-24T09:44:29Z</time>
      </trkpt>
      <trkpt lat="44.96089" lon="6.61329">
        <ele>2405.5717773438</ele>
        <time>2013-07-24T09:53:25Z</time>
      </trkpt>
      <trkpt lat="44.96086" lon="6.61336">
        <ele>2405.5229492188</ele>
        <time>2013-07-24T09:57:12Z</time>
      </trkpt>
      <trkpt lat="44.96087" lon="6.61338">
        <ele>2405.76953125</ele>
        <time>2013-07-24T09:57:44Z</time>
      </trkpt>
      <trkpt lat="44.96081" lon="6.61347">
        <ele>2405.802734375</ele>
        <time>2013-07-24T09:58:42Z</time>
      </trkpt>
      <trkpt lat="44.96069" lon="6.61362">
        <ele>2406.0458984375</ele>
        <time>2013-07-24T09:58:52Z</time>
      </trkpt>
      <trkpt lat="44.96063" lon="6.61372">
        <ele>2406.4777832031</ele>
        <time>2013-07-24T09:58:58Z</time>
      </trkpt>
      <trkpt lat="44.96056" lon="6.61377">
        <ele>2406.7158203125</ele>
        <time>2013-07-24T09:59:04Z</time>
      </trkpt>
      <trkpt lat="44.96051" lon="6.61388">
        <ele>2408.73828125</ele>
        <time>2013-07-24T09:59:12Z</time>
      </trkpt>
      <trkpt lat="44.9605" lon="6.61389">
        <ele>2408.99609375</ele>
        <time>2013-07-24T09:59:13Z</time>
      </trkpt>
      <trkpt lat="44.9604" lon="6.61392">
        <ele>2411.2966308594</ele>
        <time>2013-07-24T09:59:22Z</time>
      </trkpt>
      <trkpt lat="44.96037" lon="6.61394">
        <ele>2412.1408691406</ele>
        <time>2013-07-24T09:59:25Z</time>
      </trkpt>
      <trkpt lat="44.96026" lon="6.61396">
        <ele>2413.9201660156</ele>
        <time>2013-07-24T09:59:34Z</time>
      </trkpt>
      <trkpt lat="44.96016" lon="6.61396">
        <ele>2414.6875</ele>
        <time>2013-07-24T09:59:43Z</time>
      </trkpt>
      <trkpt lat="44.96005" lon="6.61401">
        <ele>2415.8820800781</ele>
        <time>2013-07-24T09:59:52Z</time>
      </trkpt>
      <trkpt lat="44.95999" lon="6.61408">
        <ele>2417.1569824219</ele>
        <time>2013-07-24T09:59:59Z</time>
      </trkpt>
      <trkpt lat="44.9599" lon="6.61416">
        <ele>2418.6423339844</ele>
        <time>2013-07-24T10:00:08Z</time>
      </trkpt>
      <trkpt lat="44.95984" lon="6.61428">
        <ele>2420.6384277344</ele>
        <time>2013-07-24T10:00:15Z</time>
      </trkpt>
      <trkpt lat="44.95976" lon="6.61442">
        <ele>2422.0583496094</ele>
        <time>2013-07-24T10:00:23Z</time>
      </trkpt>
      <trkpt lat="44.95975" lon="6.61449">
        <ele>2422.7456054688</ele>
        <time>2013-07-24T10:00:26Z</time>
      </trkpt>
      <trkpt lat="44.95971" lon="6.61458">
        <ele>2423.3559570312</ele>
        <time>2013-07-24T10:00:30Z</time>
      </trkpt>
      <trkpt lat="44.95962" lon="6.61475">
        <ele>2422.6635742188</ele>
        <time>2013-07-24T10:00:37Z</time>
      </trkpt>
      <trkpt lat="44.95956" lon="6.61493">
        <ele>2420.2189941406</ele>
        <time>2013-07-24T10:00:42Z</time>
      </trkpt>
      <trkpt lat="44.95947" lon="6.61521">
        <ele>2416.1059570312</ele>
        <time>2013-07-24T10:00:48Z</time>
      </trkpt>
      <trkpt lat="44.95937" lon="6.61541">
        <ele>2411.8747558594</ele>
        <time>2013-07-24T10:00:54Z</time>
      </trkpt>
      <trkpt lat="44.95932" lon="6.61568">
        <ele>2408.5024414062</ele>
        <time>2013-07-24T10:00:59Z</time>
      </trkpt>
      <trkpt lat="44.95929" lon="6.61594">
        <ele>2406.0900878906</ele>
        <time>2013-07-24T10:01:04Z</time>
      </trkpt>
      <trkpt lat="44.95924" lon="6.61612">
        <ele>2404.2443847656</ele>
        <time>2013-07-24T10:01:09Z</time>
      </trkpt>
      <trkpt lat="44.9593" lon="6.61632">
        <ele>2402.4599609375</ele>
        <time>2013-07-24T10:01:15Z</time>
      </trkpt>
      <trkpt lat="44.9594" lon="6.61661">
        <ele>2399.3098144531</ele>
        <time>2013-07-24T10:01:21Z</time>
      </trkpt>
      <trkpt lat="44.95948" lon="6.61687">
        <ele>2397.38671875</ele>
        <time>2013-07-24T10:01:27Z</time>
      </trkpt>
      <trkpt lat="44.95957" lon="6.61715">
        <ele>2395.814453125</ele>
        <time>2013-07-24T10:01:34Z</time>
      </trkpt>
      <trkpt lat="44.95962" lon="6.61736">
        <ele>2395.1550292969</ele>
        <time>2013-07-24T10:01:39Z</time>
      </trkpt>
      <trkpt lat="44.95964" lon="6.61756">
        <ele>2393.630859375</ele>
        <time>2013-07-24T10:01:44Z</time>
      </trkpt>
      <trkpt lat="44.95967" lon="6.61779">
        <ele>2391.568359375</ele>
        <time>2013-07-24T10:01:50Z</time>
      </trkpt>
      <trkpt lat="44.95971" lon="6.61798">
        <ele>2389.0651855469</ele>
        <time>2013-07-24T10:01:56Z</time>
      </trkpt>
      <trkpt lat="44.95967" lon="6.61811">
        <ele>2386.0593261719</ele>
        <time>2013-07-24T10:02:01Z</time>
      </trkpt>
      <trkpt lat="44.95959" lon="6.61826">
        <ele>2382.3720703125</ele>
        <time>2013-07-24T10:02:06Z</time>
      </trkpt>
      <trkpt lat="44.9595" lon="6.61846">
        <ele>2377.8352050781</ele>
        <time>2013-07-24T10:02:12Z</time>
      </trkpt>
      <trkpt lat="44.95944" lon="6.6186">
        <ele>2375.0998535156</ele>
        <time>2013-07-24T10:02:16Z</time>
      </trkpt>
      <trkpt lat="44.95938" lon="6.61888">
        <ele>2373.8598632812</ele>
        <time>2013-07-24T10:02:22Z</time>
      </trkpt>
      <trkpt lat="44.95934" lon="6.61915">
        <ele>2372.1589355469</ele>
        <time>2013-07-24T10:02:28Z</time>
      </trkpt>
      <trkpt lat="44.95921" lon="6.61941">
        <ele>2371.5600585938</ele>
        <time>2013-07-24T10:02:35Z</time>
      </trkpt>
      <trkpt lat="44.95918" lon="6.61963">
        <ele>2371.8344726562</ele>
        <time>2013-07-24T10:02:39Z</time>
      </trkpt>
      <trkpt lat="44.95916" lon="6.61978">
        <ele>2372.2429199219</ele>
        <time>2013-07-24T10:02:41Z</time>
      </trkpt>
      <trkpt lat="44.95904" lon="6.62009">
        <ele>2371.2983398438</ele>
        <time>2013-07-24T10:02:46Z</time>
      </trkpt>
      <trkpt lat="44.95903" lon="6.62015">
        <ele>2371.1337890625</ele>
        <time>2013-07-24T10:02:47Z</time>
      </trkpt>
      <trkpt lat="44.95902" lon="6.62035">
        <ele>2370.9331054688</ele>
        <time>2013-07-24T10:02:50Z</time>
      </trkpt>
      <trkpt lat="44.95902" lon="6.6205">
        <ele>2371.2294921875</ele>
        <time>2013-07-24T10:02:52Z</time>
      </trkpt>
      <trkpt lat="44.95895" lon="6.62081">
        <ele>2370.7631835938</ele>
        <time>2013-07-24T10:02:56Z</time>
      </trkpt>
      <trkpt lat="44.95879" lon="6.6211">
        <ele>2368.8791503906</ele>
        <time>2013-07-24T10:03:02Z</time>
      </trkpt>
      <trkpt lat="44.95873" lon="6.62124">
        <ele>2368.5153808594</ele>
        <time>2013-07-24T10:03:05Z</time>
      </trkpt>
      <trkpt lat="44.95859" lon="6.62159">
        <ele>2368.1450195312</ele>
        <time>2013-07-24T10:03:12Z</time>
      </trkpt>
      <trkpt lat="44.95853" lon="6.62172">
        <ele>2368.0466308594</ele>
        <time>2013-07-24T10:03:16Z</time>
      </trkpt>
      <trkpt lat="44.95847" lon="6.62185">
        <ele>2367.60546875</ele>
        <time>2013-07-24T10:03:21Z</time>
      </trkpt>
      <trkpt lat="44.95842" lon="6.62189">
        <ele>2367.0080566406</ele>
        <time>2013-07-24T10:03:27Z</time>
      </trkpt>
      <trkpt lat="44.95833" lon="6.62202">
        <ele>2366.4931640625</ele>
        <time>2013-07-24T10:03:34Z</time>
      </trkpt>
      <trkpt lat="44.95824" lon="6.62219">
        <ele>2366.373046875</ele>
        <time>2013-07-24T10:03:41Z</time>
      </trkpt>
      <trkpt lat="44.95813" lon="6.62238">
        <ele>2365.6391601562</ele>
        <time>2013-07-24T10:03:49Z</time>
      </trkpt>
      <trkpt lat="44.958" lon="6.62253">
        <ele>2364.6110839844</ele>
        <time>2013-07-24T10:03:56Z</time>
      </trkpt>
      <trkpt lat="44.95788" lon="6.62272">
        <ele>2364.1838378906</ele>
        <time>2013-07-24T10:04:04Z</time>
      </trkpt>
      <trkpt lat="44.95776" lon="6.62292">
        <ele>2363.8039550781</ele>
        <time>2013-07-24T10:04:09Z</time>
      </trkpt>
      <trkpt lat="44.95765" lon="6.62312">
        <ele>2363.54296875</ele>
        <time>2013-07-24T10:04:15Z</time>
      </trkpt>
      <trkpt lat="44.95755" lon="6.62333">
        <ele>2363.7111816406</ele>
        <time>2013-07-24T10:04:21Z</time>
      </trkpt>
      <trkpt lat="44.95749" lon="6.6237">
        <ele>2364.529296875</ele>
        <time>2013-07-24T10:04:31Z</time>
      </trkpt>
      <trkpt lat="44.95745" lon="6.62395">
        <ele>2365.8784179688</ele>
        <time>2013-07-24T10:04:39Z</time>
      </trkpt>
      <trkpt lat="44.95741" lon="6.62407">
        <ele>2366.2905273438</ele>
        <time>2013-07-24T10:04:44Z</time>
      </trkpt>
      <trkpt lat="44.95766" lon="6.62432">
        <ele>2371.1508789062</ele>
        <time>2013-07-24T10:04:48Z</time>
      </trkpt>
      <trkpt lat="44.95797" lon="6.62459">
        <ele>2375.0378417969</ele>
        <time>2013-07-24T10:04:55Z</time>
      </trkpt>
      <trkpt lat="44.95839" lon="6.62475">
        <ele>2379.640625</ele>
        <time>2013-07-24T10:05:15Z</time>
      </trkpt>
      <trkpt lat="44.9584" lon="6.62495">
        <ele>2380.0690917969</ele>
        <time>2013-07-24T10:05:30Z</time>
      </trkpt>
      <trkpt lat="44.95831" lon="6.6252">
        <ele>2379.533203125</ele>
        <time>2013-07-24T10:05:36Z</time>
      </trkpt>
      <trkpt lat="44.95815" lon="6.62532">
        <ele>2378.8654785156</ele>
        <time>2013-07-24T10:05:38Z</time>
      </trkpt>
      <trkpt lat="44.95805" lon="6.62499">
        <ele>2376.9584960938</ele>
        <time>2013-07-24T10:05:40Z</time>
      </trkpt>
      <trkpt lat="44.95799" lon="6.62475">
        <ele>2375.8823242188</ele>
        <time>2013-07-24T10:05:41Z</time>
      </trkpt>
      <trkpt lat="44.95736" lon="6.62417">
        <ele>2366.5458984375</ele>
        <time>2013-07-24T10:05:45Z</time>
      </trkpt>
      <trkpt lat="44.95736" lon="6.62418">
        <ele>2366.6022949219</ele>
        <time>2013-07-24T10:06:05Z</time>
      </trkpt>
      <trkpt lat="44.95734" lon="6.62419">
        <ele>2366.5515136719</ele>
        <time>2013-07-24T10:06:44Z</time>
      </trkpt>
      <trkpt lat="44.95734" lon="6.62418">
        <ele>2366.3828125</ele>
        <time>2013-07-24T10:07:23Z</time>
      </trkpt>
      <trkpt lat="44.95735" lon="6.62417">
        <ele>2366.3859863281</ele>
        <time>2013-07-24T10:08:13Z</time>
      </trkpt>
      <trkpt lat="44.95735" lon="6.62417">
        <ele>2366.3815917969</ele>
        <time>2013-07-24T10:08:14Z</time>
      </trkpt>
      <trkpt lat="44.95735" lon="6.62417">
        <ele>2366.3859863281</ele>
        <time>2013-07-24T10:08:15Z</time>
      </trkpt>
      <trkpt lat="44.95735" lon="6.62417">
        <ele>2366.4357910156</ele>
        <time>2013-07-24T10:08:33Z</time>
      </trkpt>
      <trkpt lat="44.95734" lon="6.62419">
        <ele>2366.5515136719</ele>
        <time>2013-07-24T10:08:44Z</time>
      </trkpt>
      <trkpt lat="44.95734" lon="6.6242">
        <ele>2366.5913085938</ele>
        <time>2013-07-24T10:09:11Z</time>
      </trkpt>
      <trkpt lat="44.95734" lon="6.62421">
        <ele>2366.6618652344</ele>
        <time>2013-07-24T10:09:33Z</time>
      </trkpt>
      <trkpt lat="44.95734" lon="6.62421">
        <ele>2366.6879882812</ele>
        <time>2013-07-24T10:09:40Z</time>
      </trkpt>
      <trkpt lat="44.95734" lon="6.6242">
        <ele>2366.5561523438</ele>
        <time>2013-07-24T10:09:52Z</time>
      </trkpt>
      <trkpt lat="44.95733" lon="6.6242">
        <ele>2366.4951171875</ele>
        <time>2013-07-24T10:09:55Z</time>
      </trkpt>
      <trkpt lat="44.95721" lon="6.62432">
        <ele>2366.3815917969</ele>
        <time>2013-07-24T10:10:01Z</time>
      </trkpt>
      <trkpt lat="44.95707" lon="6.62449">
        <ele>2366.171875</ele>
        <time>2013-07-24T10:10:07Z</time>
      </trkpt>
      <trkpt lat="44.95697" lon="6.62462">
        <ele>2366.2890625</ele>
        <time>2013-07-24T10:10:12Z</time>
      </trkpt>
      <trkpt lat="44.95688" lon="6.62482">
        <ele>2366.9895019531</ele>
        <time>2013-07-24T10:10:18Z</time>
      </trkpt>
      <trkpt lat="44.95687" lon="6.625">
        <ele>2368.69921875</ele>
        <time>2013-07-24T10:10:22Z</time>
      </trkpt>
      <trkpt lat="44.95689" lon="6.62535">
        <ele>2372.8747558594</ele>
        <time>2013-07-24T10:10:29Z</time>
      </trkpt>
      <trkpt lat="44.95688" lon="6.6254">
        <ele>2373.2648925781</ele>
        <time>2013-07-24T10:10:30Z</time>
      </trkpt>
      <trkpt lat="44.95673" lon="6.62555">
        <ele>2372.7185058594</ele>
        <time>2013-07-24T10:10:36Z</time>
      </trkpt>
      <trkpt lat="44.95657" lon="6.62558">
        <ele>2367.7421875</ele>
        <time>2013-07-24T10:10:41Z</time>
      </trkpt>
      <trkpt lat="44.9564" lon="6.62558">
        <ele>2359.7075195312</ele>
        <time>2013-07-24T10:10:46Z</time>
      </trkpt>
      <trkpt lat="44.9563" lon="6.62572">
        <ele>2358.8728027344</ele>
        <time>2013-07-24T10:10:51Z</time>
      </trkpt>
      <trkpt lat="44.95616" lon="6.626">
        <ele>2358.9604492188</ele>
        <time>2013-07-24T10:10:57Z</time>
      </trkpt>
      <trkpt lat="44.95605" lon="6.6262">
        <ele>2359.3322753906</ele>
        <time>2013-07-24T10:11:01Z</time>
      </trkpt>
      <trkpt lat="44.95584" lon="6.6263">
        <ele>2358.0705566406</ele>
        <time>2013-07-24T10:11:08Z</time>
      </trkpt>
      <trkpt lat="44.95554" lon="6.62628">
        <ele>2354.59765625</ele>
        <time>2013-07-24T10:11:16Z</time>
      </trkpt>
      <trkpt lat="44.95532" lon="6.62638">
        <ele>2350.8771972656</ele>
        <time>2013-07-24T10:11:24Z</time>
      </trkpt>
      <trkpt lat="44.95518" lon="6.62647">
        <ele>2350.5268554688</ele>
        <time>2013-07-24T10:11:29Z</time>
      </trkpt>
      <trkpt lat="44.95505" lon="6.62662">
        <ele>2350.5476074219</ele>
        <time>2013-07-24T10:11:36Z</time>
      </trkpt>
      <trkpt lat="44.95483" lon="6.62682">
        <ele>2350.4616699219</ele>
        <time>2013-07-24T10:11:44Z</time>
      </trkpt>
      <trkpt lat="44.95472" lon="6.62693">
        <ele>2350.8134765625</ele>
        <time>2013-07-24T10:11:49Z</time>
      </trkpt>
      <trkpt lat="44.95468" lon="6.62711">
        <ele>2351.6264648438</ele>
        <time>2013-07-24T10:11:54Z</time>
      </trkpt>
      <trkpt lat="44.95462" lon="6.6274">
        <ele>2354.111328125</ele>
        <time>2013-07-24T10:12:00Z</time>
      </trkpt>
      <trkpt lat="44.95447" lon="6.62751">
        <ele>2354.3005371094</ele>
        <time>2013-07-24T10:12:05Z</time>
      </trkpt>
      <trkpt lat="44.95427" lon="6.62749">
        <ele>2351.2023925781</ele>
        <time>2013-07-24T10:12:10Z</time>
      </trkpt>
      <trkpt lat="44.95415" lon="6.62749">
        <ele>2349.2150878906</ele>
        <time>2013-07-24T10:12:14Z</time>
      </trkpt>
      <trkpt lat="44.95412" lon="6.62765">
        <ele>2350.4421386719</ele>
        <time>2013-07-24T10:12:18Z</time>
      </trkpt>
      <trkpt lat="44.95411" lon="6.62778">
        <ele>2352.3276367188</ele>
        <time>2013-07-24T10:12:21Z</time>
      </trkpt>
      <trkpt lat="44.95395" lon="6.62786">
        <ele>2349.7746582031</ele>
        <time>2013-07-24T10:12:27Z</time>
      </trkpt>
      <trkpt lat="44.95372" lon="6.62782">
        <ele>2344.4645996094</ele>
        <time>2013-07-24T10:12:33Z</time>
      </trkpt>
      <trkpt lat="44.95352" lon="6.62779">
        <ele>2341.3327636719</ele>
        <time>2013-07-24T10:12:38Z</time>
      </trkpt>
      <trkpt lat="44.95344" lon="6.62782">
        <ele>2340.9057617188</ele>
        <time>2013-07-24T10:12:40Z</time>
      </trkpt>
      <trkpt lat="44.95322" lon="6.62779">
        <ele>2338.0788574219</ele>
        <time>2013-07-24T10:12:45Z</time>
      </trkpt>
      <trkpt lat="44.95305" lon="6.62778">
        <ele>2335.8903808594</ele>
        <time>2013-07-24T10:12:49Z</time>
      </trkpt>
      <trkpt lat="44.95287" lon="6.62792">
        <ele>2333.947265625</ele>
        <time>2013-07-24T10:12:54Z</time>
      </trkpt>
      <trkpt lat="44.9528" lon="6.62799">
        <ele>2333.6931152344</ele>
        <time>2013-07-24T10:12:56Z</time>
      </trkpt>
      <trkpt lat="44.95273" lon="6.62803">
        <ele>2333.6721191406</ele>
        <time>2013-07-24T10:12:58Z</time>
      </trkpt>
      <trkpt lat="44.95257" lon="6.62799">
        <ele>2333.1723632812</ele>
        <time>2013-07-24T10:13:02Z</time>
      </trkpt>
      <trkpt lat="44.95242" lon="6.62791">
        <ele>2332.3935546875</ele>
        <time>2013-07-24T10:13:06Z</time>
      </trkpt>
      <trkpt lat="44.95229" lon="6.62783">
        <ele>2331.6157226562</ele>
        <time>2013-07-24T10:13:09Z</time>
      </trkpt>
      <trkpt lat="44.9522" lon="6.62776">
        <ele>2330.7019042969</ele>
        <time>2013-07-24T10:13:11Z</time>
      </trkpt>
      <trkpt lat="44.95191" lon="6.62755">
        <ele>2327.4465332031</ele>
        <time>2013-07-24T10:13:17Z</time>
      </trkpt>
      <trkpt lat="44.95175" lon="6.62746">
        <ele>2325.771484375</ele>
        <time>2013-07-24T10:13:21Z</time>
      </trkpt>
      <trkpt lat="44.95167" lon="6.6274">
        <ele>2324.5629882812</ele>
        <time>2013-07-24T10:13:23Z</time>
      </trkpt>
      <trkpt lat="44.95144" lon="6.6272">
        <ele>2321.7436523438</ele>
        <time>2013-07-24T10:13:28Z</time>
      </trkpt>
      <trkpt lat="44.95138" lon="6.62719">
        <ele>2321.5341796875</ele>
        <time>2013-07-24T10:13:29Z</time>
      </trkpt>
      <trkpt lat="44.95107" lon="6.62706">
        <ele>2321.5085449219</ele>
        <time>2013-07-24T10:13:34Z</time>
      </trkpt>
      <trkpt lat="44.95076" lon="6.62707">
        <ele>2323.0258789062</ele>
        <time>2013-07-24T10:13:41Z</time>
      </trkpt>
      <trkpt lat="44.95062" lon="6.62703">
        <ele>2322.1916503906</ele>
        <time>2013-07-24T10:13:45Z</time>
      </trkpt>
      <trkpt lat="44.95042" lon="6.62706">
        <ele>2321.947265625</ele>
        <time>2013-07-24T10:13:52Z</time>
      </trkpt>
      <trkpt lat="44.95039" lon="6.62711">
        <ele>2322.5100097656</ele>
        <time>2013-07-24T10:13:53Z</time>
      </trkpt>
      <trkpt lat="44.95026" lon="6.62732">
        <ele>2325.6748046875</ele>
        <time>2013-07-24T10:13:58Z</time>
      </trkpt>
      <trkpt lat="44.95016" lon="6.6275">
        <ele>2328.6320800781</ele>
        <time>2013-07-24T10:14:02Z</time>
      </trkpt>
      <trkpt lat="44.95014" lon="6.62752">
        <ele>2328.7736816406</ele>
        <time>2013-07-24T10:14:03Z</time>
      </trkpt>
      <trkpt lat="44.95" lon="6.62743">
        <ele>2326.4050292969</ele>
        <time>2013-07-24T10:14:09Z</time>
      </trkpt>
      <trkpt lat="44.94993" lon="6.62733">
        <ele>2323.1284179688</ele>
        <time>2013-07-24T10:14:13Z</time>
      </trkpt>
      <trkpt lat="44.94991" lon="6.6273">
        <ele>2322.046875</ele>
        <time>2013-07-24T10:14:17Z</time>
      </trkpt>
      <trkpt lat="44.94989" lon="6.62728">
        <ele>2321.2756347656</ele>
        <time>2013-07-24T10:14:52Z</time>
      </trkpt>
      <trkpt lat="44.94977" lon="6.62717">
        <ele>2315.7365722656</ele>
        <time>2013-07-24T10:14:58Z</time>
      </trkpt>
      <trkpt lat="44.94965" lon="6.62714">
        <ele>2312.3427734375</ele>
        <time>2013-07-24T10:15:04Z</time>
      </trkpt>
      <trkpt lat="44.94962" lon="6.62714">
        <ele>2311.7404785156</ele>
        <time>2013-07-24T10:15:05Z</time>
      </trkpt>
      <trkpt lat="44.94958" lon="6.62714">
        <ele>2311.0974121094</ele>
        <time>2013-07-24T10:15:06Z</time>
      </trkpt>
      <trkpt lat="44.94954" lon="6.62713">
        <ele>2310.1079101562</ele>
        <time>2013-07-24T10:15:07Z</time>
      </trkpt>
      <trkpt lat="44.94947" lon="6.62713">
        <ele>2308.5749511719</ele>
        <time>2013-07-24T10:15:09Z</time>
      </trkpt>
      <trkpt lat="44.94938" lon="6.62719">
        <ele>2309.3041992188</ele>
        <time>2013-07-24T10:15:12Z</time>
      </trkpt>
      <trkpt lat="44.94935" lon="6.62721">
        <ele>2309.59765625</ele>
        <time>2013-07-24T10:15:13Z</time>
      </trkpt>
      <trkpt lat="44.94932" lon="6.62721">
        <ele>2309.3940429688</ele>
        <time>2013-07-24T10:15:14Z</time>
      </trkpt>
      <trkpt lat="44.94924" lon="6.62719">
        <ele>2307.8537597656</ele>
        <time>2013-07-24T10:15:16Z</time>
      </trkpt>
      <trkpt lat="44.94919" lon="6.62719">
        <ele>2307.2138671875</ele>
        <time>2013-07-24T10:15:17Z</time>
      </trkpt>
      <trkpt lat="44.94914" lon="6.62718">
        <ele>2306.9379882812</ele>
        <time>2013-07-24T10:15:18Z</time>
      </trkpt>
      <trkpt lat="44.94909" lon="6.62717">
        <ele>2306.595703125</ele>
        <time>2013-07-24T10:15:19Z</time>
      </trkpt>
      <trkpt lat="44.94891" lon="6.62708">
        <ele>2304.7551269531</ele>
        <time>2013-07-24T10:15:23Z</time>
      </trkpt>
      <trkpt lat="44.94878" lon="6.62706">
        <ele>2303.6489257812</ele>
        <time>2013-07-24T10:15:26Z</time>
      </trkpt>
      <trkpt lat="44.94874" lon="6.62707">
        <ele>2303.3986816406</ele>
        <time>2013-07-24T10:15:27Z</time>
      </trkpt>
      <trkpt lat="44.9486" lon="6.6271">
        <ele>2302.6245117188</ele>
        <time>2013-07-24T10:15:30Z</time>
      </trkpt>
      <trkpt lat="44.94845" lon="6.62724">
        <ele>2303.56640625</ele>
        <time>2013-07-24T10:15:34Z</time>
      </trkpt>
      <trkpt lat="44.94835" lon="6.62745">
        <ele>2307.1301269531</ele>
        <time>2013-07-24T10:15:40Z</time>
      </trkpt>
      <trkpt lat="44.94826" lon="6.62765">
        <ele>2310.4057617188</ele>
        <time>2013-07-24T10:15:47Z</time>
      </trkpt>
      <trkpt lat="44.94821" lon="6.62772">
        <ele>2311.48046875</ele>
        <time>2013-07-24T10:15:51Z</time>
      </trkpt>
      <trkpt lat="44.94817" lon="6.62774">
        <ele>2311.8029785156</ele>
        <time>2013-07-24T10:15:53Z</time>
      </trkpt>
      <trkpt lat="44.94811" lon="6.62781">
        <ele>2312.7778320312</ele>
        <time>2013-07-24T10:15:57Z</time>
      </trkpt>
      <trkpt lat="44.94802" lon="6.62795">
        <ele>2315.7939453125</ele>
        <time>2013-07-24T10:16:04Z</time>
      </trkpt>
      <trkpt lat="44.94799" lon="6.62796">
        <ele>2316.2917480469</ele>
        <time>2013-07-24T10:16:09Z</time>
      </trkpt>
      <trkpt lat="44.94796" lon="6.62796">
        <ele>2316.2092285156</ele>
        <time>2013-07-24T10:16:13Z</time>
      </trkpt>
      <trkpt lat="44.94795" lon="6.62795">
        <ele>2316.1921386719</ele>
        <time>2013-07-24T10:16:15Z</time>
      </trkpt>
      <trkpt lat="44.94788" lon="6.62793">
        <ele>2315.9587402344</ele>
        <time>2013-07-24T10:16:24Z</time>
      </trkpt>
      <trkpt lat="44.94785" lon="6.62802">
        <ele>2317.9772949219</ele>
        <time>2013-07-24T10:16:32Z</time>
      </trkpt>
      <trkpt lat="44.9478" lon="6.62804">
        <ele>2318.5163574219</ele>
        <time>2013-07-24T10:16:39Z</time>
      </trkpt>
      <trkpt lat="44.94778" lon="6.62805">
        <ele>2318.904296875</ele>
        <time>2013-07-24T10:16:42Z</time>
      </trkpt>
      <trkpt lat="44.94772" lon="6.62812">
        <ele>2321.4250488281</ele>
        <time>2013-07-24T10:16:52Z</time>
      </trkpt>
      <trkpt lat="44.94772" lon="6.62815">
        <ele>2322.173828125</ele>
        <time>2013-07-24T10:16:59Z</time>
      </trkpt>
      <trkpt lat="44.94761" lon="6.6282">
        <ele>2324.3139648438</ele>
        <time>2013-07-24T10:17:07Z</time>
      </trkpt>
      <trkpt lat="44.94749" lon="6.6282">
        <ele>2324.9611816406</ele>
        <time>2013-07-24T10:17:14Z</time>
      </trkpt>
      <trkpt lat="44.94737" lon="6.6282">
        <ele>2323.9543457031</ele>
        <time>2013-07-24T10:17:20Z</time>
      </trkpt>
      <trkpt lat="44.94733" lon="6.62819">
        <ele>2323.3950195312</ele>
        <time>2013-07-24T10:17:22Z</time>
      </trkpt>
      <trkpt lat="44.9473" lon="6.62821">
        <ele>2323.37109375</ele>
        <time>2013-07-24T10:17:25Z</time>
      </trkpt>
      <trkpt lat="44.94728" lon="6.62821">
        <ele>2323.2585449219</ele>
        <time>2013-07-24T10:17:26Z</time>
      </trkpt>
      <trkpt lat="44.94727" lon="6.62821">
        <ele>2323.1540527344</ele>
        <time>2013-07-24T10:17:27Z</time>
      </trkpt>
      <trkpt lat="44.94719" lon="6.62822">
        <ele>2321.5749511719</ele>
        <time>2013-07-24T10:17:32Z</time>
      </trkpt>
      <trkpt lat="44.94719" lon="6.62824">
        <ele>2321.5612792969</ele>
        <time>2013-07-24T10:17:33Z</time>
      </trkpt>
      <trkpt lat="44.94717" lon="6.62831">
        <ele>2322.1430664062</ele>
        <time>2013-07-24T10:17:37Z</time>
      </trkpt>
      <trkpt lat="44.94716" lon="6.62841">
        <ele>2323.4011230469</ele>
        <time>2013-07-24T10:17:44Z</time>
      </trkpt>
      <trkpt lat="44.94715" lon="6.62842">
        <ele>2323.4421386719</ele>
        <time>2013-07-24T10:17:45Z</time>
      </trkpt>
      <trkpt lat="44.94717" lon="6.62865">
        <ele>2328.2983398438</ele>
        <time>2013-07-24T10:17:55Z</time>
      </trkpt>
      <trkpt lat="44.94715" lon="6.62872">
        <ele>2328.9169921875</ele>
        <time>2013-07-24T10:17:59Z</time>
      </trkpt>
      <trkpt lat="44.94715" lon="6.62884">
        <ele>2330.5988769531</ele>
        <time>2013-07-24T10:18:06Z</time>
      </trkpt>
      <trkpt lat="44.94715" lon="6.62902">
        <ele>2333.8205566406</ele>
        <time>2013-07-24T10:18:14Z</time>
      </trkpt>
      <trkpt lat="44.94714" lon="6.6291">
        <ele>2334.5012207031</ele>
        <time>2013-07-24T10:18:19Z</time>
      </trkpt>
      <trkpt lat="44.94715" lon="6.62916">
        <ele>2335.8728027344</ele>
        <time>2013-07-24T10:18:21Z</time>
      </trkpt>
      <trkpt lat="44.94713" lon="6.62929">
        <ele>2335.9790039062</ele>
        <time>2013-07-24T10:18:27Z</time>
      </trkpt>
      <trkpt lat="44.94717" lon="6.62942">
        <ele>2339.0275878906</ele>
        <time>2013-07-24T10:18:33Z</time>
      </trkpt>
      <trkpt lat="44.94724" lon="6.62965">
        <ele>2343.6865234375</ele>
        <time>2013-07-24T10:18:39Z</time>
      </trkpt>
      <trkpt lat="44.94719" lon="6.62983">
        <ele>2344.2644042969</ele>
        <time>2013-07-24T10:18:46Z</time>
      </trkpt>
      <trkpt lat="44.94707" lon="6.62996">
        <ele>2342.4929199219</ele>
        <time>2013-07-24T10:18:53Z</time>
      </trkpt>
      <trkpt lat="44.94693" lon="6.63011">
        <ele>2339.7131347656</ele>
        <time>2013-07-24T10:18:58Z</time>
      </trkpt>
      <trkpt lat="44.9468" lon="6.63021">
        <ele>2337.27734375</ele>
        <time>2013-07-24T10:19:02Z</time>
      </trkpt>
      <trkpt lat="44.9467" lon="6.63019">
        <ele>2332.1181640625</ele>
        <time>2013-07-24T10:19:05Z</time>
      </trkpt>
      <trkpt lat="44.94665" lon="6.63026">
        <ele>2333.552734375</ele>
        <time>2013-07-24T10:19:09Z</time>
      </trkpt>
      <trkpt lat="44.94664" lon="6.63081">
        <ele>2348.2419433594</ele>
        <time>2013-07-24T10:19:13Z</time>
      </trkpt>
      <trkpt lat="44.9467" lon="6.63032">
        <ele>2337.3312988281</ele>
        <time>2013-07-24T10:19:15Z</time>
      </trkpt>
      <trkpt lat="44.94648" lon="6.63045">
        <ele>2332.4013671875</ele>
        <time>2013-07-24T10:19:16Z</time>
      </trkpt>
      <trkpt lat="44.94634" lon="6.63038">
        <ele>2326.1687011719</ele>
        <time>2013-07-24T10:19:20Z</time>
      </trkpt>
      <trkpt lat="44.94618" lon="6.63037">
        <ele>2322.5688476562</ele>
        <time>2013-07-24T10:19:25Z</time>
      </trkpt>
      <trkpt lat="44.94613" lon="6.63035">
        <ele>2320.6975097656</ele>
        <time>2013-07-24T10:19:27Z</time>
      </trkpt>
      <trkpt lat="44.94599" lon="6.63031">
        <ele>2319.8442382812</ele>
        <time>2013-07-24T10:19:31Z</time>
      </trkpt>
      <trkpt lat="44.94582" lon="6.63032">
        <ele>2321.7983398438</ele>
        <time>2013-07-24T10:19:35Z</time>
      </trkpt>
      <trkpt lat="44.94568" lon="6.63033">
        <ele>2323.5549316406</ele>
        <time>2013-07-24T10:19:40Z</time>
      </trkpt>
      <trkpt lat="44.94552" lon="6.63037">
        <ele>2325.2431640625</ele>
        <time>2013-07-24T10:19:45Z</time>
      </trkpt>
      <trkpt lat="44.94528" lon="6.63041">
        <ele>2324.201171875</ele>
        <time>2013-07-24T10:19:51Z</time>
      </trkpt>
      <trkpt lat="44.94519" lon="6.63043">
        <ele>2321.8693847656</ele>
        <time>2013-07-24T10:19:53Z</time>
      </trkpt>
      <trkpt lat="44.94502" lon="6.6306">
        <ele>2322.2973632812</ele>
        <time>2013-07-24T10:19:57Z</time>
      </trkpt>
      <trkpt lat="44.94493" lon="6.63071">
        <ele>2324.0185546875</ele>
        <time>2013-07-24T10:20:00Z</time>
      </trkpt>
      <trkpt lat="44.94489" lon="6.63075">
        <ele>2323.9995117188</ele>
        <time>2013-07-24T10:20:01Z</time>
      </trkpt>
      <trkpt lat="44.94481" lon="6.63082">
        <ele>2324.2263183594</ele>
        <time>2013-07-24T10:20:03Z</time>
      </trkpt>
      <trkpt lat="44.94473" lon="6.63081">
        <ele>2321.3286132812</ele>
        <time>2013-07-24T10:20:05Z</time>
      </trkpt>
      <trkpt lat="44.94456" lon="6.63084">
        <ele>2317.34375</ele>
        <time>2013-07-24T10:20:10Z</time>
      </trkpt>
      <trkpt lat="44.94447" lon="6.63086">
        <ele>2316.375</ele>
        <time>2013-07-24T10:20:12Z</time>
      </trkpt>
      <trkpt lat="44.94437" lon="6.63086">
        <ele>2314.4826660156</ele>
        <time>2013-07-24T10:20:14Z</time>
      </trkpt>
      <trkpt lat="44.94417" lon="6.63087">
        <ele>2312.3723144531</ele>
        <time>2013-07-24T10:20:20Z</time>
      </trkpt>
      <trkpt lat="44.94396" lon="6.63086">
        <ele>2308.6257324219</ele>
        <time>2013-07-24T10:20:24Z</time>
      </trkpt>
      <trkpt lat="44.94377" lon="6.63089">
        <ele>2308.1948242188</ele>
        <time>2013-07-24T10:20:28Z</time>
      </trkpt>
      <trkpt lat="44.94364" lon="6.63089">
        <ele>2306.6882324219</ele>
        <time>2013-07-24T10:20:31Z</time>
      </trkpt>
      <trkpt lat="44.9434" lon="6.63098">
        <ele>2307.6337890625</ele>
        <time>2013-07-24T10:20:37Z</time>
      </trkpt>
      <trkpt lat="44.94332" lon="6.63106">
        <ele>2309.529296875</ele>
        <time>2013-07-24T10:20:39Z</time>
      </trkpt>
      <trkpt lat="44.94319" lon="6.63111">
        <ele>2310.0158691406</ele>
        <time>2013-07-24T10:20:42Z</time>
      </trkpt>
      <trkpt lat="44.94315" lon="6.63113">
        <ele>2309.9592285156</ele>
        <time>2013-07-24T10:20:44Z</time>
      </trkpt>
      <trkpt lat="44.94315" lon="6.63113">
        <ele>2309.9895019531</ele>
        <time>2013-07-24T10:20:45Z</time>
      </trkpt>
      <trkpt lat="44.9431" lon="6.63114">
        <ele>2309.6276855469</ele>
        <time>2013-07-24T10:20:51Z</time>
      </trkpt>
      <trkpt lat="44.94303" lon="6.63112">
        <ele>2308.4792480469</ele>
        <time>2013-07-24T10:20:58Z</time>
      </trkpt>
      <trkpt lat="44.94289" lon="6.63106">
        <ele>2308.2255859375</ele>
        <time>2013-07-24T10:21:05Z</time>
      </trkpt>
      <trkpt lat="44.94281" lon="6.63103">
        <ele>2308.470703125</ele>
        <time>2013-07-24T10:21:09Z</time>
      </trkpt>
      <trkpt lat="44.94278" lon="6.63101">
        <ele>2308.578125</ele>
        <time>2013-07-24T10:21:10Z</time>
      </trkpt>
      <trkpt lat="44.94266" lon="6.63096">
        <ele>2308.1904296875</ele>
        <time>2013-07-24T10:21:15Z</time>
      </trkpt>
      <trkpt lat="44.94263" lon="6.63097">
        <ele>2308.25</ele>
        <time>2013-07-24T10:21:16Z</time>
      </trkpt>
      <trkpt lat="44.94261" lon="6.63097">
        <ele>2308.3076171875</ele>
        <time>2013-07-24T10:21:17Z</time>
      </trkpt>
      <trkpt lat="44.94258" lon="6.63097">
        <ele>2308.3452148438</ele>
        <time>2013-07-24T10:21:18Z</time>
      </trkpt>
      <trkpt lat="44.94245" lon="6.63097">
        <ele>2306.3874511719</ele>
        <time>2013-07-24T10:21:24Z</time>
      </trkpt>
      <trkpt lat="44.94243" lon="6.63097">
        <ele>2305.6691894531</ele>
        <time>2013-07-24T10:21:25Z</time>
      </trkpt>
      <trkpt lat="44.94245" lon="6.63101">
        <ele>2305.6337890625</ele>
        <time>2013-07-24T10:21:30Z</time>
      </trkpt>
      <trkpt lat="44.94252" lon="6.63108">
        <ele>2307.4611816406</ele>
        <time>2013-07-24T10:21:33Z</time>
      </trkpt>
      <trkpt lat="44.94268" lon="6.63129">
        <ele>2305.9296875</ele>
        <time>2013-07-24T10:21:39Z</time>
      </trkpt>
      <trkpt lat="44.94276" lon="6.63154">
        <ele>2304.0563964844</ele>
        <time>2013-07-24T10:21:44Z</time>
      </trkpt>
      <trkpt lat="44.94277" lon="6.63161">
        <ele>2303.0100097656</ele>
        <time>2013-07-24T10:21:46Z</time>
      </trkpt>
      <trkpt lat="44.94275" lon="6.63164">
        <ele>2300.8916015625</ele>
        <time>2013-07-24T10:21:50Z</time>
      </trkpt>
      <trkpt lat="44.94272" lon="6.63161">
        <ele>2300.5822753906</ele>
        <time>2013-07-24T10:21:52Z</time>
      </trkpt>
      <trkpt lat="44.94265" lon="6.63151">
        <ele>2299.7658691406</ele>
        <time>2013-07-24T10:21:58Z</time>
      </trkpt>
      <trkpt lat="44.94266" lon="6.63154">
        <ele>2299.7268066406</ele>
        <time>2013-07-24T10:22:12Z</time>
      </trkpt>
      <trkpt lat="44.94267" lon="6.63155">
        <ele>2299.6962890625</ele>
        <time>2013-07-24T10:22:15Z</time>
      </trkpt>
      <trkpt lat="44.94265" lon="6.63156">
        <ele>2298.4780273438</ele>
        <time>2013-07-24T10:22:30Z</time>
      </trkpt>
      <trkpt lat="44.94263" lon="6.63155">
        <ele>2298.1459960938</ele>
        <time>2013-07-24T10:22:31Z</time>
      </trkpt>
      <trkpt lat="44.94263" lon="6.63155">
        <ele>2297.9055175781</ele>
        <time>2013-07-24T10:22:32Z</time>
      </trkpt>
      <trkpt lat="44.94261" lon="6.63154">
        <ele>2297.2072753906</ele>
        <time>2013-07-24T10:22:33Z</time>
      </trkpt>
      <trkpt lat="44.94259" lon="6.63154">
        <ele>2296.533203125</ele>
        <time>2013-07-24T10:22:34Z</time>
      </trkpt>
      <trkpt lat="44.9425" lon="6.63142">
        <ele>2296.7609863281</ele>
        <time>2013-07-24T10:22:39Z</time>
      </trkpt>
      <trkpt lat="44.94246" lon="6.63139">
        <ele>2296.0888671875</ele>
        <time>2013-07-24T10:22:41Z</time>
      </trkpt>
      <trkpt lat="44.94241" lon="6.63136">
        <ele>2294.6381835938</ele>
        <time>2013-07-24T10:22:43Z</time>
      </trkpt>
      <trkpt lat="44.94229" lon="6.63123">
        <ele>2292.2436523438</ele>
        <time>2013-07-24T10:22:48Z</time>
      </trkpt>
      <trkpt lat="44.9422" lon="6.63115">
        <ele>2289.8852539062</ele>
        <time>2013-07-24T10:22:53Z</time>
      </trkpt>
      <trkpt lat="44.94214" lon="6.63111">
        <ele>2288.7734375</ele>
        <time>2013-07-24T10:22:56Z</time>
      </trkpt>
      <trkpt lat="44.9421" lon="6.63107">
        <ele>2287.9643554688</ele>
        <time>2013-07-24T10:22:58Z</time>
      </trkpt>
      <trkpt lat="44.94201" lon="6.63101">
        <ele>2284.8371582031</ele>
        <time>2013-07-24T10:23:03Z</time>
      </trkpt>
      <trkpt lat="44.94196" lon="6.63096">
        <ele>2282.6652832031</ele>
        <time>2013-07-24T10:23:06Z</time>
      </trkpt>
      <trkpt lat="44.94193" lon="6.63092">
        <ele>2281.8466796875</ele>
        <time>2013-07-24T10:23:08Z</time>
      </trkpt>
      <trkpt lat="44.9419" lon="6.6309">
        <ele>2281.4189453125</ele>
        <time>2013-07-24T10:23:09Z</time>
      </trkpt>
      <trkpt lat="44.94188" lon="6.63088">
        <ele>2281.2119140625</ele>
        <time>2013-07-24T10:23:10Z</time>
      </trkpt>
      <trkpt lat="44.94178" lon="6.63079">
        <ele>2280.0581054688</ele>
        <time>2013-07-24T10:23:15Z</time>
      </trkpt>
      <trkpt lat="44.94177" lon="6.63068">
        <ele>2279.5461425781</ele>
        <time>2013-07-24T10:23:19Z</time>
      </trkpt>
      <trkpt lat="44.9417" lon="6.63058">
        <ele>2277.2077636719</ele>
        <time>2013-07-24T10:23:23Z</time>
      </trkpt>
      <trkpt lat="44.94157" lon="6.63049">
        <ele>2267.3117675781</ele>
        <time>2013-07-24T10:23:28Z</time>
      </trkpt>
      <trkpt lat="44.94149" lon="6.6305">
        <ele>2264.4799804688</ele>
        <time>2013-07-24T10:23:32Z</time>
      </trkpt>
      <trkpt lat="44.94137" lon="6.63056">
        <ele>2262.1213378906</ele>
        <time>2013-07-24T10:23:37Z</time>
      </trkpt>
      <trkpt lat="44.94132" lon="6.63062">
        <ele>2260.3530273438</ele>
        <time>2013-07-24T10:23:39Z</time>
      </trkpt>
      <trkpt lat="44.94128" lon="6.63072">
        <ele>2259.435546875</ele>
        <time>2013-07-24T10:23:45Z</time>
      </trkpt>
      <trkpt lat="44.94125" lon="6.63071">
        <ele>2258.5146484375</ele>
        <time>2013-07-24T10:23:46Z</time>
      </trkpt>
      <trkpt lat="44.94104" lon="6.63066">
        <ele>2250.0173339844</ele>
        <time>2013-07-24T10:23:53Z</time>
      </trkpt>
      <trkpt lat="44.941" lon="6.63066">
        <ele>2248.7512207031</ele>
        <time>2013-07-24T10:23:55Z</time>
      </trkpt>
      <trkpt lat="44.94096" lon="6.63067">
        <ele>2247.3605957031</ele>
        <time>2013-07-24T10:23:57Z</time>
      </trkpt>
      <trkpt lat="44.94089" lon="6.63066">
        <ele>2245.0639648438</ele>
        <time>2013-07-24T10:24:00Z</time>
      </trkpt>
      <trkpt lat="44.94077" lon="6.63059">
        <ele>2242.9597167969</ele>
        <time>2013-07-24T10:24:05Z</time>
      </trkpt>
      <trkpt lat="44.94063" lon="6.63056">
        <ele>2241.1083984375</ele>
        <time>2013-07-24T10:24:10Z</time>
      </trkpt>
      <trkpt lat="44.94058" lon="6.63053">
        <ele>2238.9675292969</ele>
        <time>2013-07-24T10:24:12Z</time>
      </trkpt>
      <trkpt lat="44.94054" lon="6.63055">
        <ele>2239.0441894531</ele>
        <time>2013-07-24T10:24:14Z</time>
      </trkpt>
      <trkpt lat="44.94043" lon="6.63054">
        <ele>2235.87890625</ele>
        <time>2013-07-24T10:24:19Z</time>
      </trkpt>
      <trkpt lat="44.94032" lon="6.63048">
        <ele>2230.4968261719</ele>
        <time>2013-07-24T10:24:24Z</time>
      </trkpt>
      <trkpt lat="44.93984" lon="6.63049">
        <ele>2218.1672363281</ele>
        <time>2013-07-24T10:24:30Z</time>
      </trkpt>
      <trkpt lat="44.94025" lon="6.63051">
        <ele>2229.8706054688</ele>
        <time>2013-07-24T10:24:34Z</time>
      </trkpt>
      <trkpt lat="44.94025" lon="6.63051">
        <ele>2229.7600097656</ele>
        <time>2013-07-24T10:24:36Z</time>
      </trkpt>
      <trkpt lat="44.94025" lon="6.6305">
        <ele>2229.6936035156</ele>
        <time>2013-07-24T10:24:37Z</time>
      </trkpt>
      <trkpt lat="44.94024" lon="6.63051">
        <ele>2229.8293457031</ele>
        <time>2013-07-24T10:24:42Z</time>
      </trkpt>
      <trkpt lat="44.94022" lon="6.63067">
        <ele>2232.7604980469</ele>
        <time>2013-07-24T10:24:48Z</time>
      </trkpt>
      <trkpt lat="44.94028" lon="6.63075">
        <ele>2235.9020996094</ele>
        <time>2013-07-24T10:24:50Z</time>
      </trkpt>
      <trkpt lat="44.94039" lon="6.63087">
        <ele>2237.6015625</ele>
        <time>2013-07-24T10:24:54Z</time>
      </trkpt>
      <trkpt lat="44.94042" lon="6.63091">
        <ele>2236.80859375</ele>
        <time>2013-07-24T10:24:56Z</time>
      </trkpt>
      <trkpt lat="44.94055" lon="6.63104">
        <ele>2235.1037597656</ele>
        <time>2013-07-24T10:25:02Z</time>
      </trkpt>
      <trkpt lat="44.94072" lon="6.63122">
        <ele>2231.8464355469</ele>
        <time>2013-07-24T10:25:08Z</time>
      </trkpt>
      <trkpt lat="44.9408" lon="6.63134">
        <ele>2228.5146484375</ele>
        <time>2013-07-24T10:25:13Z</time>
      </trkpt>
      <trkpt lat="44.9409" lon="6.63139">
        <ele>2228.7504882812</ele>
        <time>2013-07-24T10:25:19Z</time>
      </trkpt>
      <trkpt lat="44.94099" lon="6.63145">
        <ele>2229.1086425781</ele>
        <time>2013-07-24T10:25:25Z</time>
      </trkpt>
      <trkpt lat="44.94101" lon="6.63146">
        <ele>2228.9333496094</ele>
        <time>2013-07-24T10:25:26Z</time>
      </trkpt>
      <trkpt lat="44.94094" lon="6.63151">
        <ele>2224.857421875</ele>
        <time>2013-07-24T10:25:30Z</time>
      </trkpt>
      <trkpt lat="44.94091" lon="6.63152">
        <ele>2223.6921386719</ele>
        <time>2013-07-24T10:25:32Z</time>
      </trkpt>
      <trkpt lat="44.9409" lon="6.63156">
        <ele>2221.4284667969</ele>
        <time>2013-07-24T10:25:36Z</time>
      </trkpt>
      <trkpt lat="44.94095" lon="6.63163">
        <ele>2220.2756347656</ele>
        <time>2013-07-24T10:25:39Z</time>
      </trkpt>
      <trkpt lat="44.941" lon="6.63179">
        <ele>2221.3930664062</ele>
        <time>2013-07-24T10:25:43Z</time>
      </trkpt>
      <trkpt lat="44.941" lon="6.63184">
        <ele>2221.5407714844</ele>
        <time>2013-07-24T10:25:46Z</time>
      </trkpt>
      <trkpt lat="44.94096" lon="6.63186">
        <ele>2220.4406738281</ele>
        <time>2013-07-24T10:25:51Z</time>
      </trkpt>
      <trkpt lat="44.94088" lon="6.63191">
        <ele>2218.6188964844</ele>
        <time>2013-07-24T10:25:57Z</time>
      </trkpt>
      <trkpt lat="44.94083" lon="6.63201">
        <ele>2220.3779296875</ele>
        <time>2013-07-24T10:26:01Z</time>
      </trkpt>
      <trkpt lat="44.94075" lon="6.63211">
        <ele>2221.9228515625</ele>
        <time>2013-07-24T10:26:05Z</time>
      </trkpt>
      <trkpt lat="44.94063" lon="6.63221">
        <ele>2222.9780273438</ele>
        <time>2013-07-24T10:26:09Z</time>
      </trkpt>
      <trkpt lat="44.94052" lon="6.63232">
        <ele>2223.6540527344</ele>
        <time>2013-07-24T10:26:13Z</time>
      </trkpt>
      <trkpt lat="44.9404" lon="6.63232">
        <ele>2220.341796875</ele>
        <time>2013-07-24T10:26:17Z</time>
      </trkpt>
      <trkpt lat="44.94028" lon="6.63242">
        <ele>2218.9282226562</ele>
        <time>2013-07-24T10:26:22Z</time>
      </trkpt>
      <trkpt lat="44.9402" lon="6.63243">
        <ele>2216.5900878906</ele>
        <time>2013-07-24T10:26:25Z</time>
      </trkpt>
      <trkpt lat="44.94012" lon="6.63249">
        <ele>2215.5595703125</ele>
        <time>2013-07-24T10:26:30Z</time>
      </trkpt>
      <trkpt lat="44.94" lon="6.63253">
        <ele>2212.1572265625</ele>
        <time>2013-07-24T10:26:34Z</time>
      </trkpt>
      <trkpt lat="44.93997" lon="6.63255">
        <ele>2211.3620605469</ele>
        <time>2013-07-24T10:26:35Z</time>
      </trkpt>
      <trkpt lat="44.93987" lon="6.63277">
        <ele>2208.9045410156</ele>
        <time>2013-07-24T10:26:41Z</time>
      </trkpt>
      <trkpt lat="44.93987" lon="6.633">
        <ele>2209.2373046875</ele>
        <time>2013-07-24T10:26:46Z</time>
      </trkpt>
      <trkpt lat="44.93987" lon="6.63305">
        <ele>2209.3188476562</ele>
        <time>2013-07-24T10:26:47Z</time>
      </trkpt>
      <trkpt lat="44.9398" lon="6.63326">
        <ele>2206.4501953125</ele>
        <time>2013-07-24T10:26:52Z</time>
      </trkpt>
      <trkpt lat="44.93971" lon="6.63335">
        <ele>2202.216796875</ele>
        <time>2013-07-24T10:26:55Z</time>
      </trkpt>
      <trkpt lat="44.93967" lon="6.63338">
        <ele>2202.0043945312</ele>
        <time>2013-07-24T10:26:57Z</time>
      </trkpt>
      <trkpt lat="44.9395" lon="6.63351">
        <ele>2200.9765625</ele>
        <time>2013-07-24T10:27:02Z</time>
      </trkpt>
      <trkpt lat="44.93944" lon="6.63358">
        <ele>2200.9868164062</ele>
        <time>2013-07-24T10:27:06Z</time>
      </trkpt>
      <trkpt lat="44.93943" lon="6.63359">
        <ele>2201.1281738281</ele>
        <time>2013-07-24T10:27:10Z</time>
      </trkpt>
      <trkpt lat="44.93943" lon="6.63359">
        <ele>2200.9431152344</ele>
        <time>2013-07-24T10:27:12Z</time>
      </trkpt>
      <trkpt lat="44.93943" lon="6.63357">
        <ele>2200.6743164062</ele>
        <time>2013-07-24T10:27:13Z</time>
      </trkpt>
      <trkpt lat="44.93944" lon="6.63356">
        <ele>2200.4892578125</ele>
        <time>2013-07-24T10:27:14Z</time>
      </trkpt>
      <trkpt lat="44.9395" lon="6.63336">
        <ele>2197.2202148438</ele>
        <time>2013-07-24T10:27:21Z</time>
      </trkpt>
      <trkpt lat="44.93957" lon="6.63327">
        <ele>2197.6032714844</ele>
        <time>2013-07-24T10:27:26Z</time>
      </trkpt>
      <trkpt lat="44.93949" lon="6.63322">
        <ele>2194.5212402344</ele>
        <time>2013-07-24T10:27:31Z</time>
      </trkpt>
      <trkpt lat="44.9394" lon="6.63328">
        <ele>2192.4272460938</ele>
        <time>2013-07-24T10:27:35Z</time>
      </trkpt>
      <trkpt lat="44.93927" lon="6.63345">
        <ele>2192.3940429688</ele>
        <time>2013-07-24T10:27:41Z</time>
      </trkpt>
      <trkpt lat="44.93914" lon="6.63355">
        <ele>2191.6696777344</ele>
        <time>2013-07-24T10:27:45Z</time>
      </trkpt>
      <trkpt lat="44.93908" lon="6.6336">
        <ele>2191.4033203125</ele>
        <time>2013-07-24T10:27:47Z</time>
      </trkpt>
      <trkpt lat="44.93897" lon="6.63373">
        <ele>2190.5639648438</ele>
        <time>2013-07-24T10:27:52Z</time>
      </trkpt>
      <trkpt lat="44.93891" lon="6.63375">
        <ele>2188.8513183594</ele>
        <time>2013-07-24T10:27:54Z</time>
      </trkpt>
      <trkpt lat="44.93888" lon="6.63377">
        <ele>2188.0336914062</ele>
        <time>2013-07-24T10:27:55Z</time>
      </trkpt>
      <trkpt lat="44.93873" lon="6.63381">
        <ele>2181.4694824219</ele>
        <time>2013-07-24T10:28:00Z</time>
      </trkpt>
      <trkpt lat="44.93863" lon="6.63388">
        <ele>2177.7390136719</ele>
        <time>2013-07-24T10:28:05Z</time>
      </trkpt>
      <trkpt lat="44.93855" lon="6.63403">
        <ele>2175.9360351562</ele>
        <time>2013-07-24T10:28:11Z</time>
      </trkpt>
      <trkpt lat="44.93853" lon="6.63411">
        <ele>2175.9360351562</ele>
        <time>2013-07-24T10:28:13Z</time>
      </trkpt>
      <trkpt lat="44.93851" lon="6.63431">
        <ele>2178.25</ele>
        <time>2013-07-24T10:28:17Z</time>
      </trkpt>
      <trkpt lat="44.93853" lon="6.6346">
        <ele>2182.9191894531</ele>
        <time>2013-07-24T10:28:22Z</time>
      </trkpt>
      <trkpt lat="44.93851" lon="6.63483">
        <ele>2185.3486328125</ele>
        <time>2013-07-24T10:28:27Z</time>
      </trkpt>
      <trkpt lat="44.9385" lon="6.6349">
        <ele>2185.8649902344</ele>
        <time>2013-07-24T10:28:29Z</time>
      </trkpt>
      <trkpt lat="44.93839" lon="6.63491">
        <ele>2180.1459960938</ele>
        <time>2013-07-24T10:28:35Z</time>
      </trkpt>
      <trkpt lat="44.93829" lon="6.63489">
        <ele>2175.7431640625</ele>
        <time>2013-07-24T10:28:39Z</time>
      </trkpt>
      <trkpt lat="44.93811" lon="6.63486">
        <ele>2170.5961914062</ele>
        <time>2013-07-24T10:28:45Z</time>
      </trkpt>
      <trkpt lat="44.93795" lon="6.63477">
        <ele>2164.3872070312</ele>
        <time>2013-07-24T10:28:49Z</time>
      </trkpt>
      <trkpt lat="44.93787" lon="6.63479">
        <ele>2165.0725097656</ele>
        <time>2013-07-24T10:28:53Z</time>
      </trkpt>
      <trkpt lat="44.93779" lon="6.63479">
        <ele>2164.9743652344</ele>
        <time>2013-07-24T10:28:56Z</time>
      </trkpt>
      <trkpt lat="44.93764" lon="6.63481">
        <ele>2164.3996582031</ele>
        <time>2013-07-24T10:29:01Z</time>
      </trkpt>
      <trkpt lat="44.93744" lon="6.63483">
        <ele>2162.4116210938</ele>
        <time>2013-07-24T10:29:06Z</time>
      </trkpt>
      <trkpt lat="44.93725" lon="6.63483">
        <ele>2158.7583007812</ele>
        <time>2013-07-24T10:29:11Z</time>
      </trkpt>
      <trkpt lat="44.93708" lon="6.63482">
        <ele>2155.8171386719</ele>
        <time>2013-07-24T10:29:17Z</time>
      </trkpt>
      <trkpt lat="44.93695" lon="6.63482">
        <ele>2153.7121582031</ele>
        <time>2013-07-24T10:29:22Z</time>
      </trkpt>
      <trkpt lat="44.93681" lon="6.63487">
        <ele>2151.5139160156</ele>
        <time>2013-07-24T10:29:26Z</time>
      </trkpt>
      <trkpt lat="44.93665" lon="6.63485">
        <ele>2146.4328613281</ele>
        <time>2013-07-24T10:29:31Z</time>
      </trkpt>
      <trkpt lat="44.93661" lon="6.63482">
        <ele>2144.3974609375</ele>
        <time>2013-07-24T10:29:34Z</time>
      </trkpt>
      <trkpt lat="44.93667" lon="6.63473">
        <ele>2143.416015625</ele>
        <time>2013-07-24T10:29:39Z</time>
      </trkpt>
      <trkpt lat="44.93676" lon="6.63464">
        <ele>2142.6635742188</ele>
        <time>2013-07-24T10:29:44Z</time>
      </trkpt>
      <trkpt lat="44.93686" lon="6.63449">
        <ele>2139.8181152344</ele>
        <time>2013-07-24T10:29:51Z</time>
      </trkpt>
      <trkpt lat="44.93687" lon="6.63443">
        <ele>2138.2446289062</ele>
        <time>2013-07-24T10:29:53Z</time>
      </trkpt>
      <trkpt lat="44.93688" lon="6.63441">
        <ele>2137.6455078125</ele>
        <time>2013-07-24T10:29:54Z</time>
      </trkpt>
      <trkpt lat="44.93697" lon="6.63423">
        <ele>2132.8000488281</ele>
        <time>2013-07-24T10:29:59Z</time>
      </trkpt>
      <trkpt lat="44.93702" lon="6.63415">
        <ele>2129.5678710938</ele>
        <time>2013-07-24T10:30:02Z</time>
      </trkpt>
      <trkpt lat="44.93703" lon="6.63412">
        <ele>2128.49609375</ele>
        <time>2013-07-24T10:30:03Z</time>
      </trkpt>
      <trkpt lat="44.93706" lon="6.6341">
        <ele>2127.4223632812</ele>
        <time>2013-07-24T10:30:05Z</time>
      </trkpt>
      <trkpt lat="44.93707" lon="6.63408">
        <ele>2126.7526855469</ele>
        <time>2013-07-24T10:30:06Z</time>
      </trkpt>
      <trkpt lat="44.93707" lon="6.63408">
        <ele>2126.3903808594</ele>
        <time>2013-07-24T10:30:07Z</time>
      </trkpt>
      <trkpt lat="44.93701" lon="6.63407">
        <ele>2125.7878417969</ele>
        <time>2013-07-24T10:30:11Z</time>
      </trkpt>
      <trkpt lat="44.93696" lon="6.63406">
        <ele>2124.9692382812</ele>
        <time>2013-07-24T10:30:15Z</time>
      </trkpt>
      <trkpt lat="44.93687" lon="6.63408">
        <ele>2123.9208984375</ele>
        <time>2013-07-24T10:30:20Z</time>
      </trkpt>
      <trkpt lat="44.93676" lon="6.63415">
        <ele>2123.8591308594</ele>
        <time>2013-07-24T10:30:25Z</time>
      </trkpt>
      <trkpt lat="44.9366" lon="6.63415">
        <ele>2119.6528320312</ele>
        <time>2013-07-24T10:30:31Z</time>
      </trkpt>
      <trkpt lat="44.93649" lon="6.63415">
        <ele>2117.4846191406</ele>
        <time>2013-07-24T10:30:35Z</time>
      </trkpt>
      <trkpt lat="44.93642" lon="6.63414">
        <ele>2115.0979003906</ele>
        <time>2013-07-24T10:30:40Z</time>
      </trkpt>
      <trkpt lat="44.93632" lon="6.6341">
        <ele>2110.5493164062</ele>
        <time>2013-07-24T10:30:53Z</time>
      </trkpt>
      <trkpt lat="44.93628" lon="6.63408">
        <ele>2108.3605957031</ele>
        <time>2013-07-24T10:30:56Z</time>
      </trkpt>
      <trkpt lat="44.93617" lon="6.63403">
        <ele>2103.5512695312</ele>
        <time>2013-07-24T10:31:02Z</time>
      </trkpt>
      <trkpt lat="44.93608" lon="6.63402">
        <ele>2101.3579101562</ele>
        <time>2013-07-24T10:31:05Z</time>
      </trkpt>
      <trkpt lat="44.93603" lon="6.63401">
        <ele>2100.3979492188</ele>
        <time>2013-07-24T10:31:07Z</time>
      </trkpt>
      <trkpt lat="44.93599" lon="6.63402">
        <ele>2100.4775390625</ele>
        <time>2013-07-24T10:31:09Z</time>
      </trkpt>
      <trkpt lat="44.93596" lon="6.63397">
        <ele>2098.4934082031</ele>
        <time>2013-07-24T10:31:14Z</time>
      </trkpt>
      <trkpt lat="44.93601" lon="6.63395">
        <ele>2097.5168457031</ele>
        <time>2013-07-24T10:31:17Z</time>
      </trkpt>
      <trkpt lat="44.93611" lon="6.63389">
        <ele>2095.1672363281</ele>
        <time>2013-07-24T10:31:22Z</time>
      </trkpt>
      <trkpt lat="44.93624" lon="6.63379">
        <ele>2094.0090332031</ele>
        <time>2013-07-24T10:31:28Z</time>
      </trkpt>
      <trkpt lat="44.93641" lon="6.63372">
        <ele>2095.5209960938</ele>
        <time>2013-07-24T10:31:33Z</time>
      </trkpt>
      <trkpt lat="44.93646" lon="6.63368">
        <ele>2096.1560058594</ele>
        <time>2013-07-24T10:31:37Z</time>
      </trkpt>
      <trkpt lat="44.93645" lon="6.6337">
        <ele>2096.3620605469</ele>
        <time>2013-07-24T10:31:39Z</time>
      </trkpt>
      <trkpt lat="44.93638" lon="6.63367">
        <ele>2092.9536132812</ele>
        <time>2013-07-24T10:31:43Z</time>
      </trkpt>
      <trkpt lat="44.93618" lon="6.63364">
        <ele>2086.7551269531</ele>
        <time>2013-07-24T10:31:50Z</time>
      </trkpt>
      <trkpt lat="44.93608" lon="6.6336">
        <ele>2083.2509765625</ele>
        <time>2013-07-24T10:31:54Z</time>
      </trkpt>
      <trkpt lat="44.93597" lon="6.63352">
        <ele>2079.1311035156</ele>
        <time>2013-07-24T10:32:00Z</time>
      </trkpt>
      <trkpt lat="44.93586" lon="6.63347">
        <ele>2076.0480957031</ele>
        <time>2013-07-24T10:32:05Z</time>
      </trkpt>
      <trkpt lat="44.93574" lon="6.63345">
        <ele>2072.6201171875</ele>
        <time>2013-07-24T10:32:10Z</time>
      </trkpt>
      <trkpt lat="44.93567" lon="6.63346">
        <ele>2070.8581542969</ele>
        <time>2013-07-24T10:32:14Z</time>
      </trkpt>
      <trkpt lat="44.93563" lon="6.63342">
        <ele>2067.966796875</ele>
        <time>2013-07-24T10:32:18Z</time>
      </trkpt>
      <trkpt lat="44.93562" lon="6.6334">
        <ele>2066.8818359375</ele>
        <time>2013-07-24T10:32:21Z</time>
      </trkpt>
      <trkpt lat="44.93568" lon="6.63332">
        <ele>2064.6618652344</ele>
        <time>2013-07-24T10:32:27Z</time>
      </trkpt>
      <trkpt lat="44.93566" lon="6.63326">
        <ele>2061.7321777344</ele>
        <time>2013-07-24T10:32:33Z</time>
      </trkpt>
      <trkpt lat="44.93551" lon="6.6333">
        <ele>2059.6037597656</ele>
        <time>2013-07-24T10:32:38Z</time>
      </trkpt>
      <trkpt lat="44.93542" lon="6.63343">
        <ele>2061.8420410156</ele>
        <time>2013-07-24T10:32:44Z</time>
      </trkpt>
      <trkpt lat="44.93535" lon="6.6335">
        <ele>2062.1809082031</ele>
        <time>2013-07-24T10:32:47Z</time>
      </trkpt>
      <trkpt lat="44.93529" lon="6.63373">
        <ele>2064.8337402344</ele>
        <time>2013-07-24T10:32:52Z</time>
      </trkpt>
      <trkpt lat="44.93528" lon="6.63378">
        <ele>2065.1245117188</ele>
        <time>2013-07-24T10:32:53Z</time>
      </trkpt>
      <trkpt lat="44.93523" lon="6.63392">
        <ele>2065.2580566406</ele>
        <time>2013-07-24T10:32:56Z</time>
      </trkpt>
      <trkpt lat="44.93516" lon="6.63397">
        <ele>2062.2275390625</ele>
        <time>2013-07-24T10:33:00Z</time>
      </trkpt>
      <trkpt lat="44.93513" lon="6.63397">
        <ele>2060.4614257812</ele>
        <time>2013-07-24T10:33:01Z</time>
      </trkpt>
      <trkpt lat="44.93511" lon="6.63396">
        <ele>2059.3896484375</ele>
        <time>2013-07-24T10:33:03Z</time>
      </trkpt>
      <trkpt lat="44.93511" lon="6.63391">
        <ele>2058.3012695312</ele>
        <time>2013-07-24T10:33:06Z</time>
      </trkpt>
      <trkpt lat="44.9351" lon="6.63389">
        <ele>2057.2299804688</ele>
        <time>2013-07-24T10:33:07Z</time>
      </trkpt>
      <trkpt lat="44.93509" lon="6.6337">
        <ele>2053.857421875</ele>
        <time>2013-07-24T10:33:12Z</time>
      </trkpt>
      <trkpt lat="44.9351" lon="6.63364">
        <ele>2053.4663085938</ele>
        <time>2013-07-24T10:33:15Z</time>
      </trkpt>
      <trkpt lat="44.93508" lon="6.63352">
        <ele>2050.3247070312</ele>
        <time>2013-07-24T10:33:37Z</time>
      </trkpt>
      <trkpt lat="44.93504" lon="6.63335">
        <ele>2045.1613769531</ele>
        <time>2013-07-24T10:33:42Z</time>
      </trkpt>
      <trkpt lat="44.93511" lon="6.63319">
        <ele>2044.2459716797</ele>
        <time>2013-07-24T10:33:46Z</time>
      </trkpt>
      <trkpt lat="44.93562" lon="6.63277">
        <ele>2036.39453125</ele>
        <time>2013-07-24T10:33:51Z</time>
      </trkpt>
      <trkpt lat="44.93523" lon="6.63295">
        <ele>2040.0576171875</ele>
        <time>2013-07-24T10:33:55Z</time>
      </trkpt>
      <trkpt lat="44.93525" lon="6.63292">
        <ele>2039.3779296875</ele>
        <time>2013-07-24T10:33:56Z</time>
      </trkpt>
      <trkpt lat="44.93524" lon="6.63288">
        <ele>2037.2355957031</ele>
        <time>2013-07-24T10:34:00Z</time>
      </trkpt>
      <trkpt lat="44.9352" lon="6.63292">
        <ele>2037.5651855469</ele>
        <time>2013-07-24T10:34:03Z</time>
      </trkpt>
      <trkpt lat="44.93519" lon="6.63295">
        <ele>2038.5539550781</ele>
        <time>2013-07-24T10:34:04Z</time>
      </trkpt>
      <trkpt lat="44.93517" lon="6.63297">
        <ele>2038.7392578125</ele>
        <time>2013-07-24T10:34:05Z</time>
      </trkpt>
      <trkpt lat="44.93515" lon="6.63299">
        <ele>2038.7805175781</ele>
        <time>2013-07-24T10:34:06Z</time>
      </trkpt>
      <trkpt lat="44.93504" lon="6.63307">
        <ele>2038.4339599609</ele>
        <time>2013-07-24T10:34:11Z</time>
      </trkpt>
      <trkpt lat="44.93498" lon="6.63312">
        <ele>2037.2072753906</ele>
        <time>2013-07-24T10:34:13Z</time>
      </trkpt>
      <trkpt lat="44.93493" lon="6.63325">
        <ele>2037.0710449219</ele>
        <time>2013-07-24T10:34:17Z</time>
      </trkpt>
      <trkpt lat="44.9349" lon="6.63339">
        <ele>2037.4658203125</ele>
        <time>2013-07-24T10:34:21Z</time>
      </trkpt>
      <trkpt lat="44.93489" lon="6.63343">
        <ele>2037.0401611328</ele>
        <time>2013-07-24T10:34:22Z</time>
      </trkpt>
      <trkpt lat="44.93483" lon="6.63357">
        <ele>2034.8879394531</ele>
        <time>2013-07-24T10:34:26Z</time>
      </trkpt>
      <trkpt lat="44.93482" lon="6.6336">
        <ele>2034.1317138672</ele>
        <time>2013-07-24T10:34:27Z</time>
      </trkpt>
      <trkpt lat="44.93468" lon="6.63375">
        <ele>2025.4197998047</ele>
        <time>2013-07-24T10:34:33Z</time>
      </trkpt>
      <trkpt lat="44.93459" lon="6.63387">
        <ele>2020.0793457031</ele>
        <time>2013-07-24T10:34:38Z</time>
      </trkpt>
      <trkpt lat="44.93458" lon="6.63396">
        <ele>2019.9083251953</ele>
        <time>2013-07-24T10:34:40Z</time>
      </trkpt>
      <trkpt lat="44.93459" lon="6.63425">
        <ele>2022.8696289062</ele>
        <time>2013-07-24T10:34:46Z</time>
      </trkpt>
      <trkpt lat="44.93454" lon="6.63446">
        <ele>2021.0053710938</ele>
        <time>2013-07-24T10:34:50Z</time>
      </trkpt>
      <trkpt lat="44.93451" lon="6.6346">
        <ele>2020.1302490234</ele>
        <time>2013-07-24T10:34:54Z</time>
      </trkpt>
      <trkpt lat="44.93451" lon="6.63463">
        <ele>2020.6130371094</ele>
        <time>2013-07-24T10:34:55Z</time>
      </trkpt>
      <trkpt lat="44.9345" lon="6.63467">
        <ele>2020.5908203125</ele>
        <time>2013-07-24T10:34:59Z</time>
      </trkpt>
      <trkpt lat="44.93445" lon="6.63468">
        <ele>2017.5662841797</ele>
        <time>2013-07-24T10:35:04Z</time>
      </trkpt>
      <trkpt lat="44.93445" lon="6.63469">
        <ele>2017.7613525391</ele>
        <time>2013-07-24T10:35:05Z</time>
      </trkpt>
      <trkpt lat="44.93441" lon="6.63468">
        <ele>2017.4654541016</ele>
        <time>2013-07-24T10:35:07Z</time>
      </trkpt>
      <trkpt lat="44.93429" lon="6.63462">
        <ele>2015.6051025391</ele>
        <time>2013-07-24T10:35:13Z</time>
      </trkpt>
      <trkpt lat="44.93424" lon="6.63459">
        <ele>2014.1898193359</ele>
        <time>2013-07-24T10:35:15Z</time>
      </trkpt>
      <trkpt lat="44.93404" lon="6.63455">
        <ele>2013.9788818359</ele>
        <time>2013-07-24T10:35:22Z</time>
      </trkpt>
      <trkpt lat="44.93394" lon="6.63451">
        <ele>2014.1267089844</ele>
        <time>2013-07-24T10:35:26Z</time>
      </trkpt>
      <trkpt lat="44.9338" lon="6.6344">
        <ele>2013.4133300781</ele>
        <time>2013-07-24T10:35:30Z</time>
      </trkpt>
      <trkpt lat="44.93373" lon="6.63434">
        <ele>2013.5756835938</ele>
        <time>2013-07-24T10:35:32Z</time>
      </trkpt>
      <trkpt lat="44.93366" lon="6.63411">
        <ele>2009.6694335938</ele>
        <time>2013-07-24T10:35:38Z</time>
      </trkpt>
      <trkpt lat="44.93365" lon="6.63401">
        <ele>2006.9984130859</ele>
        <time>2013-07-24T10:35:40Z</time>
      </trkpt>
      <trkpt lat="44.93364" lon="6.63397">
        <ele>2006.3220214844</ele>
        <time>2013-07-24T10:35:41Z</time>
      </trkpt>
      <trkpt lat="44.93356" lon="6.63376">
        <ele>2003.5053710938</ele>
        <time>2013-07-24T10:35:47Z</time>
      </trkpt>
      <trkpt lat="44.93355" lon="6.6337">
        <ele>2002.1732177734</ele>
        <time>2013-07-24T10:35:49Z</time>
      </trkpt>
      <trkpt lat="44.93346" lon="6.6336">
        <ele>2005.1245117188</ele>
        <time>2013-07-24T10:35:54Z</time>
      </trkpt>
      <trkpt lat="44.93333" lon="6.63352">
        <ele>2010.6317138672</ele>
        <time>2013-07-24T10:35:59Z</time>
      </trkpt>
      <trkpt lat="44.93316" lon="6.63351">
        <ele>2012.2366943359</ele>
        <time>2013-07-24T10:36:04Z</time>
      </trkpt>
      <trkpt lat="44.93307" lon="6.63351">
        <ele>2013.0202636719</ele>
        <time>2013-07-24T10:36:06Z</time>
      </trkpt>
      <trkpt lat="44.9329" lon="6.63338">
        <ele>2010.2349853516</ele>
        <time>2013-07-24T10:36:12Z</time>
      </trkpt>
      <trkpt lat="44.93286" lon="6.63337">
        <ele>2009.8155517578</ele>
        <time>2013-07-24T10:36:14Z</time>
      </trkpt>
      <trkpt lat="44.93283" lon="6.6335">
        <ele>2011.7144775391</ele>
        <time>2013-07-24T10:36:19Z</time>
      </trkpt>
      <trkpt lat="44.93279" lon="6.6337">
        <ele>2014.6280517578</ele>
        <time>2013-07-24T10:36:24Z</time>
      </trkpt>
      <trkpt lat="44.93278" lon="6.63374">
        <ele>2015.3742675781</ele>
        <time>2013-07-24T10:36:25Z</time>
      </trkpt>
      <trkpt lat="44.93271" lon="6.63395">
        <ele>2016.7047119141</ele>
        <time>2013-07-24T10:36:30Z</time>
      </trkpt>
      <trkpt lat="44.93267" lon="6.63408">
        <ele>2017.5114746094</ele>
        <time>2013-07-24T10:36:34Z</time>
      </trkpt>
      <trkpt lat="44.93259" lon="6.63426">
        <ele>2017.9876708984</ele>
        <time>2013-07-24T10:36:39Z</time>
      </trkpt>
      <trkpt lat="44.93257" lon="6.63431">
        <ele>2017.94921875</ele>
        <time>2013-07-24T10:36:41Z</time>
      </trkpt>
      <trkpt lat="44.93256" lon="6.63436">
        <ele>2018.2756347656</ele>
        <time>2013-07-24T10:36:42Z</time>
      </trkpt>
      <trkpt lat="44.93248" lon="6.63447">
        <ele>2017.0972900391</ele>
        <time>2013-07-24T10:36:46Z</time>
      </trkpt>
      <trkpt lat="44.93246" lon="6.63452">
        <ele>2016.7940673828</ele>
        <time>2013-07-24T10:36:48Z</time>
      </trkpt>
      <trkpt lat="44.93244" lon="6.63461">
        <ele>2016.5246582031</ele>
        <time>2013-07-24T10:36:52Z</time>
      </trkpt>
      <trkpt lat="44.93243" lon="6.63472">
        <ele>2017.4697265625</ele>
        <time>2013-07-24T10:36:59Z</time>
      </trkpt>
      <trkpt lat="44.93245" lon="6.63476">
        <ele>2019.1993408203</ele>
        <time>2013-07-24T10:37:01Z</time>
      </trkpt>
      <trkpt lat="44.93246" lon="6.63478">
        <ele>2020.2868652344</ele>
        <time>2013-07-24T10:37:03Z</time>
      </trkpt>
      <trkpt lat="44.93246" lon="6.63485">
        <ele>2021.5550537109</ele>
        <time>2013-07-24T10:37:08Z</time>
      </trkpt>
      <trkpt lat="44.93246" lon="6.63492">
        <ele>2022.3195800781</ele>
        <time>2013-07-24T10:37:14Z</time>
      </trkpt>
      <trkpt lat="44.93246" lon="6.63499">
        <ele>2023.3608398438</ele>
        <time>2013-07-24T10:37:22Z</time>
      </trkpt>
      <trkpt lat="44.93246" lon="6.63498">
        <ele>2023.4603271484</ele>
        <time>2013-07-24T10:37:31Z</time>
      </trkpt>
      <trkpt lat="44.93246" lon="6.63501">
        <ele>2024.1083984375</ele>
        <time>2013-07-24T10:37:35Z</time>
      </trkpt>
      <trkpt lat="44.93247" lon="6.63502">
        <ele>2024.4860839844</ele>
        <time>2013-07-24T10:37:36Z</time>
      </trkpt>
      <trkpt lat="44.93247" lon="6.63503">
        <ele>2024.6577148438</ele>
        <time>2013-07-24T10:37:37Z</time>
      </trkpt>
      <trkpt lat="44.93246" lon="6.63508">
        <ele>2025.0422363281</ele>
        <time>2013-07-24T10:37:41Z</time>
      </trkpt>
      <trkpt lat="44.93246" lon="6.63508">
        <ele>2025.1452636719</ele>
        <time>2013-07-24T10:37:42Z</time>
      </trkpt>
      <trkpt lat="44.9324" lon="6.6351">
        <ele>2021.6502685547</ele>
        <time>2013-07-24T10:37:49Z</time>
      </trkpt>
      <trkpt lat="44.93238" lon="6.63509">
        <ele>2020.7026367188</ele>
        <time>2013-07-24T10:37:50Z</time>
      </trkpt>
      <trkpt lat="44.93239" lon="6.63514">
        <ele>2021.7875976562</ele>
        <time>2013-07-24T10:37:53Z</time>
      </trkpt>
      <trkpt lat="44.9324" lon="6.63519">
        <ele>2022.9273681641</ele>
        <time>2013-07-24T10:37:55Z</time>
      </trkpt>
      <trkpt lat="44.93245" lon="6.6354">
        <ele>2028.5239257812</ele>
        <time>2013-07-24T10:38:02Z</time>
      </trkpt>
      <trkpt lat="44.93247" lon="6.63558">
        <ele>2031.7769775391</ele>
        <time>2013-07-24T10:38:10Z</time>
      </trkpt>
      <trkpt lat="44.93246" lon="6.63561">
        <ele>2031.6313476562</ele>
        <time>2013-07-24T10:38:12Z</time>
      </trkpt>
      <trkpt lat="44.93245" lon="6.63563">
        <ele>2031.2720947266</ele>
        <time>2013-07-24T10:38:13Z</time>
      </trkpt>
      <trkpt lat="44.93245" lon="6.63564">
        <ele>2031.2563476562</ele>
        <time>2013-07-24T10:38:14Z</time>
      </trkpt>
      <trkpt lat="44.93243" lon="6.63569">
        <ele>2031.3819580078</ele>
        <time>2013-07-24T10:38:18Z</time>
      </trkpt>
      <trkpt lat="44.93243" lon="6.63569">
        <ele>2031.3819580078</ele>
        <time>2013-07-24T10:38:20Z</time>
      </trkpt>
      <trkpt lat="44.93243" lon="6.63574">
        <ele>2032.0666503906</ele>
        <time>2013-07-24T10:38:23Z</time>
      </trkpt>
      <trkpt lat="44.93222" lon="6.63588">
        <ele>2026.5424804688</ele>
        <time>2013-07-24T10:57:43Z</time>
      </trkpt>
      <trkpt lat="44.93213" lon="6.63584">
        <ele>2025.2720947266</ele>
        <time>2013-07-24T10:57:46Z</time>
      </trkpt>
      <trkpt lat="44.93201" lon="6.63577">
        <ele>2022.8192138672</ele>
        <time>2013-07-24T10:57:52Z</time>
      </trkpt>
      <trkpt lat="44.9319" lon="6.63575">
        <ele>2022.3348388672</ele>
        <time>2013-07-24T10:57:56Z</time>
      </trkpt>
      <trkpt lat="44.93173" lon="6.6357">
        <ele>2023.1213378906</ele>
        <time>2013-07-24T10:58:02Z</time>
      </trkpt>
      <trkpt lat="44.93171" lon="6.6357">
        <ele>2023.5268554688</ele>
        <time>2013-07-24T10:58:03Z</time>
      </trkpt>
      <trkpt lat="44.93154" lon="6.63572">
        <ele>2025.2902832031</ele>
        <time>2013-07-24T10:58:09Z</time>
      </trkpt>
      <trkpt lat="44.93139" lon="6.63566">
        <ele>2023.9992675781</ele>
        <time>2013-07-24T10:58:14Z</time>
      </trkpt>
      <trkpt lat="44.93129" lon="6.63558">
        <ele>2022.37890625</ele>
        <time>2013-07-24T10:58:18Z</time>
      </trkpt>
      <trkpt lat="44.93119" lon="6.6355">
        <ele>2020.2600097656</ele>
        <time>2013-07-24T10:58:22Z</time>
      </trkpt>
      <trkpt lat="44.93103" lon="6.63539">
        <ele>2016.9105224609</ele>
        <time>2013-07-24T10:58:27Z</time>
      </trkpt>
      <trkpt lat="44.93092" lon="6.63529">
        <ele>2014.1031494141</ele>
        <time>2013-07-24T10:58:32Z</time>
      </trkpt>
      <trkpt lat="44.93085" lon="6.63525">
        <ele>2013.4947509766</ele>
        <time>2013-07-24T10:58:35Z</time>
      </trkpt>
      <trkpt lat="44.9307" lon="6.6353">
        <ele>2018.146484375</ele>
        <time>2013-07-24T10:58:42Z</time>
      </trkpt>
      <trkpt lat="44.93059" lon="6.63536">
        <ele>2021.6466064453</ele>
        <time>2013-07-24T10:58:46Z</time>
      </trkpt>
      <trkpt lat="44.93044" lon="6.6354">
        <ele>2021.6579589844</ele>
        <time>2013-07-24T10:58:51Z</time>
      </trkpt>
      <trkpt lat="44.93029" lon="6.6354">
        <ele>2020.2163085938</ele>
        <time>2013-07-24T10:58:55Z</time>
      </trkpt>
      <trkpt lat="44.93024" lon="6.6354">
        <ele>2019.7888183594</ele>
        <time>2013-07-24T10:58:56Z</time>
      </trkpt>
      <trkpt lat="44.93014" lon="6.63527">
        <ele>2015.8343505859</ele>
        <time>2013-07-24T10:59:01Z</time>
      </trkpt>
      <trkpt lat="44.93007" lon="6.63519">
        <ele>2012.8657226562</ele>
        <time>2013-07-24T10:59:05Z</time>
      </trkpt>
      <trkpt lat="44.92996" lon="6.63512">
        <ele>2010.9482421875</ele>
        <time>2013-07-24T10:59:09Z</time>
      </trkpt>
      <trkpt lat="44.92986" lon="6.63507">
        <ele>2009.4487304688</ele>
        <time>2013-07-24T10:59:12Z</time>
      </trkpt>
      <trkpt lat="44.92968" lon="6.63496">
        <ele>2006.82421875</ele>
        <time>2013-07-24T10:59:18Z</time>
      </trkpt>
      <trkpt lat="44.92942" lon="6.63487">
        <ele>2003.2084960938</ele>
        <time>2013-07-24T10:59:24Z</time>
      </trkpt>
      <trkpt lat="44.92931" lon="6.63483">
        <ele>2001.2172851562</ele>
        <time>2013-07-24T10:59:27Z</time>
      </trkpt>
      <trkpt lat="44.92908" lon="6.63479">
        <ele>1998.6967773438</ele>
        <time>2013-07-24T10:59:32Z</time>
      </trkpt>
      <trkpt lat="44.92896" lon="6.63476">
        <ele>1997.4470214844</ele>
        <time>2013-07-24T10:59:35Z</time>
      </trkpt>
      <trkpt lat="44.92883" lon="6.63467">
        <ele>1994.7951660156</ele>
        <time>2013-07-24T10:59:40Z</time>
      </trkpt>
      <trkpt lat="44.92879" lon="6.63465">
        <ele>1994.3831787109</ele>
        <time>2013-07-24T10:59:42Z</time>
      </trkpt>
      <trkpt lat="44.92857" lon="6.63457">
        <ele>1992.6511230469</ele>
        <time>2013-07-24T10:59:48Z</time>
      </trkpt>
      <trkpt lat="44.92842" lon="6.63448">
        <ele>1990.6181640625</ele>
        <time>2013-07-24T10:59:53Z</time>
      </trkpt>
      <trkpt lat="44.92823" lon="6.63429">
        <ele>1987.2727050781</ele>
        <time>2013-07-24T10:59:57Z</time>
      </trkpt>
      <trkpt lat="44.9282" lon="6.63425">
        <ele>1986.5589599609</ele>
        <time>2013-07-24T10:59:58Z</time>
      </trkpt>
      <trkpt lat="44.92793" lon="6.63413">
        <ele>1985.2492675781</ele>
        <time>2013-07-24T11:00:03Z</time>
      </trkpt>
      <trkpt lat="44.92766" lon="6.6341">
        <ele>1985.0106201172</ele>
        <time>2013-07-24T11:00:08Z</time>
      </trkpt>
      <trkpt lat="44.92744" lon="6.63405">
        <ele>1984.3120117188</ele>
        <time>2013-07-24T11:00:12Z</time>
      </trkpt>
      <trkpt lat="44.92726" lon="6.634">
        <ele>1982.9595947266</ele>
        <time>2013-07-24T11:00:15Z</time>
      </trkpt>
      <trkpt lat="44.92706" lon="6.63395">
        <ele>1981.5344238281</ele>
        <time>2013-07-24T11:00:18Z</time>
      </trkpt>
      <trkpt lat="44.92672" lon="6.63388">
        <ele>1979.9798583984</ele>
        <time>2013-07-24T11:00:23Z</time>
      </trkpt>
      <trkpt lat="44.92654" lon="6.63398">
        <ele>1981.2912597656</ele>
        <time>2013-07-24T11:00:27Z</time>
      </trkpt>
      <trkpt lat="44.92641" lon="6.63412">
        <ele>1982.6088867188</ele>
        <time>2013-07-24T11:00:32Z</time>
      </trkpt>
      <trkpt lat="44.92627" lon="6.63425">
        <ele>1979.84375</ele>
        <time>2013-07-24T11:00:38Z</time>
      </trkpt>
      <trkpt lat="44.92622" lon="6.6344">
        <ele>1980.4616699219</ele>
        <time>2013-07-24T11:00:42Z</time>
      </trkpt>
      <trkpt lat="44.92612" lon="6.63459">
        <ele>1979.6359863281</ele>
        <time>2013-07-24T11:00:46Z</time>
      </trkpt>
      <trkpt lat="44.92602" lon="6.63463">
        <ele>1979.685546875</ele>
        <time>2013-07-24T11:00:49Z</time>
      </trkpt>
      <trkpt lat="44.92579" lon="6.63448">
        <ele>1975.6496582031</ele>
        <time>2013-07-24T11:00:55Z</time>
      </trkpt>
      <trkpt lat="44.92566" lon="6.6344">
        <ele>1972.6110839844</ele>
        <time>2013-07-24T11:01:00Z</time>
      </trkpt>
      <trkpt lat="44.92564" lon="6.63437">
        <ele>1971.9475097656</ele>
        <time>2013-07-24T11:01:01Z</time>
      </trkpt>
      <trkpt lat="44.92548" lon="6.6343">
        <ele>1968.4896240234</ele>
        <time>2013-07-24T11:01:07Z</time>
      </trkpt>
      <trkpt lat="44.92546" lon="6.63429">
        <ele>1967.9427490234</ele>
        <time>2013-07-24T11:01:08Z</time>
      </trkpt>
      <trkpt lat="44.92537" lon="6.63413">
        <ele>1964.0593261719</ele>
        <time>2013-07-24T11:01:14Z</time>
      </trkpt>
      <trkpt lat="44.92529" lon="6.63399">
        <ele>1961.1247558594</ele>
        <time>2013-07-24T11:01:19Z</time>
      </trkpt>
      <trkpt lat="44.92525" lon="6.63393">
        <ele>1959.1644287109</ele>
        <time>2013-07-24T11:01:21Z</time>
      </trkpt>
      <trkpt lat="44.92516" lon="6.63398">
        <ele>1955.1107177734</ele>
        <time>2013-07-24T11:01:26Z</time>
      </trkpt>
      <trkpt lat="44.92514" lon="6.63414">
        <ele>1955.9945068359</ele>
        <time>2013-07-24T11:01:31Z</time>
      </trkpt>
      <trkpt lat="44.92511" lon="6.63419">
        <ele>1955.4940185547</ele>
        <time>2013-07-24T11:01:33Z</time>
      </trkpt>
      <trkpt lat="44.92502" lon="6.63436">
        <ele>1952.9376220703</ele>
        <time>2013-07-24T11:01:38Z</time>
      </trkpt>
      <trkpt lat="44.92498" lon="6.63453">
        <ele>1953.0473632812</ele>
        <time>2013-07-24T11:01:42Z</time>
      </trkpt>
      <trkpt lat="44.92493" lon="6.63474">
        <ele>1953.4621582031</ele>
        <time>2013-07-24T11:01:48Z</time>
      </trkpt>
      <trkpt lat="44.92486" lon="6.63491">
        <ele>1951.5721435547</ele>
        <time>2013-07-24T11:01:52Z</time>
      </trkpt>
      <trkpt lat="44.92477" lon="6.63504">
        <ele>1948.2082519531</ele>
        <time>2013-07-24T11:01:56Z</time>
      </trkpt>
      <trkpt lat="44.92464" lon="6.63521">
        <ele>1943.0863037109</ele>
        <time>2013-07-24T11:02:00Z</time>
      </trkpt>
      <trkpt lat="44.92449" lon="6.63544">
        <ele>1937.5682373047</ele>
        <time>2013-07-24T11:02:06Z</time>
      </trkpt>
      <trkpt lat="44.92447" lon="6.63563">
        <ele>1937.7728271484</ele>
        <time>2013-07-24T11:02:11Z</time>
      </trkpt>
      <trkpt lat="44.92439" lon="6.63568">
        <ele>1934.2116699219</ele>
        <time>2013-07-24T11:02:14Z</time>
      </trkpt>
      <trkpt lat="44.92432" lon="6.63571">
        <ele>1930.7514648438</ele>
        <time>2013-07-24T11:02:16Z</time>
      </trkpt>
      <trkpt lat="44.92421" lon="6.63571">
        <ele>1924.7313232422</ele>
        <time>2013-07-24T11:02:20Z</time>
      </trkpt>
      <trkpt lat="44.92415" lon="6.63568">
        <ele>1921.591796875</ele>
        <time>2013-07-24T11:02:23Z</time>
      </trkpt>
      <trkpt lat="44.92408" lon="6.63573">
        <ele>1919.533203125</ele>
        <time>2013-07-24T11:02:27Z</time>
      </trkpt>
      <trkpt lat="44.92404" lon="6.63575">
        <ele>1918.2769775391</ele>
        <time>2013-07-24T11:02:29Z</time>
      </trkpt>
      <trkpt lat="44.92401" lon="6.63582">
        <ele>1918.0003662109</ele>
        <time>2013-07-24T11:02:32Z</time>
      </trkpt>
      <trkpt lat="44.92402" lon="6.63604">
        <ele>1921.6135253906</ele>
        <time>2013-07-24T11:02:38Z</time>
      </trkpt>
      <trkpt lat="44.92403" lon="6.63619">
        <ele>1922.8654785156</ele>
        <time>2013-07-24T11:02:42Z</time>
      </trkpt>
      <trkpt lat="44.92403" lon="6.63643">
        <ele>1922.1298828125</ele>
        <time>2013-07-24T11:02:47Z</time>
      </trkpt>
      <trkpt lat="44.92408" lon="6.63669">
        <ele>1923.1396484375</ele>
        <time>2013-07-24T11:02:51Z</time>
      </trkpt>
      <trkpt lat="44.92407" lon="6.63682">
        <ele>1921.1137695312</ele>
        <time>2013-07-24T11:02:53Z</time>
      </trkpt>
      <trkpt lat="44.92397" lon="6.63713">
        <ele>1910.1162109375</ele>
        <time>2013-07-24T11:02:58Z</time>
      </trkpt>
      <trkpt lat="44.92391" lon="6.6372">
        <ele>1904.7449951172</ele>
        <time>2013-07-24T11:03:01Z</time>
      </trkpt>
      <trkpt lat="44.92386" lon="6.63727">
        <ele>1903.0013427734</ele>
        <time>2013-07-24T11:03:04Z</time>
      </trkpt>
      <trkpt lat="44.92382" lon="6.63721">
        <ele>1902.0444335938</ele>
        <time>2013-07-24T11:03:09Z</time>
      </trkpt>
      <trkpt lat="44.92382" lon="6.63713">
        <ele>1902.6159667969</ele>
        <time>2013-07-24T11:03:12Z</time>
      </trkpt>
      <trkpt lat="44.92376" lon="6.63697">
        <ele>1901.7517089844</ele>
        <time>2013-07-24T11:03:17Z</time>
      </trkpt>
      <trkpt lat="44.9237" lon="6.63673">
        <ele>1899.7421875</ele>
        <time>2013-07-24T11:03:23Z</time>
      </trkpt>
      <trkpt lat="44.92353" lon="6.63628">
        <ele>1892.9512939453</ele>
        <time>2013-07-24T11:03:28Z</time>
      </trkpt>
      <trkpt lat="44.92353" lon="6.63644">
        <ele>1891.4987792969</ele>
        <time>2013-07-24T11:03:33Z</time>
      </trkpt>
      <trkpt lat="44.92347" lon="6.63613">
        <ele>1890.939453125</ele>
        <time>2013-07-24T11:03:38Z</time>
      </trkpt>
      <trkpt lat="44.92335" lon="6.63598">
        <ele>1886.2537841797</ele>
        <time>2013-07-24T11:03:43Z</time>
      </trkpt>
      <trkpt lat="44.92335" lon="6.63598">
        <ele>1886.2739257812</ele>
        <time>2013-07-24T11:03:49Z</time>
      </trkpt>
      <trkpt lat="44.92334" lon="6.63593">
        <ele>1886.2528076172</ele>
        <time>2013-07-24T11:03:55Z</time>
      </trkpt>
      <trkpt lat="44.92333" lon="6.63581">
        <ele>1886.9044189453</ele>
        <time>2013-07-24T11:04:01Z</time>
      </trkpt>
      <trkpt lat="44.92333" lon="6.6356">
        <ele>1887.6374511719</ele>
        <time>2013-07-24T11:04:08Z</time>
      </trkpt>
      <trkpt lat="44.92336" lon="6.6354">
        <ele>1885.8900146484</ele>
        <time>2013-07-24T11:04:15Z</time>
      </trkpt>
      <trkpt lat="44.92339" lon="6.63518">
        <ele>1884.4903564453</ele>
        <time>2013-07-24T11:04:24Z</time>
      </trkpt>
      <trkpt lat="44.92344" lon="6.63512">
        <ele>1886.7595214844</ele>
        <time>2013-07-24T11:04:28Z</time>
      </trkpt>
      <trkpt lat="44.92356" lon="6.63499">
        <ele>1892.1896972656</ele>
        <time>2013-07-24T11:04:37Z</time>
      </trkpt>
      <trkpt lat="44.92362" lon="6.63491">
        <ele>1893.9287109375</ele>
        <time>2013-07-24T11:04:43Z</time>
      </trkpt>
      <trkpt lat="44.92367" lon="6.63483">
        <ele>1894.7645263672</ele>
        <time>2013-07-24T11:04:49Z</time>
      </trkpt>
      <trkpt lat="44.92375" lon="6.63475">
        <ele>1896.8751220703</ele>
        <time>2013-07-24T11:04:56Z</time>
      </trkpt>
      <trkpt lat="44.92381" lon="6.63467">
        <ele>1898.1571044922</ele>
        <time>2013-07-24T11:05:02Z</time>
      </trkpt>
      <trkpt lat="44.9239" lon="6.63455">
        <ele>1900.8209228516</ele>
        <time>2013-07-24T11:05:09Z</time>
      </trkpt>
      <trkpt lat="44.92395" lon="6.63439">
        <ele>1900.9254150391</ele>
        <time>2013-07-24T11:05:16Z</time>
      </trkpt>
      <trkpt lat="44.92398" lon="6.63418">
        <ele>1900.2897949219</ele>
        <time>2013-07-24T11:05:25Z</time>
      </trkpt>
      <trkpt lat="44.92402" lon="6.63403">
        <ele>1900.6459960938</ele>
        <time>2013-07-24T11:05:32Z</time>
      </trkpt>
      <trkpt lat="44.92404" lon="6.63394">
        <ele>1901.1231689453</ele>
        <time>2013-07-24T11:05:37Z</time>
      </trkpt>
      <trkpt lat="44.92407" lon="6.63384">
        <ele>1901.6323242188</ele>
        <time>2013-07-24T11:05:42Z</time>
      </trkpt>
      <trkpt lat="44.92413" lon="6.63368">
        <ele>1903.7084960938</ele>
        <time>2013-07-24T11:05:51Z</time>
      </trkpt>
      <trkpt lat="44.92418" lon="6.63356">
        <ele>1905.1453857422</ele>
        <time>2013-07-24T11:05:57Z</time>
      </trkpt>
      <trkpt lat="44.92421" lon="6.63343">
        <ele>1905.9632568359</ele>
        <time>2013-07-24T11:06:03Z</time>
      </trkpt>
      <trkpt lat="44.92419" lon="6.63327">
        <ele>1903.6484375</ele>
        <time>2013-07-24T11:06:11Z</time>
      </trkpt>
      <trkpt lat="44.92421" lon="6.63315">
        <ele>1903.2728271484</ele>
        <time>2013-07-24T11:06:18Z</time>
      </trkpt>
      <trkpt lat="44.92427" lon="6.63306">
        <ele>1904.0148925781</ele>
        <time>2013-07-24T11:06:24Z</time>
      </trkpt>
      <trkpt lat="44.92439" lon="6.63292">
        <ele>1903.6143798828</ele>
        <time>2013-07-24T11:06:33Z</time>
      </trkpt>
      <trkpt lat="44.9245" lon="6.63281">
        <ele>1903.3988037109</ele>
        <time>2013-07-24T11:06:42Z</time>
      </trkpt>
      <trkpt lat="44.92461" lon="6.63274">
        <ele>1903.794921875</ele>
        <time>2013-07-24T11:06:47Z</time>
      </trkpt>
      <trkpt lat="44.92476" lon="6.63269">
        <ele>1906.9265136719</ele>
        <time>2013-07-24T11:06:52Z</time>
      </trkpt>
      <trkpt lat="44.92493" lon="6.63268">
        <ele>1913.5496826172</ele>
        <time>2013-07-24T11:06:56Z</time>
      </trkpt>
      <trkpt lat="44.925" lon="6.63265">
        <ele>1915.8851318359</ele>
        <time>2013-07-24T11:06:58Z</time>
      </trkpt>
      <trkpt lat="44.92501" lon="6.63246">
        <ele>1915.6254882812</ele>
        <time>2013-07-24T11:07:02Z</time>
      </trkpt>
      <trkpt lat="44.92498" lon="6.63228">
        <ele>1913.6376953125</ele>
        <time>2013-07-24T11:07:06Z</time>
      </trkpt>
      <trkpt lat="44.92494" lon="6.63203">
        <ele>1912.0924072266</ele>
        <time>2013-07-24T11:07:13Z</time>
      </trkpt>
      <trkpt lat="44.92493" lon="6.63182">
        <ele>1912.1981201172</ele>
        <time>2013-07-24T11:07:20Z</time>
      </trkpt>
      <trkpt lat="44.9249" lon="6.63164">
        <ele>1911.3880615234</ele>
        <time>2013-07-24T11:07:26Z</time>
      </trkpt>
      <trkpt lat="44.92493" lon="6.63144">
        <ele>1913.0113525391</ele>
        <time>2013-07-24T11:07:33Z</time>
      </trkpt>
      <trkpt lat="44.92501" lon="6.63127">
        <ele>1915.8453369141</ele>
        <time>2013-07-24T11:07:40Z</time>
      </trkpt>
      <trkpt lat="44.9251" lon="6.63115">
        <ele>1918.8660888672</ele>
        <time>2013-07-24T11:07:46Z</time>
      </trkpt>
      <trkpt lat="44.92521" lon="6.63096">
        <ele>1921.2824707031</ele>
        <time>2013-07-24T11:07:54Z</time>
      </trkpt>
      <trkpt lat="44.9253" lon="6.63076">
        <ele>1922.8936767578</ele>
        <time>2013-07-24T11:08:01Z</time>
      </trkpt>
      <trkpt lat="44.92537" lon="6.63054">
        <ele>1921.6525878906</ele>
        <time>2013-07-24T11:08:09Z</time>
      </trkpt>
      <trkpt lat="44.92543" lon="6.63041">
        <ele>1920.2978515625</ele>
        <time>2013-07-24T11:08:16Z</time>
      </trkpt>
      <trkpt lat="44.92545" lon="6.63039">
        <ele>1920.2701416016</ele>
        <time>2013-07-24T11:08:17Z</time>
      </trkpt>
      <trkpt lat="44.92546" lon="6.63034">
        <ele>1919.5948486328</ele>
        <time>2013-07-24T11:08:23Z</time>
      </trkpt>
      <trkpt lat="44.92549" lon="6.63034">
        <ele>1920.0090332031</ele>
        <time>2013-07-24T11:08:36Z</time>
      </trkpt>
      <trkpt lat="44.9255" lon="6.63035">
        <ele>1920.2429199219</ele>
        <time>2013-07-24T11:08:37Z</time>
      </trkpt>
      <trkpt lat="44.92552" lon="6.63045">
        <ele>1922.0594482422</ele>
        <time>2013-07-24T11:08:46Z</time>
      </trkpt>
      <trkpt lat="44.92553" lon="6.63048">
        <ele>1922.5712890625</ele>
        <time>2013-07-24T11:08:52Z</time>
      </trkpt>
      <trkpt lat="44.92552" lon="6.63051">
        <ele>1923.0003662109</ele>
        <time>2013-07-24T11:08:54Z</time>
      </trkpt>
      <trkpt lat="44.92552" lon="6.63072">
        <ele>1926.2856445312</ele>
        <time>2013-07-24T11:09:01Z</time>
      </trkpt>
      <trkpt lat="44.92553" lon="6.63086">
        <ele>1928.7446289062</ele>
        <time>2013-07-24T11:09:07Z</time>
      </trkpt>
      <trkpt lat="44.92553" lon="6.63095">
        <ele>1930.5749511719</ele>
        <time>2013-07-24T11:09:13Z</time>
      </trkpt>
      <trkpt lat="44.92558" lon="6.63099">
        <ele>1932.5086669922</ele>
        <time>2013-07-24T11:09:18Z</time>
      </trkpt>
      <trkpt lat="44.92566" lon="6.63087">
        <ele>1932.2673339844</ele>
        <time>2013-07-24T11:09:28Z</time>
      </trkpt>
      <trkpt lat="44.92572" lon="6.63078">
        <ele>1932.0895996094</ele>
        <time>2013-07-24T11:09:34Z</time>
      </trkpt>
      <trkpt lat="44.9258" lon="6.63072">
        <ele>1932.5903320312</ele>
        <time>2013-07-24T11:09:40Z</time>
      </trkpt>
      <trkpt lat="44.92588" lon="6.63062">
        <ele>1932.6959228516</ele>
        <time>2013-07-24T11:09:47Z</time>
      </trkpt>
      <trkpt lat="44.92595" lon="6.63051">
        <ele>1931.7889404297</ele>
        <time>2013-07-24T11:09:56Z</time>
      </trkpt>
      <trkpt lat="44.92601" lon="6.63041">
        <ele>1930.4020996094</ele>
        <time>2013-07-24T11:10:03Z</time>
      </trkpt>
      <trkpt lat="44.92601" lon="6.6304">
        <ele>1930.302734375</ele>
        <time>2013-07-24T11:10:04Z</time>
      </trkpt>
      <trkpt lat="44.92602" lon="6.6304">
        <ele>1930.3128662109</ele>
        <time>2013-07-24T11:10:05Z</time>
      </trkpt>
      <trkpt lat="44.92602" lon="6.6304">
        <ele>1930.34375</ele>
        <time>2013-07-24T11:10:06Z</time>
      </trkpt>
      <trkpt lat="44.92602" lon="6.6304">
        <ele>1930.3745117188</ele>
        <time>2013-07-24T11:10:07Z</time>
      </trkpt>
      <trkpt lat="44.92603" lon="6.63039">
        <ele>1930.2991943359</ele>
        <time>2013-07-24T11:10:18Z</time>
      </trkpt>
      <trkpt lat="44.92605" lon="6.63037">
        <ele>1930.1151123047</ele>
        <time>2013-07-24T11:10:20Z</time>
      </trkpt>
      <trkpt lat="44.92606" lon="6.63036">
        <ele>1929.7457275391</ele>
        <time>2013-07-24T11:10:21Z</time>
      </trkpt>
      <trkpt lat="44.92611" lon="6.63024">
        <ele>1926.3251953125</ele>
        <time>2013-07-24T11:10:26Z</time>
      </trkpt>
      <trkpt lat="44.92616" lon="6.63011">
        <ele>1920.8405761719</ele>
        <time>2013-07-24T11:10:31Z</time>
      </trkpt>
      <trkpt lat="44.92617" lon="6.63006">
        <ele>1918.9399414062</ele>
        <time>2013-07-24T11:10:34Z</time>
      </trkpt>
      <trkpt lat="44.92617" lon="6.63001">
        <ele>1916.6785888672</ele>
        <time>2013-07-24T11:10:36Z</time>
      </trkpt>
      <trkpt lat="44.92617" lon="6.62998">
        <ele>1915.140625</ele>
        <time>2013-07-24T11:10:37Z</time>
      </trkpt>
      <trkpt lat="44.92619" lon="6.62993">
        <ele>1913.1169433594</ele>
        <time>2013-07-24T11:10:39Z</time>
      </trkpt>
      <trkpt lat="44.92623" lon="6.62985">
        <ele>1910.1655273438</ele>
        <time>2013-07-24T11:10:42Z</time>
      </trkpt>
      <trkpt lat="44.92627" lon="6.62978">
        <ele>1907.7708740234</ele>
        <time>2013-07-24T11:10:46Z</time>
      </trkpt>
      <trkpt lat="44.92636" lon="6.62966">
        <ele>1904.4383544922</ele>
        <time>2013-07-24T11:10:52Z</time>
      </trkpt>
      <trkpt lat="44.9264" lon="6.62949">
        <ele>1898.8868408203</ele>
        <time>2013-07-24T11:10:57Z</time>
      </trkpt>
      <trkpt lat="44.92651" lon="6.62947">
        <ele>1897.0518798828</ele>
        <time>2013-07-24T11:11:02Z</time>
      </trkpt>
      <trkpt lat="44.92659" lon="6.62945">
        <ele>1895.9635009766</ele>
        <time>2013-07-24T11:11:05Z</time>
      </trkpt>
      <trkpt lat="44.92673" lon="6.62949">
        <ele>1896.2038574219</ele>
        <time>2013-07-24T11:11:11Z</time>
      </trkpt>
      <trkpt lat="44.92678" lon="6.62949">
        <ele>1895.8947753906</ele>
        <time>2013-07-24T11:11:16Z</time>
      </trkpt>
      <trkpt lat="44.9268" lon="6.62948">
        <ele>1895.3232421875</ele>
        <time>2013-07-24T11:11:21Z</time>
      </trkpt>
      <trkpt lat="44.92681" lon="6.62947">
        <ele>1895.0416259766</ele>
        <time>2013-07-24T11:11:22Z</time>
      </trkpt>
      <trkpt lat="44.92682" lon="6.62945">
        <ele>1894.2022705078</ele>
        <time>2013-07-24T11:11:27Z</time>
      </trkpt>
      <trkpt lat="44.9268" lon="6.62945">
        <ele>1894.1422119141</ele>
        <time>2013-07-24T11:11:28Z</time>
      </trkpt>
      <trkpt lat="44.9267" lon="6.62935">
        <ele>1889.9755859375</ele>
        <time>2013-07-24T11:11:32Z</time>
      </trkpt>
      <trkpt lat="44.92662" lon="6.62918">
        <ele>1881.8824462891</ele>
        <time>2013-07-24T11:11:37Z</time>
      </trkpt>
      <trkpt lat="44.92657" lon="6.62908">
        <ele>1876.4545898438</ele>
        <time>2013-07-24T11:11:42Z</time>
      </trkpt>
      <trkpt lat="44.92663" lon="6.62909">
        <ele>1877.2717285156</ele>
        <time>2013-07-24T11:11:50Z</time>
      </trkpt>
      <trkpt lat="44.92678" lon="6.62916">
        <ele>1880.6256103516</ele>
        <time>2013-07-24T11:11:56Z</time>
      </trkpt>
      <trkpt lat="44.92688" lon="6.62918">
        <ele>1881.6176757812</ele>
        <time>2013-07-24T11:12:01Z</time>
      </trkpt>
      <trkpt lat="44.9269" lon="6.62918">
        <ele>1881.4425048828</ele>
        <time>2013-07-24T11:12:04Z</time>
      </trkpt>
      <trkpt lat="44.92692" lon="6.62919">
        <ele>1882.1455078125</ele>
        <time>2013-07-24T11:12:06Z</time>
      </trkpt>
      <trkpt lat="44.92711" lon="6.62916">
        <ele>1876.9271240234</ele>
        <time>2013-07-24T11:12:12Z</time>
      </trkpt>
      <trkpt lat="44.9273" lon="6.62918">
        <ele>1872.1834716797</ele>
        <time>2013-07-24T11:12:18Z</time>
      </trkpt>
      <trkpt lat="44.9273" lon="6.62916">
        <ele>1870.9582519531</ele>
        <time>2013-07-24T11:12:25Z</time>
      </trkpt>
      <trkpt lat="44.92728" lon="6.62913">
        <ele>1870.0368652344</ele>
        <time>2013-07-24T11:12:33Z</time>
      </trkpt>
      <trkpt lat="44.92726" lon="6.62911">
        <ele>1870.1976318359</ele>
        <time>2013-07-24T11:12:36Z</time>
      </trkpt>
      <trkpt lat="44.92715" lon="6.62901">
        <ele>1867.9921875</ele>
        <time>2013-07-24T11:12:42Z</time>
      </trkpt>
      <trkpt lat="44.92707" lon="6.62894">
        <ele>1866.2514648438</ele>
        <time>2013-07-24T11:12:47Z</time>
      </trkpt>
      <trkpt lat="44.92704" lon="6.62892">
        <ele>1865.4429931641</ele>
        <time>2013-07-24T11:12:52Z</time>
      </trkpt>
      <trkpt lat="44.92704" lon="6.62889">
        <ele>1863.9443359375</ele>
        <time>2013-07-24T11:12:58Z</time>
      </trkpt>
      <trkpt lat="44.92711" lon="6.62888">
        <ele>1861.7866210938</ele>
        <time>2013-07-24T11:13:03Z</time>
      </trkpt>
      <trkpt lat="44.92716" lon="6.62889">
        <ele>1861.4930419922</ele>
        <time>2013-07-24T11:13:06Z</time>
      </trkpt>
      <trkpt lat="44.92725" lon="6.62889">
        <ele>1859.0418701172</ele>
        <time>2013-07-24T11:13:11Z</time>
      </trkpt>
      <trkpt lat="44.92726" lon="6.62883">
        <ele>1854.8029785156</ele>
        <time>2013-07-24T11:13:18Z</time>
      </trkpt>
      <trkpt lat="44.92726" lon="6.62883">
        <ele>1854.880859375</ele>
        <time>2013-07-24T11:13:23Z</time>
      </trkpt>
      <trkpt lat="44.92723" lon="6.6288">
        <ele>1854.8129882812</ele>
        <time>2013-07-24T11:13:27Z</time>
      </trkpt>
      <trkpt lat="44.92712" lon="6.62873">
        <ele>1853.7374267578</ele>
        <time>2013-07-24T11:13:33Z</time>
      </trkpt>
      <trkpt lat="44.92704" lon="6.62863">
        <ele>1849.98828125</ele>
        <time>2013-07-24T11:13:40Z</time>
      </trkpt>
      <trkpt lat="44.92703" lon="6.6286">
        <ele>1848.6641845703</ele>
        <time>2013-07-24T11:13:41Z</time>
      </trkpt>
      <trkpt lat="44.927" lon="6.62851">
        <ele>1844.7814941406</ele>
        <time>2013-07-24T11:13:47Z</time>
      </trkpt>
      <trkpt lat="44.92703" lon="6.62852">
        <ele>1844.3428955078</ele>
        <time>2013-07-24T11:13:53Z</time>
      </trkpt>
      <trkpt lat="44.92714" lon="6.62855">
        <ele>1843.7366943359</ele>
        <time>2013-07-24T11:14:00Z</time>
      </trkpt>
      <trkpt lat="44.92722" lon="6.62856">
        <ele>1842.2922363281</ele>
        <time>2013-07-24T11:14:05Z</time>
      </trkpt>
      <trkpt lat="44.92729" lon="6.62857">
        <ele>1838.7895507812</ele>
        <time>2013-07-24T11:14:12Z</time>
      </trkpt>
      <trkpt lat="44.92727" lon="6.62853">
        <ele>1838.2087402344</ele>
        <time>2013-07-24T11:14:17Z</time>
      </trkpt>
      <trkpt lat="44.92715" lon="6.62843">
        <ele>1836.6984863281</ele>
        <time>2013-07-24T11:14:23Z</time>
      </trkpt>
      <trkpt lat="44.92705" lon="6.62839">
        <ele>1837.1478271484</ele>
        <time>2013-07-24T11:14:28Z</time>
      </trkpt>
      <trkpt lat="44.92695" lon="6.62833">
        <ele>1836.8526611328</ele>
        <time>2013-07-24T11:14:34Z</time>
      </trkpt>
      <trkpt lat="44.92689" lon="6.62829">
        <ele>1834.6951904297</ele>
        <time>2013-07-24T11:14:37Z</time>
      </trkpt>
      <trkpt lat="44.92688" lon="6.62824">
        <ele>1831.7202148438</ele>
        <time>2013-07-24T11:14:44Z</time>
      </trkpt>
      <trkpt lat="44.92683" lon="6.62818">
        <ele>1828.3481445312</ele>
        <time>2013-07-24T11:14:51Z</time>
      </trkpt>
      <trkpt lat="44.92682" lon="6.62815">
        <ele>1826.7569580078</ele>
        <time>2013-07-24T11:14:59Z</time>
      </trkpt>
      <trkpt lat="44.92678" lon="6.62812">
        <ele>1824.90234375</ele>
        <time>2013-07-24T11:15:04Z</time>
      </trkpt>
      <trkpt lat="44.92673" lon="6.62801">
        <ele>1819.1968994141</ele>
        <time>2013-07-24T11:15:09Z</time>
      </trkpt>
      <trkpt lat="44.92669" lon="6.62798">
        <ele>1817.7467041016</ele>
        <time>2013-07-24T11:15:11Z</time>
      </trkpt>
      <trkpt lat="44.92664" lon="6.62789">
        <ele>1813.9869384766</ele>
        <time>2013-07-24T11:15:17Z</time>
      </trkpt>
      <trkpt lat="44.92662" lon="6.62788">
        <ele>1813.8533935547</ele>
        <time>2013-07-24T11:15:21Z</time>
      </trkpt>
      <trkpt lat="44.92661" lon="6.62787">
        <ele>1813.1257324219</ele>
        <time>2013-07-24T11:15:27Z</time>
      </trkpt>
      <trkpt lat="44.9266" lon="6.62783">
        <ele>1811.3162841797</ele>
        <time>2013-07-24T11:15:34Z</time>
      </trkpt>
      <trkpt lat="44.92659" lon="6.62776">
        <ele>1808.2944335938</ele>
        <time>2013-07-24T11:15:52Z</time>
      </trkpt>
      <trkpt lat="44.92662" lon="6.62775">
        <ele>1807.3571777344</ele>
        <time>2013-07-24T11:16:03Z</time>
      </trkpt>
      <trkpt lat="44.92665" lon="6.62775">
        <ele>1806.9177246094</ele>
        <time>2013-07-24T11:16:08Z</time>
      </trkpt>
      <trkpt lat="44.92661" lon="6.62769">
        <ele>1804.4697265625</ele>
        <time>2013-07-24T11:16:14Z</time>
      </trkpt>
      <trkpt lat="44.92659" lon="6.62767">
        <ele>1803.4775390625</ele>
        <time>2013-07-24T11:16:19Z</time>
      </trkpt>
      <trkpt lat="44.92655" lon="6.62768">
        <ele>1804.6448974609</ele>
        <time>2013-07-24T11:16:31Z</time>
      </trkpt>
      <trkpt lat="44.92654" lon="6.62767">
        <ele>1804.4251708984</ele>
        <time>2013-07-24T11:16:33Z</time>
      </trkpt>
      <trkpt lat="44.92648" lon="6.62764">
        <ele>1803.8140869141</ele>
        <time>2013-07-24T11:16:37Z</time>
      </trkpt>
      <trkpt lat="44.92643" lon="6.6276">
        <ele>1802.5815429688</ele>
        <time>2013-07-24T11:16:44Z</time>
      </trkpt>
      <trkpt lat="44.92641" lon="6.62761">
        <ele>1803.0725097656</ele>
        <time>2013-07-24T11:16:48Z</time>
      </trkpt>
      <trkpt lat="44.92639" lon="6.62762">
        <ele>1804.1810302734</ele>
        <time>2013-07-24T11:16:50Z</time>
      </trkpt>
      <trkpt lat="44.92629" lon="6.62766">
        <ele>1801.7703857422</ele>
        <time>2013-07-24T11:16:55Z</time>
      </trkpt>
      <trkpt lat="44.92618" lon="6.62774">
        <ele>1799.5833740234</ele>
        <time>2013-07-24T11:17:00Z</time>
      </trkpt>
      <trkpt lat="44.92613" lon="6.62779">
        <ele>1798.8881835938</ele>
        <time>2013-07-24T11:17:02Z</time>
      </trkpt>
      <trkpt lat="44.92598" lon="6.62789">
        <ele>1798.6033935547</ele>
        <time>2013-07-24T11:17:08Z</time>
      </trkpt>
      <trkpt lat="44.92582" lon="6.62792">
        <ele>1795.3322753906</ele>
        <time>2013-07-24T11:17:13Z</time>
      </trkpt>
      <trkpt lat="44.92565" lon="6.62795">
        <ele>1792.3537597656</ele>
        <time>2013-07-24T11:17:19Z</time>
      </trkpt>
      <trkpt lat="44.92551" lon="6.62797">
        <ele>1788.5861816406</ele>
        <time>2013-07-24T11:17:24Z</time>
      </trkpt>
      <trkpt lat="44.92539" lon="6.62806">
        <ele>1785.4429931641</ele>
        <time>2013-07-24T11:17:30Z</time>
      </trkpt>
      <trkpt lat="44.92532" lon="6.62815">
        <ele>1784.8050537109</ele>
        <time>2013-07-24T11:17:34Z</time>
      </trkpt>
      <trkpt lat="44.92524" lon="6.62828">
        <ele>1785.0247802734</ele>
        <time>2013-07-24T11:17:39Z</time>
      </trkpt>
      <trkpt lat="44.92512" lon="6.62836">
        <ele>1783.0555419922</ele>
        <time>2013-07-24T11:17:44Z</time>
      </trkpt>
      <trkpt lat="44.92505" lon="6.62839">
        <ele>1781.3358154297</ele>
        <time>2013-07-24T11:17:47Z</time>
      </trkpt>
      <trkpt lat="44.9249" lon="6.62838">
        <ele>1776.7270507812</ele>
        <time>2013-07-24T11:17:54Z</time>
      </trkpt>
      <trkpt lat="44.92476" lon="6.62838">
        <ele>1773.1794433594</ele>
        <time>2013-07-24T11:17:59Z</time>
      </trkpt>
      <trkpt lat="44.92474" lon="6.62836">
        <ele>1772.0925292969</ele>
        <time>2013-07-24T11:18:03Z</time>
      </trkpt>
      <trkpt lat="44.92479" lon="6.62828">
        <ele>1771.2086181641</ele>
        <time>2013-07-24T11:18:08Z</time>
      </trkpt>
      <trkpt lat="44.92481" lon="6.62826">
        <ele>1771.2536621094</ele>
        <time>2013-07-24T11:18:09Z</time>
      </trkpt>
      <trkpt lat="44.92483" lon="6.62824">
        <ele>1770.9796142578</ele>
        <time>2013-07-24T11:18:10Z</time>
      </trkpt>
      <trkpt lat="44.92488" lon="6.62816">
        <ele>1770.2479248047</ele>
        <time>2013-07-24T11:18:13Z</time>
      </trkpt>
      <trkpt lat="44.92489" lon="6.62813">
        <ele>1769.7998046875</ele>
        <time>2013-07-24T11:18:14Z</time>
      </trkpt>
      <trkpt lat="44.9249" lon="6.62811">
        <ele>1769.4359130859</ele>
        <time>2013-07-24T11:18:15Z</time>
      </trkpt>
      <trkpt lat="44.92497" lon="6.62798">
        <ele>1768.4644775391</ele>
        <time>2013-07-24T11:18:19Z</time>
      </trkpt>
      <trkpt lat="44.92498" lon="6.62795">
        <ele>1768.1245117188</ele>
        <time>2013-07-24T11:18:20Z</time>
      </trkpt>
      <trkpt lat="44.92501" lon="6.62787">
        <ele>1767.1273193359</ele>
        <time>2013-07-24T11:18:22Z</time>
      </trkpt>
      <trkpt lat="44.92502" lon="6.62783">
        <ele>1766.6475830078</ele>
        <time>2013-07-24T11:18:23Z</time>
      </trkpt>
      <trkpt lat="44.92503" lon="6.62781">
        <ele>1766.5234375</ele>
        <time>2013-07-24T11:18:24Z</time>
      </trkpt>
      <trkpt lat="44.92504" lon="6.62761">
        <ele>1761.1818847656</ele>
        <time>2013-07-24T11:18:30Z</time>
      </trkpt>
      <trkpt lat="44.92503" lon="6.62747">
        <ele>1756.4359130859</ele>
        <time>2013-07-24T11:18:35Z</time>
      </trkpt>
      <trkpt lat="44.92506" lon="6.6274">
        <ele>1754.822265625</ele>
        <time>2013-07-24T11:18:38Z</time>
      </trkpt>
      <trkpt lat="44.92511" lon="6.62724">
        <ele>1749.8640136719</ele>
        <time>2013-07-24T11:18:44Z</time>
      </trkpt>
      <trkpt lat="44.92517" lon="6.62713">
        <ele>1748.1169433594</ele>
        <time>2013-07-24T11:18:49Z</time>
      </trkpt>
      <trkpt lat="44.9253" lon="6.62704">
        <ele>1749.4471435547</ele>
        <time>2013-07-24T11:18:56Z</time>
      </trkpt>
      <trkpt lat="44.92544" lon="6.62698">
        <ele>1751.2657470703</ele>
        <time>2013-07-24T11:19:01Z</time>
      </trkpt>
      <trkpt lat="44.92551" lon="6.62694">
        <ele>1751.5289306641</ele>
        <time>2013-07-24T11:19:05Z</time>
      </trkpt>
      <trkpt lat="44.92554" lon="6.62692">
        <ele>1751.6394042969</ele>
        <time>2013-07-24T11:19:06Z</time>
      </trkpt>
      <trkpt lat="44.92562" lon="6.62687">
        <ele>1752.1726074219</ele>
        <time>2013-07-24T11:19:11Z</time>
      </trkpt>
      <trkpt lat="44.9257" lon="6.6268">
        <ele>1751.5360107422</ele>
        <time>2013-07-24T11:19:15Z</time>
      </trkpt>
      <trkpt lat="44.92573" lon="6.62679">
        <ele>1751.4216308594</ele>
        <time>2013-07-24T11:19:16Z</time>
      </trkpt>
      <trkpt lat="44.92585" lon="6.62669">
        <ele>1749.5018310547</ele>
        <time>2013-07-24T11:19:21Z</time>
      </trkpt>
      <trkpt lat="44.92599" lon="6.62659">
        <ele>1744.6646728516</ele>
        <time>2013-07-24T11:19:26Z</time>
      </trkpt>
      <trkpt lat="44.92611" lon="6.62651">
        <ele>1741.0529785156</ele>
        <time>2013-07-24T11:19:30Z</time>
      </trkpt>
      <trkpt lat="44.92625" lon="6.62641">
        <ele>1737.4903564453</ele>
        <time>2013-07-24T11:19:35Z</time>
      </trkpt>
      <trkpt lat="44.92644" lon="6.62632">
        <ele>1733.7082519531</ele>
        <time>2013-07-24T11:19:40Z</time>
      </trkpt>
      <trkpt lat="44.92661" lon="6.62626">
        <ele>1727.5404052734</ele>
        <time>2013-07-24T11:19:45Z</time>
      </trkpt>
      <trkpt lat="44.92667" lon="6.62624">
        <ele>1726.1420898438</ele>
        <time>2013-07-24T11:19:49Z</time>
      </trkpt>
      <trkpt lat="44.92667" lon="6.62624">
        <ele>1725.5502929688</ele>
        <time>2013-07-24T11:19:50Z</time>
      </trkpt>
      <trkpt lat="44.92656" lon="6.62621">
        <ele>1725.7564697266</ele>
        <time>2013-07-24T11:19:57Z</time>
      </trkpt>
      <trkpt lat="44.92645" lon="6.62614">
        <ele>1722.9671630859</ele>
        <time>2013-07-24T11:20:02Z</time>
      </trkpt>
      <trkpt lat="44.92628" lon="6.62603">
        <ele>1717.0646972656</ele>
        <time>2013-07-24T11:20:07Z</time>
      </trkpt>
      <trkpt lat="44.92615" lon="6.62603">
        <ele>1716.00390625</ele>
        <time>2013-07-24T11:20:11Z</time>
      </trkpt>
      <trkpt lat="44.92605" lon="6.62605">
        <ele>1717.2059326172</ele>
        <time>2013-07-24T11:20:15Z</time>
      </trkpt>
      <trkpt lat="44.92583" lon="6.62602">
        <ele>1715.7766113281</ele>
        <time>2013-07-24T11:20:21Z</time>
      </trkpt>
      <trkpt lat="44.92564" lon="6.626">
        <ele>1711.4987792969</ele>
        <time>2013-07-24T11:20:26Z</time>
      </trkpt>
      <trkpt lat="44.92552" lon="6.62603">
        <ele>1710.4119873047</ele>
        <time>2013-07-24T11:20:30Z</time>
      </trkpt>
      <trkpt lat="44.92536" lon="6.62594">
        <ele>1704.0512695312</ele>
        <time>2013-07-24T11:20:35Z</time>
      </trkpt>
      <trkpt lat="44.92519" lon="6.6259">
        <ele>1698.7469482422</ele>
        <time>2013-07-24T11:20:40Z</time>
      </trkpt>
      <trkpt lat="44.92506" lon="6.62592">
        <ele>1696.3934326172</ele>
        <time>2013-07-24T11:20:44Z</time>
      </trkpt>
      <trkpt lat="44.92491" lon="6.626">
        <ele>1695.0307617188</ele>
        <time>2013-07-24T11:20:49Z</time>
      </trkpt>
      <trkpt lat="44.92479" lon="6.62613">
        <ele>1696.4110107422</ele>
        <time>2013-07-24T11:20:54Z</time>
      </trkpt>
      <trkpt lat="44.92458" lon="6.6262">
        <ele>1692.0418701172</ele>
        <time>2013-07-24T11:20:59Z</time>
      </trkpt>
      <trkpt lat="44.92443" lon="6.62621">
        <ele>1686.8079833984</ele>
        <time>2013-07-24T11:21:03Z</time>
      </trkpt>
      <trkpt lat="44.92438" lon="6.6262">
        <ele>1684.4080810547</ele>
        <time>2013-07-24T11:21:05Z</time>
      </trkpt>
      <trkpt lat="44.92417" lon="6.62623">
        <ele>1679.5157470703</ele>
        <time>2013-07-24T11:21:12Z</time>
      </trkpt>
      <trkpt lat="44.92399" lon="6.62627">
        <ele>1674.7067871094</ele>
        <time>2013-07-24T11:21:16Z</time>
      </trkpt>
      <trkpt lat="44.92381" lon="6.62632">
        <ele>1670.2623291016</ele>
        <time>2013-07-24T11:21:20Z</time>
      </trkpt>
      <trkpt lat="44.92374" lon="6.62633">
        <ele>1667.8638916016</ele>
        <time>2013-07-24T11:21:22Z</time>
      </trkpt>
      <trkpt lat="44.92358" lon="6.62637">
        <ele>1662.7772216797</ele>
        <time>2013-07-24T11:21:26Z</time>
      </trkpt>
      <trkpt lat="44.92339" lon="6.62648">
        <ele>1656.8896484375</ele>
        <time>2013-07-24T11:21:31Z</time>
      </trkpt>
      <trkpt lat="44.92326" lon="6.62656">
        <ele>1651.6413574219</ele>
        <time>2013-07-24T11:21:36Z</time>
      </trkpt>
      <trkpt lat="44.92326" lon="6.6266">
        <ele>1652.4895019531</ele>
        <time>2013-07-24T11:21:43Z</time>
      </trkpt>
      <trkpt lat="44.92322" lon="6.62667">
        <ele>1652.2595214844</ele>
        <time>2013-07-24T11:21:50Z</time>
      </trkpt>
      <trkpt lat="44.92317" lon="6.62671">
        <ele>1649.2298583984</ele>
        <time>2013-07-24T11:21:56Z</time>
      </trkpt>
      <trkpt lat="44.92311" lon="6.6267">
        <ele>1643.4442138672</ele>
        <time>2013-07-24T11:22:03Z</time>
      </trkpt>
      <trkpt lat="44.92307" lon="6.62669">
        <ele>1639.9176025391</ele>
        <time>2013-07-24T11:22:10Z</time>
      </trkpt>
      <trkpt lat="44.92304" lon="6.62671">
        <ele>1638.7198486328</ele>
        <time>2013-07-24T11:22:17Z</time>
      </trkpt>
      <trkpt lat="44.92297" lon="6.62673">
        <ele>1637.7860107422</ele>
        <time>2013-07-24T11:22:21Z</time>
      </trkpt>
      <trkpt lat="44.92287" lon="6.62681">
        <ele>1637.5662841797</ele>
        <time>2013-07-24T11:22:27Z</time>
      </trkpt>
      <trkpt lat="44.92286" lon="6.62682">
        <ele>1637.4838867188</ele>
        <time>2013-07-24T11:22:28Z</time>
      </trkpt>
      <trkpt lat="44.9228" lon="6.62697">
        <ele>1640.2772216797</ele>
        <time>2013-07-24T11:22:33Z</time>
      </trkpt>
      <trkpt lat="44.92279" lon="6.62699">
        <ele>1640.7492675781</ele>
        <time>2013-07-24T11:22:34Z</time>
      </trkpt>
      <trkpt lat="44.92275" lon="6.62713">
        <ele>1643.748046875</ele>
        <time>2013-07-24T11:22:40Z</time>
      </trkpt>
      <trkpt lat="44.92267" lon="6.62733">
        <ele>1647.1806640625</ele>
        <time>2013-07-24T11:22:46Z</time>
      </trkpt>
      <trkpt lat="44.92263" lon="6.62748">
        <ele>1651.0314941406</ele>
        <time>2013-07-24T11:22:51Z</time>
      </trkpt>
      <trkpt lat="44.92261" lon="6.62751">
        <ele>1651.1934814453</ele>
        <time>2013-07-24T11:22:52Z</time>
      </trkpt>
      <trkpt lat="44.92259" lon="6.62755">
        <ele>1651.8973388672</ele>
        <time>2013-07-24T11:22:59Z</time>
      </trkpt>
      <trkpt lat="44.92257" lon="6.62755">
        <ele>1650.9788818359</ele>
        <time>2013-07-24T11:23:10Z</time>
      </trkpt>
      <trkpt lat="44.92256" lon="6.62753">
        <ele>1650.2253417969</ele>
        <time>2013-07-24T11:23:20Z</time>
      </trkpt>
      <trkpt lat="44.92255" lon="6.62756">
        <ele>1650.7729492188</ele>
        <time>2013-07-24T11:23:26Z</time>
      </trkpt>
      <trkpt lat="44.92253" lon="6.62763">
        <ele>1652.2783203125</ele>
        <time>2013-07-24T11:23:32Z</time>
      </trkpt>
      <trkpt lat="44.92251" lon="6.62771">
        <ele>1654.1563720703</ele>
        <time>2013-07-24T11:23:40Z</time>
      </trkpt>
      <trkpt lat="44.92247" lon="6.62769">
        <ele>1652.1650390625</ele>
        <time>2013-07-24T11:23:46Z</time>
      </trkpt>
      <trkpt lat="44.92246" lon="6.62768">
        <ele>1651.4613037109</ele>
        <time>2013-07-24T11:23:51Z</time>
      </trkpt>
      <trkpt lat="44.92245" lon="6.62772">
        <ele>1652.3453369141</ele>
        <time>2013-07-24T11:23:55Z</time>
      </trkpt>
      <trkpt lat="44.92246" lon="6.62776">
        <ele>1653.7941894531</ele>
        <time>2013-07-24T11:24:00Z</time>
      </trkpt>
      <trkpt lat="44.92244" lon="6.62778">
        <ele>1653.7117919922</ele>
        <time>2013-07-24T11:24:04Z</time>
      </trkpt>
      <trkpt lat="44.92239" lon="6.62783">
        <ele>1653.8851318359</ele>
        <time>2013-07-24T11:24:11Z</time>
      </trkpt>
      <trkpt lat="44.92237" lon="6.62786">
        <ele>1654.1254882812</ele>
        <time>2013-07-24T11:24:17Z</time>
      </trkpt>
      <trkpt lat="44.92234" lon="6.62787">
        <ele>1653.1058349609</ele>
        <time>2013-07-24T11:24:25Z</time>
      </trkpt>
      <trkpt lat="44.92232" lon="6.62788">
        <ele>1652.8533935547</ele>
        <time>2013-07-24T11:24:33Z</time>
      </trkpt>
      <trkpt lat="44.92228" lon="6.62795">
        <ele>1653.703125</ele>
        <time>2013-07-24T11:24:42Z</time>
      </trkpt>
      <trkpt lat="44.92227" lon="6.62797">
        <ele>1653.9881591797</ele>
        <time>2013-07-24T11:24:45Z</time>
      </trkpt>
      <trkpt lat="44.92227" lon="6.62797">
        <ele>1653.8953857422</ele>
        <time>2013-07-24T11:24:46Z</time>
      </trkpt>
      <trkpt lat="44.9222" lon="6.62797">
        <ele>1651.9357910156</ele>
        <time>2013-07-24T11:24:53Z</time>
      </trkpt>
      <trkpt lat="44.92216" lon="6.62798">
        <ele>1652.0751953125</ele>
        <time>2013-07-24T11:25:01Z</time>
      </trkpt>
      <trkpt lat="44.92213" lon="6.62798">
        <ele>1651.8753662109</ele>
        <time>2013-07-24T11:25:04Z</time>
      </trkpt>
      <trkpt lat="44.92208" lon="6.62799">
        <ele>1651.537109375</ele>
        <time>2013-07-24T11:25:12Z</time>
      </trkpt>
      <trkpt lat="44.92205" lon="6.62799">
        <ele>1651.6315917969</ele>
        <time>2013-07-24T11:25:15Z</time>
      </trkpt>
      <trkpt lat="44.92197" lon="6.62797">
        <ele>1650.0050048828</ele>
        <time>2013-07-24T11:25:19Z</time>
      </trkpt>
      <trkpt lat="44.92182" lon="6.62788">
        <ele>1646.6850585938</ele>
        <time>2013-07-24T11:25:24Z</time>
      </trkpt>
      <trkpt lat="44.9217" lon="6.62782">
        <ele>1644.6711425781</ele>
        <time>2013-07-24T11:25:29Z</time>
      </trkpt>
      <trkpt lat="44.92157" lon="6.62776">
        <ele>1640.3012695312</ele>
        <time>2013-07-24T11:25:34Z</time>
      </trkpt>
      <trkpt lat="44.92146" lon="6.6277">
        <ele>1635.4403076172</ele>
        <time>2013-07-24T11:25:39Z</time>
      </trkpt>
      <trkpt lat="44.92138" lon="6.62773">
        <ele>1634.7076416016</ele>
        <time>2013-07-24T11:25:43Z</time>
      </trkpt>
      <trkpt lat="44.92128" lon="6.62782">
        <ele>1633.3748779297</ele>
        <time>2013-07-24T11:25:49Z</time>
      </trkpt>
      <trkpt lat="44.92119" lon="6.62795">
        <ele>1634.6966552734</ele>
        <time>2013-07-24T11:25:53Z</time>
      </trkpt>
      <trkpt lat="44.92106" lon="6.62817">
        <ele>1635.4020996094</ele>
        <time>2013-07-24T11:25:59Z</time>
      </trkpt>
      <trkpt lat="44.92094" lon="6.6283">
        <ele>1630.2016601562</ele>
        <time>2013-07-24T11:26:04Z</time>
      </trkpt>
      <trkpt lat="44.92085" lon="6.62838">
        <ele>1626.0310058594</ele>
        <time>2013-07-24T11:26:08Z</time>
      </trkpt>
      <trkpt lat="44.92083" lon="6.62836">
        <ele>1623.8801269531</ele>
        <time>2013-07-24T11:26:15Z</time>
      </trkpt>
      <trkpt lat="44.92086" lon="6.62829">
        <ele>1623.6599121094</ele>
        <time>2013-07-24T11:26:21Z</time>
      </trkpt>
      <trkpt lat="44.92085" lon="6.62829">
        <ele>1622.3160400391</ele>
        <time>2013-07-24T11:26:28Z</time>
      </trkpt>
      <trkpt lat="44.92084" lon="6.62827">
        <ele>1620.4255371094</ele>
        <time>2013-07-24T11:26:38Z</time>
      </trkpt>
      <trkpt lat="44.92088" lon="6.62819">
        <ele>1620.767578125</ele>
        <time>2013-07-24T11:26:41Z</time>
      </trkpt>
      <trkpt lat="44.92093" lon="6.62804">
        <ele>1618.8273925781</ele>
        <time>2013-07-24T11:26:47Z</time>
      </trkpt>
      <trkpt lat="44.92101" lon="6.62783">
        <ele>1617.2320556641</ele>
        <time>2013-07-24T11:26:53Z</time>
      </trkpt>
      <trkpt lat="44.92106" lon="6.62772">
        <ele>1617.9567871094</ele>
        <time>2013-07-24T11:26:57Z</time>
      </trkpt>
      <trkpt lat="44.9211" lon="6.62768">
        <ele>1620.0922851562</ele>
        <time>2013-07-24T11:26:59Z</time>
      </trkpt>
      <trkpt lat="44.92112" lon="6.62746">
        <ele>1612.6927490234</ele>
        <time>2013-07-24T11:27:06Z</time>
      </trkpt>
      <trkpt lat="44.92113" lon="6.62736">
        <ele>1609.2828369141</ele>
        <time>2013-07-24T11:27:11Z</time>
      </trkpt>
      <trkpt lat="44.92113" lon="6.62735">
        <ele>1608.9912109375</ele>
        <time>2013-07-24T11:27:13Z</time>
      </trkpt>
      <trkpt lat="44.92116" lon="6.62724">
        <ele>1605.4344482422</ele>
        <time>2013-07-24T11:27:18Z</time>
      </trkpt>
      <trkpt lat="44.92118" lon="6.62718">
        <ele>1603.0926513672</ele>
        <time>2013-07-24T11:27:24Z</time>
      </trkpt>
      <trkpt lat="44.92119" lon="6.62716">
        <ele>1602.4117431641</ele>
        <time>2013-07-24T11:27:26Z</time>
      </trkpt>
      <trkpt lat="44.9212" lon="6.62713">
        <ele>1601.0286865234</ele>
        <time>2013-07-24T11:27:28Z</time>
      </trkpt>
      <trkpt lat="44.9212" lon="6.62711">
        <ele>1600.2585449219</ele>
        <time>2013-07-24T11:27:29Z</time>
      </trkpt>
      <trkpt lat="44.9212" lon="6.6271">
        <ele>1599.9782714844</ele>
        <time>2013-07-24T11:27:30Z</time>
      </trkpt>
      <trkpt lat="44.9212" lon="6.6271">
        <ele>1599.7761230469</ele>
        <time>2013-07-24T11:27:31Z</time>
      </trkpt>
      <trkpt lat="44.92123" lon="6.62703">
        <ele>1597.6813964844</ele>
        <time>2013-07-24T11:27:35Z</time>
      </trkpt>
      <trkpt lat="44.92125" lon="6.62699">
        <ele>1596.6202392578</ele>
        <time>2013-07-24T11:27:37Z</time>
      </trkpt>
      <trkpt lat="44.92126" lon="6.62698">
        <ele>1596.5366210938</ele>
        <time>2013-07-24T11:27:38Z</time>
      </trkpt>
      <trkpt lat="44.92136" lon="6.62686">
        <ele>1595.9139404297</ele>
        <time>2013-07-24T11:27:43Z</time>
      </trkpt>
      <trkpt lat="44.92154" lon="6.62674">
        <ele>1595.0140380859</ele>
        <time>2013-07-24T11:27:49Z</time>
      </trkpt>
      <trkpt lat="44.92167" lon="6.62667">
        <ele>1595.0164794922</ele>
        <time>2013-07-24T11:27:54Z</time>
      </trkpt>
      <trkpt lat="44.92179" lon="6.62657">
        <ele>1594.3266601562</ele>
        <time>2013-07-24T11:27:58Z</time>
      </trkpt>
      <trkpt lat="44.92188" lon="6.62651">
        <ele>1594.630859375</ele>
        <time>2013-07-24T11:28:00Z</time>
      </trkpt>
      <trkpt lat="44.92191" lon="6.62647">
        <ele>1594.0170898438</ele>
        <time>2013-07-24T11:28:01Z</time>
      </trkpt>
      <trkpt lat="44.92194" lon="6.62644">
        <ele>1593.7429199219</ele>
        <time>2013-07-24T11:28:02Z</time>
      </trkpt>
      <trkpt lat="44.92204" lon="6.62624">
        <ele>1588.6748046875</ele>
        <time>2013-07-24T11:28:07Z</time>
      </trkpt>
      <trkpt lat="44.92209" lon="6.62616">
        <ele>1587.1973876953</ele>
        <time>2013-07-24T11:28:11Z</time>
      </trkpt>
      <trkpt lat="44.92214" lon="6.62599">
        <ele>1582.7670898438</ele>
        <time>2013-07-24T11:28:17Z</time>
      </trkpt>
      <trkpt lat="44.92222" lon="6.62587">
        <ele>1581.3422851562</ele>
        <time>2013-07-24T11:28:22Z</time>
      </trkpt>
      <trkpt lat="44.92239" lon="6.62566">
        <ele>1578.4024658203</ele>
        <time>2013-07-24T11:28:28Z</time>
      </trkpt>
      <trkpt lat="44.9225" lon="6.62555">
        <ele>1579.1180419922</ele>
        <time>2013-07-24T11:28:33Z</time>
      </trkpt>
      <trkpt lat="44.92254" lon="6.62545">
        <ele>1577.1400146484</ele>
        <time>2013-07-24T11:28:37Z</time>
      </trkpt>
      <trkpt lat="44.92259" lon="6.6253">
        <ele>1573.5831298828</ele>
        <time>2013-07-24T11:28:42Z</time>
      </trkpt>
      <trkpt lat="44.9226" lon="6.62528">
        <ele>1573.0760498047</ele>
        <time>2013-07-24T11:28:43Z</time>
      </trkpt>
      <trkpt lat="44.92262" lon="6.62525">
        <ele>1572.8559570312</ele>
        <time>2013-07-24T11:28:44Z</time>
      </trkpt>
      <trkpt lat="44.92272" lon="6.62508">
        <ele>1569.5588378906</ele>
        <time>2013-07-24T11:28:50Z</time>
      </trkpt>
      <trkpt lat="44.92278" lon="6.625">
        <ele>1568.0676269531</ele>
        <time>2013-07-24T11:28:54Z</time>
      </trkpt>
      <trkpt lat="44.92284" lon="6.62483">
        <ele>1563.9323730469</ele>
        <time>2013-07-24T11:29:00Z</time>
      </trkpt>
      <trkpt lat="44.9229" lon="6.62469">
        <ele>1561.2109375</ele>
        <time>2013-07-24T11:29:05Z</time>
      </trkpt>
      <trkpt lat="44.92292" lon="6.62467">
        <ele>1560.9379882812</ele>
        <time>2013-07-24T11:29:06Z</time>
      </trkpt>
      <trkpt lat="44.92302" lon="6.62452">
        <ele>1560.6499023438</ele>
        <time>2013-07-24T11:29:11Z</time>
      </trkpt>
      <trkpt lat="44.92308" lon="6.62442">
        <ele>1559.3168945312</ele>
        <time>2013-07-24T11:29:14Z</time>
      </trkpt>
      <trkpt lat="44.92323" lon="6.62423">
        <ele>1554.3448486328</ele>
        <time>2013-07-24T11:29:19Z</time>
      </trkpt>
      <trkpt lat="44.92335" lon="6.62405">
        <ele>1550.7741699219</ele>
        <time>2013-07-24T11:29:25Z</time>
      </trkpt>
      <trkpt lat="44.92342" lon="6.62394">
        <ele>1547.6773681641</ele>
        <time>2013-07-24T11:29:29Z</time>
      </trkpt>
      <trkpt lat="44.92355" lon="6.62383">
        <ele>1546.8974609375</ele>
        <time>2013-07-24T11:29:34Z</time>
      </trkpt>
      <trkpt lat="44.92357" lon="6.62381">
        <ele>1546.5958251953</ele>
        <time>2013-07-24T11:29:35Z</time>
      </trkpt>
      <trkpt lat="44.92361" lon="6.62375">
        <ele>1545.0484619141</ele>
        <time>2013-07-24T11:29:39Z</time>
      </trkpt>
      <trkpt lat="44.92364" lon="6.62372">
        <ele>1544.2330322266</ele>
        <time>2013-07-24T11:29:43Z</time>
      </trkpt>
      <trkpt lat="44.92364" lon="6.6237">
        <ele>1543.5345458984</ele>
        <time>2013-07-24T11:29:45Z</time>
      </trkpt>
      <trkpt lat="44.92366" lon="6.62367">
        <ele>1542.3083496094</ele>
        <time>2013-07-24T11:29:51Z</time>
      </trkpt>
      <trkpt lat="44.92368" lon="6.62364">
        <ele>1541.3791503906</ele>
        <time>2013-07-24T11:29:56Z</time>
      </trkpt>
      <trkpt lat="44.92368" lon="6.62364">
        <ele>1541.0059814453</ele>
        <time>2013-07-24T11:30:01Z</time>
      </trkpt>
      <trkpt lat="44.92367" lon="6.62364">
        <ele>1541.0319824219</ele>
        <time>2013-07-24T11:30:02Z</time>
      </trkpt>
      <trkpt lat="44.9236" lon="6.62369">
        <ele>1541.4564208984</ele>
        <time>2013-07-24T11:30:07Z</time>
      </trkpt>
      <trkpt lat="44.92347" lon="6.62368">
        <ele>1537.6589355469</ele>
        <time>2013-07-24T11:30:13Z</time>
      </trkpt>
      <trkpt lat="44.92338" lon="6.62368">
        <ele>1535.0565185547</ele>
        <time>2013-07-24T11:30:19Z</time>
      </trkpt>
      <trkpt lat="44.92324" lon="6.62369">
        <ele>1531.3690185547</ele>
        <time>2013-07-24T11:30:24Z</time>
      </trkpt>
      <trkpt lat="44.92318" lon="6.62372">
        <ele>1530.6822509766</ele>
        <time>2013-07-24T11:30:26Z</time>
      </trkpt>
      <trkpt lat="44.92306" lon="6.62382">
        <ele>1530.6112060547</ele>
        <time>2013-07-24T11:30:31Z</time>
      </trkpt>
      <trkpt lat="44.92303" lon="6.62384">
        <ele>1530.671875</ele>
        <time>2013-07-24T11:30:32Z</time>
      </trkpt>
      <trkpt lat="44.92287" lon="6.62394">
        <ele>1529.5102539062</ele>
        <time>2013-07-24T11:30:37Z</time>
      </trkpt>
      <trkpt lat="44.9227" lon="6.62399">
        <ele>1525.5228271484</ele>
        <time>2013-07-24T11:30:42Z</time>
      </trkpt>
      <trkpt lat="44.9225" lon="6.6241">
        <ele>1520.8055419922</ele>
        <time>2013-07-24T11:30:48Z</time>
      </trkpt>
      <trkpt lat="44.92235" lon="6.62422">
        <ele>1518.0623779297</ele>
        <time>2013-07-24T11:30:52Z</time>
      </trkpt>
      <trkpt lat="44.92222" lon="6.62429">
        <ele>1515.0316162109</ele>
        <time>2013-07-24T11:30:56Z</time>
      </trkpt>
      <trkpt lat="44.92207" lon="6.62436">
        <ele>1512.2575683594</ele>
        <time>2013-07-24T11:31:00Z</time>
      </trkpt>
      <trkpt lat="44.92192" lon="6.62443">
        <ele>1509.4443359375</ele>
        <time>2013-07-24T11:31:06Z</time>
      </trkpt>
      <trkpt lat="44.92183" lon="6.62448">
        <ele>1508.5037841797</ele>
        <time>2013-07-24T11:31:10Z</time>
      </trkpt>
      <trkpt lat="44.9217" lon="6.62453">
        <ele>1506.7348632812</ele>
        <time>2013-07-24T11:31:15Z</time>
      </trkpt>
      <trkpt lat="44.92165" lon="6.62453">
        <ele>1505.6506347656</ele>
        <time>2013-07-24T11:31:17Z</time>
      </trkpt>
      <trkpt lat="44.92156" lon="6.62447">
        <ele>1501.4826660156</ele>
        <time>2013-07-24T11:31:22Z</time>
      </trkpt>
      <trkpt lat="44.9215" lon="6.62445">
        <ele>1499.4450683594</ele>
        <time>2013-07-24T11:31:32Z</time>
      </trkpt>
      <trkpt lat="44.92145" lon="6.62447">
        <ele>1499.2888183594</ele>
        <time>2013-07-24T11:31:38Z</time>
      </trkpt>
      <trkpt lat="44.92143" lon="6.62447">
        <ele>1499.1240234375</ele>
        <time>2013-07-24T11:31:39Z</time>
      </trkpt>
      <trkpt lat="44.92133" lon="6.62446">
        <ele>1496.8372802734</ele>
        <time>2013-07-24T11:31:43Z</time>
      </trkpt>
      <trkpt lat="44.9212" lon="6.62445">
        <ele>1494.6424560547</ele>
        <time>2013-07-24T11:31:47Z</time>
      </trkpt>
      <trkpt lat="44.921" lon="6.62456">
        <ele>1494.6928710938</ele>
        <time>2013-07-24T11:31:53Z</time>
      </trkpt>
      <trkpt lat="44.92087" lon="6.62468">
        <ele>1495.6234130859</ele>
        <time>2013-07-24T11:31:59Z</time>
      </trkpt>
      <trkpt lat="44.92075" lon="6.62481">
        <ele>1493.8035888672</ele>
        <time>2013-07-24T11:32:05Z</time>
      </trkpt>
      <trkpt lat="44.92067" lon="6.62491">
        <ele>1491.2950439453</ele>
        <time>2013-07-24T11:32:09Z</time>
      </trkpt>
      <trkpt lat="44.92064" lon="6.62498">
        <ele>1491.2016601562</ele>
        <time>2013-07-24T11:32:12Z</time>
      </trkpt>
      <trkpt lat="44.92064" lon="6.62504">
        <ele>1492.0877685547</ele>
        <time>2013-07-24T11:32:14Z</time>
      </trkpt>
      <trkpt lat="44.92051" lon="6.6252">
        <ele>1489.3917236328</ele>
        <time>2013-07-24T11:32:19Z</time>
      </trkpt>
      <trkpt lat="44.92034" lon="6.62536">
        <ele>1486.9569091797</ele>
        <time>2013-07-24T11:32:25Z</time>
      </trkpt>
      <trkpt lat="44.92019" lon="6.62548">
        <ele>1483.7521972656</ele>
        <time>2013-07-24T11:32:30Z</time>
      </trkpt>
      <trkpt lat="44.9201" lon="6.62558">
        <ele>1482.2963867188</ele>
        <time>2013-07-24T11:32:34Z</time>
      </trkpt>
      <trkpt lat="44.92007" lon="6.6256">
        <ele>1481.6510009766</ele>
        <time>2013-07-24T11:32:35Z</time>
      </trkpt>
      <trkpt lat="44.92001" lon="6.62565">
        <ele>1480.1953125</ele>
        <time>2013-07-24T11:32:37Z</time>
      </trkpt>
      <trkpt lat="44.9198" lon="6.62577">
        <ele>1475.3332519531</ele>
        <time>2013-07-24T11:32:43Z</time>
      </trkpt>
      <trkpt lat="44.91965" lon="6.62581">
        <ele>1471.0469970703</ele>
        <time>2013-07-24T11:32:47Z</time>
      </trkpt>
      <trkpt lat="44.9195" lon="6.62585">
        <ele>1467.2728271484</ele>
        <time>2013-07-24T11:32:52Z</time>
      </trkpt>
      <trkpt lat="44.9193" lon="6.62582">
        <ele>1462.2735595703</ele>
        <time>2013-07-24T11:32:58Z</time>
      </trkpt>
      <trkpt lat="44.91923" lon="6.62583">
        <ele>1461.0517578125</ele>
        <time>2013-07-24T11:33:00Z</time>
      </trkpt>
      <trkpt lat="44.91917" lon="6.62589">
        <ele>1461.3713378906</ele>
        <time>2013-07-24T11:33:03Z</time>
      </trkpt>
      <trkpt lat="44.91908" lon="6.62608">
        <ele>1460.7523193359</ele>
        <time>2013-07-24T11:33:08Z</time>
      </trkpt>
      <trkpt lat="44.91898" lon="6.62618">
        <ele>1457.4071044922</ele>
        <time>2013-07-24T11:33:13Z</time>
      </trkpt>
      <trkpt lat="44.91898" lon="6.62619">
        <ele>1457.3714599609</ele>
        <time>2013-07-24T11:33:14Z</time>
      </trkpt>
      <trkpt lat="44.91885" lon="6.62625">
        <ele>1452.4542236328</ele>
        <time>2013-07-24T11:33:20Z</time>
      </trkpt>
      <trkpt lat="44.91878" lon="6.62633">
        <ele>1452.2786865234</ele>
        <time>2013-07-24T11:33:23Z</time>
      </trkpt>
      <trkpt lat="44.91873" lon="6.62655">
        <ele>1453.8699951172</ele>
        <time>2013-07-24T11:33:28Z</time>
      </trkpt>
      <trkpt lat="44.91873" lon="6.62658">
        <ele>1454.43359375</ele>
        <time>2013-07-24T11:33:33Z</time>
      </trkpt>
      <trkpt lat="44.91872" lon="6.62658">
        <ele>1453.9643554688</ele>
        <time>2013-07-24T11:33:36Z</time>
      </trkpt>
      <trkpt lat="44.91871" lon="6.62653">
        <ele>1453.2407226562</ele>
        <time>2013-07-24T11:33:40Z</time>
      </trkpt>
      <trkpt lat="44.91865" lon="6.62635">
        <ele>1449.2873535156</ele>
        <time>2013-07-24T11:33:46Z</time>
      </trkpt>
      <trkpt lat="44.91859" lon="6.62598">
        <ele>1442.4132080078</ele>
        <time>2013-07-24T11:35:21Z</time>
      </trkpt>
      <trkpt lat="44.91855" lon="6.62612">
        <ele>1441.5009765625</ele>
        <time>2013-07-24T11:35:59Z</time>
      </trkpt>
      <trkpt lat="44.91835" lon="6.62675">
        <ele>1437.0264892578</ele>
        <time>2013-07-24T11:36:04Z</time>
      </trkpt>
      <trkpt lat="44.91814" lon="6.627">
        <ele>1431.6270751953</ele>
        <time>2013-07-24T11:36:07Z</time>
      </trkpt>
      <trkpt lat="44.9181" lon="6.62716">
        <ele>1431.3636474609</ele>
        <time>2013-07-24T11:36:07Z</time>
      </trkpt>
      <trkpt lat="44.91814" lon="6.62755">
        <ele>1432.6136474609</ele>
        <time>2013-07-24T11:36:07Z</time>
      </trkpt>
      <trkpt lat="44.91814" lon="6.62808">
        <ele>1433.4041748047</ele>
        <time>2013-07-24T11:36:07Z</time>
      </trkpt>
      <trkpt lat="44.91783" lon="6.6285">
        <ele>1437.5913085938</ele>
        <time>2013-07-24T11:36:07Z</time>
      </trkpt>
      <trkpt lat="44.91703" lon="6.62837">
        <ele>1430.7496337891</ele>
        <time>2013-07-24T11:36:07Z</time>
      </trkpt>
      <trkpt lat="44.91655" lon="6.62888">
        <ele>1441.3325195312</ele>
        <time>2013-07-24T11:36:07Z</time>
      </trkpt>
      <trkpt lat="44.91634" lon="6.62946">
        <ele>1455.837890625</ele>
        <time>2013-07-24T11:36:07Z</time>
      </trkpt>
      <trkpt lat="44.91616" lon="6.62974">
        <ele>1459.4704589844</ele>
        <time>2013-07-24T11:36:07Z</time>
      </trkpt>
      <trkpt lat="44.91549" lon="6.62988">
        <ele>1451.7069091797</ele>
        <time>2013-07-24T11:36:07Z</time>
      </trkpt>
      <trkpt lat="44.91526" lon="6.63028">
        <ele>1461.9580078125</ele>
        <time>2013-07-24T11:36:07Z</time>
      </trkpt>
      <trkpt lat="44.91476" lon="6.63027">
        <ele>1456.0255126953</ele>
        <time>2013-07-24T11:36:07Z</time>
      </trkpt>
      <trkpt lat="44.91458" lon="6.63">
        <ele>1438.2980957031</ele>
        <time>2013-07-24T11:36:07Z</time>
      </trkpt>
      <trkpt lat="44.91411" lon="6.63019">
        <ele>1437.3719482422</ele>
        <time>2013-07-24T11:36:07Z</time>
      </trkpt>
      <trkpt lat="44.91388" lon="6.63039">
        <ele>1437.0743408203</ele>
        <time>2013-07-24T11:36:07Z</time>
      </trkpt>
      <trkpt lat="44.91394" lon="6.63072">
        <ele>1444.3854980469</ele>
        <time>2013-07-24T11:36:07Z</time>
      </trkpt>
      <trkpt lat="44.91385" lon="6.63111">
        <ele>1445.2292480469</ele>
        <time>2013-07-24T11:36:07Z</time>
      </trkpt>
      <trkpt lat="44.91349" lon="6.63146">
        <ele>1437.8139648438</ele>
        <time>2013-07-24T11:36:07Z</time>
      </trkpt>
      <trkpt lat="44.91318" lon="6.63174">
        <ele>1436.1416015625</ele>
        <time>2013-07-24T11:36:07Z</time>
      </trkpt>
      <trkpt lat="44.91304" lon="6.63194">
        <ele>1439.4527587891</ele>
        <time>2013-07-24T11:36:07Z</time>
      </trkpt>
      <trkpt lat="44.91236" lon="6.63204">
        <ele>1425.0532226562</ele>
        <time>2013-07-24T11:36:07Z</time>
      </trkpt>
      <trkpt lat="44.91214" lon="6.63244">
        <ele>1431.0427246094</ele>
        <time>2013-07-24T11:36:07Z</time>
      </trkpt>
      <trkpt lat="44.91205" lon="6.63267">
        <ele>1435.1208496094</ele>
        <time>2013-07-24T11:36:07Z</time>
      </trkpt>
      <trkpt lat="44.91162" lon="6.63262">
        <ele>1425.1225585938</ele>
        <time>2013-07-24T11:36:08Z</time>
      </trkpt>
      <trkpt lat="44.91144" lon="6.63284">
        <ele>1428.1451416016</ele>
        <time>2013-07-24T11:36:08Z</time>
      </trkpt>
      <trkpt lat="44.91086" lon="6.63312">
        <ele>1414.8067626953</ele>
        <time>2013-07-24T11:36:09Z</time>
      </trkpt>
      <trkpt lat="44.9099" lon="6.6337">
        <ele>1407.8455810547</ele>
        <time>2013-07-24T11:36:10Z</time>
      </trkpt>
      <trkpt lat="44.90943" lon="6.63408">
        <ele>1401.3121337891</ele>
        <time>2013-07-24T11:36:10Z</time>
      </trkpt>
      <trkpt lat="44.90924" lon="6.63458">
        <ele>1407.5068359375</ele>
        <time>2013-07-24T11:36:10Z</time>
      </trkpt>
      <trkpt lat="44.90905" lon="6.63511">
        <ele>1410.8751220703</ele>
        <time>2013-07-24T11:36:10Z</time>
      </trkpt>
      <trkpt lat="44.9084" lon="6.63544">
        <ele>1396.1383056641</ele>
        <time>2013-07-24T11:36:10Z</time>
      </trkpt>
      <trkpt lat="44.90775" lon="6.63587">
        <ele>1396.4224853516</ele>
        <time>2013-07-24T11:36:10Z</time>
      </trkpt>
      <trkpt lat="44.90681" lon="6.63655">
        <ele>1391.3770751953</ele>
        <time>2013-07-24T11:36:11Z</time>
      </trkpt>
      <trkpt lat="44.90633" lon="6.63724">
        <ele>1387.4737548828</ele>
        <time>2013-07-24T11:36:11Z</time>
      </trkpt>
      <trkpt lat="44.90617" lon="6.63747">
        <ele>1385.0463867188</ele>
        <time>2013-07-24T11:36:11Z</time>
      </trkpt>
      <trkpt lat="44.90588" lon="6.63786">
        <ele>1384.2923583984</ele>
        <time>2013-07-24T11:36:12Z</time>
      </trkpt>
      <trkpt lat="44.90544" lon="6.6378">
        <ele>1372.0667724609</ele>
        <time>2013-07-24T11:36:12Z</time>
      </trkpt>
      <trkpt lat="44.90533" lon="6.63789">
        <ele>1374.4736328125</ele>
        <time>2013-07-24T11:36:12Z</time>
      </trkpt>
      <trkpt lat="44.90527" lon="6.63823">
        <ele>1386.1229248047</ele>
        <time>2013-07-24T11:36:12Z</time>
      </trkpt>
      <trkpt lat="44.90519" lon="6.63861">
        <ele>1394.7283935547</ele>
        <time>2013-07-24T11:36:12Z</time>
      </trkpt>
      <trkpt lat="44.90491" lon="6.63938">
        <ele>1388.2205810547</ele>
        <time>2013-07-24T11:36:12Z</time>
      </trkpt>
      <trkpt lat="44.90485" lon="6.63977">
        <ele>1388.7818603516</ele>
        <time>2013-07-24T11:36:12Z</time>
      </trkpt>
      <trkpt lat="44.90449" lon="6.63978">
        <ele>1379.0306396484</ele>
        <time>2013-07-24T11:36:12Z</time>
      </trkpt>
      <trkpt lat="44.90427" lon="6.6402">
        <ele>1385.5980224609</ele>
        <time>2013-07-24T11:36:12Z</time>
      </trkpt>
      <trkpt lat="44.90437" lon="6.64057">
        <ele>1396.6669921875</ele>
        <time>2013-07-24T11:36:12Z</time>
      </trkpt>
      <trkpt lat="44.9042" lon="6.641">
        <ele>1393.9600830078</ele>
        <time>2013-07-24T11:36:12Z</time>
      </trkpt>
      <trkpt lat="44.90393" lon="6.64122">
        <ele>1381.1762695312</ele>
        <time>2013-07-24T11:36:12Z</time>
      </trkpt>
      <trkpt lat="44.90403" lon="6.64191">
        <ele>1393.1719970703</ele>
        <time>2013-07-24T11:36:12Z</time>
      </trkpt>
      <trkpt lat="44.90397" lon="6.64258">
        <ele>1384.7360839844</ele>
        <time>2013-07-24T11:36:12Z</time>
      </trkpt>
      <trkpt lat="44.90362" lon="6.64348">
        <ele>1375.2191162109</ele>
        <time>2013-07-24T11:36:12Z</time>
      </trkpt>
      <trkpt lat="44.90341" lon="6.6451">
        <ele>1376.734375</ele>
        <time>2013-07-24T11:36:12Z</time>
      </trkpt>
      <trkpt lat="44.90382" lon="6.64671">
        <ele>1374.9108886719</ele>
        <time>2013-07-24T11:36:12Z</time>
      </trkpt>
      <trkpt lat="44.90269" lon="6.64573">
        <ele>1351.794921875</ele>
        <time>2013-07-24T11:36:12Z</time>
      </trkpt>
      <trkpt lat="44.90158" lon="6.64484">
        <ele>1330.9252929688</ele>
        <time>2013-07-24T11:36:12Z</time>
      </trkpt>
      <trkpt lat="44.9015" lon="6.64387">
        <ele>1323.6993408203</ele>
        <time>2013-07-24T11:36:12Z</time>
      </trkpt>
      <trkpt lat="44.90159" lon="6.64298">
        <ele>1321.2802734375</ele>
        <time>2013-07-24T11:36:12Z</time>
      </trkpt>
      <trkpt lat="44.90169" lon="6.64256">
        <ele>1320.8605957031</ele>
        <time>2013-07-24T11:36:12Z</time>
      </trkpt>
      <trkpt lat="44.90108" lon="6.64201">
        <ele>1307.9571533203</ele>
        <time>2013-07-24T11:36:12Z</time>
      </trkpt>
      <trkpt lat="44.90064" lon="6.64168">
        <ele>1300.3089599609</ele>
        <time>2013-07-24T11:36:12Z</time>
      </trkpt>
      <trkpt lat="44.90062" lon="6.64152">
        <ele>1298.8306884766</ele>
        <time>2013-07-24T11:36:12Z</time>
      </trkpt>
      <trkpt lat="44.90062" lon="6.64127">
        <ele>1297.1827392578</ele>
        <time>2013-07-24T11:36:12Z</time>
      </trkpt>
      <trkpt lat="44.90062" lon="6.64092">
        <ele>1294.5550537109</ele>
        <time>2013-07-24T11:36:12Z</time>
      </trkpt>
      <trkpt lat="44.90054" lon="6.64055">
        <ele>1290.865234375</ele>
        <time>2013-07-24T11:36:12Z</time>
      </trkpt>
      <trkpt lat="44.90044" lon="6.64024">
        <ele>1287.9635009766</ele>
        <time>2013-07-24T11:36:12Z</time>
      </trkpt>
      <trkpt lat="44.90035" lon="6.63993">
        <ele>1285.4685058594</ele>
        <time>2013-07-24T11:36:12Z</time>
      </trkpt>
      <trkpt lat="44.90026" lon="6.63957">
        <ele>1282.7672119141</ele>
        <time>2013-07-24T11:36:12Z</time>
      </trkpt>
      <trkpt lat="44.9003" lon="6.63923">
        <ele>1280.5974121094</ele>
        <time>2013-07-24T11:36:12Z</time>
      </trkpt>
      <trkpt lat="44.90042" lon="6.63904">
        <ele>1280.1098632812</ele>
        <time>2013-07-24T11:36:12Z</time>
      </trkpt>
      <trkpt lat="44.9006" lon="6.63841">
        <ele>1274.9636230469</ele>
        <time>2013-07-24T11:36:12Z</time>
      </trkpt>
      <trkpt lat="44.90077" lon="6.63805">
        <ele>1271.4758300781</ele>
        <time>2013-07-24T11:36:12Z</time>
      </trkpt>
      <trkpt lat="44.90052" lon="6.63826">
        <ele>1272.7504882812</ele>
        <time>2013-07-24T11:36:12Z</time>
      </trkpt>
      <trkpt lat="44.90036" lon="6.63836">
        <ele>1272.8707275391</ele>
        <time>2013-07-24T11:36:12Z</time>
      </trkpt>
      <trkpt lat="44.90032" lon="6.63788">
        <ele>1264.1947021484</ele>
        <time>2013-07-24T11:36:12Z</time>
      </trkpt>
      <trkpt lat="44.90054" lon="6.63722">
        <ele>1253.7346191406</ele>
        <time>2013-07-24T11:36:12Z</time>
      </trkpt>
      <trkpt lat="44.90079" lon="6.63677">
        <ele>1250.0539550781</ele>
        <time>2013-07-24T11:36:12Z</time>
      </trkpt>
      <trkpt lat="44.90105" lon="6.63653">
        <ele>1250.4713134766</ele>
        <time>2013-07-24T11:36:12Z</time>
      </trkpt>
      <trkpt lat="44.9013" lon="6.63597">
        <ele>1245.6956787109</ele>
        <time>2013-07-24T11:36:12Z</time>
      </trkpt>
      <trkpt lat="44.90152" lon="6.63514">
        <ele>1239.4349365234</ele>
        <time>2013-07-24T11:36:12Z</time>
      </trkpt>
      <trkpt lat="44.90154" lon="6.6348">
        <ele>1237.5655517578</ele>
        <time>2013-07-24T11:36:13Z</time>
      </trkpt>
      <trkpt lat="44.90173" lon="6.63416">
        <ele>1236.4411621094</ele>
        <time>2013-07-24T11:36:14Z</time>
      </trkpt>
      <trkpt lat="44.90188" lon="6.63384">
        <ele>1236.3330078125</ele>
        <time>2013-07-24T11:36:15Z</time>
      </trkpt>
      <trkpt lat="44.90207" lon="6.63324">
        <ele>1235.6873779297</ele>
        <time>2013-07-24T11:36:16Z</time>
      </trkpt>
      <trkpt lat="44.90221" lon="6.63255">
        <ele>1235.8752441406</ele>
        <time>2013-07-24T11:36:17Z</time>
      </trkpt>
      <trkpt lat="44.90219" lon="6.63226">
        <ele>1236.7280273438</ele>
        <time>2013-07-24T11:36:17Z</time>
      </trkpt>
      <trkpt lat="44.90228" lon="6.6316">
        <ele>1239.9456787109</ele>
        <time>2013-07-24T11:36:17Z</time>
      </trkpt>
      <trkpt lat="44.90208" lon="6.63146">
        <ele>1239.2418212891</ele>
        <time>2013-07-24T11:36:17Z</time>
      </trkpt>
      <trkpt lat="44.90152" lon="6.63183">
        <ele>1234.0455322266</ele>
        <time>2013-07-24T11:36:17Z</time>
      </trkpt>
      <trkpt lat="44.90082" lon="6.63234">
        <ele>1229</ele>
        <time>2013-07-24T11:36:17Z</time>
      </trkpt>
      <trkpt lat="44.89999" lon="6.63292">
        <ele>1225.4223632812</ele>
        <time>2013-07-24T11:36:19Z</time>
      </trkpt>
      <trkpt lat="44.89995" lon="6.63307">
        <ele>1224.7595214844</ele>
        <time>2013-07-24T11:36:19Z</time>
      </trkpt>
      <trkpt lat="44.90034" lon="6.63433">
        <ele>1225.7857666016</ele>
        <time>2013-07-24T11:36:20Z</time>
      </trkpt>
    </trkseg>
  </trk>
</gpx>